<gpx xmlns="http://www.topografix.com/GPX/1/1" xmlns:xsi="http://www.w3.org/2001/XMLSchema-instance" version="1.1" xsi:schemaLocation="http://www.topografix.com/GPX/1/1 http://www.topografix.com/GPX/1/1/gpx.xsd" creator="MotionXGPSFull 24.1 Build 5049R64">
<trk>
<name>Mts Glorious &amp; Nebo</name>
<desc>16 May 2016  2:55 pm</desc>
<trkseg>
<trkpt lat="-27.3569000" lon="152.9566915">
<ele>26.978</ele>
<time>2016-05-16T04:55:12.000Z</time>
</trkpt>
<trkpt lat="-27.3569000" lon="152.9566915">
<ele>26.966</ele>
<time>2016-05-16T04:55:16.999Z</time>
</trkpt>
<trkpt lat="-27.3569000" lon="152.9566915">
<ele>26.959</ele>
<time>2016-05-16T04:57:25.844Z</time>
</trkpt>
<trkpt lat="-27.3568109" lon="152.9565649">
<ele>26.953</ele>
<time>2016-05-16T04:57:49.360Z</time>
</trkpt>
<trkpt lat="-27.3567607" lon="152.9564746">
<ele>27.381</ele>
<time>2016-05-16T04:57:56.673Z</time>
</trkpt>
<trkpt lat="-27.3566629" lon="152.9565252">
<ele>28.506</ele>
<time>2016-05-16T04:58:04.999Z</time>
</trkpt>
<trkpt lat="-27.3566629" lon="152.9565252">
<ele>29.441</ele>
<time>2016-05-16T04:58:16.999Z</time>
</trkpt>
<trkpt lat="-27.3566629" lon="152.9565252">
<ele>29.413</ele>
<time>2016-05-16T04:59:34.963Z</time>
</trkpt>
<trkpt lat="-27.3565487" lon="152.9566859">
<ele>29.033</ele>
<time>2016-05-16T04:59:42.444Z</time>
</trkpt>
<trkpt lat="-27.3563042" lon="152.9568651">
<ele>29.668</ele>
<time>2016-05-16T04:59:45.962Z</time>
</trkpt>
<trkpt lat="-27.3560725" lon="152.9570025">
<ele>31.984</ele>
<time>2016-05-16T04:59:48.340Z</time>
</trkpt>
<trkpt lat="-27.3558869" lon="152.9571469">
<ele>34.872</ele>
<time>2016-05-16T04:59:50.467Z</time>
</trkpt>
<trkpt lat="-27.3556890" lon="152.9572184">
<ele>36.692</ele>
<time>2016-05-16T04:59:52.618Z</time>
</trkpt>
<trkpt lat="-27.3555188" lon="152.9572714">
<ele>36.951</ele>
<time>2016-05-16T04:59:54.553Z</time>
</trkpt>
<trkpt lat="-27.3552384" lon="152.9573204">
<ele>36.101</ele>
<time>2016-05-16T04:59:58.079Z</time>
</trkpt>
<trkpt lat="-27.3550881" lon="152.9573323">
<ele>34.880</ele>
<time>2016-05-16T05:00:00.536Z</time>
</trkpt>
<trkpt lat="-27.3549758" lon="152.9572846">
<ele>33.714</ele>
<time>2016-05-16T05:00:02.625Z</time>
</trkpt>
<trkpt lat="-27.3548405" lon="152.9572981">
<ele>32.703</ele>
<time>2016-05-16T05:00:04.888Z</time>
</trkpt>
<trkpt lat="-27.3548950" lon="152.9574309">
<ele>32.032</ele>
<time>2016-05-16T05:00:06.504Z</time>
</trkpt>
<trkpt lat="-27.3549211" lon="152.9578907">
<ele>31.887</ele>
<time>2016-05-16T05:00:10.574Z</time>
</trkpt>
<trkpt lat="-27.3549312" lon="152.9581621">
<ele>32.759</ele>
<time>2016-05-16T05:00:12.448Z</time>
</trkpt>
<trkpt lat="-27.3549479" lon="152.9586119">
<ele>34.906</ele>
<time>2016-05-16T05:00:15.371Z</time>
</trkpt>
<trkpt lat="-27.3549608" lon="152.9589076">
<ele>37.479</ele>
<time>2016-05-16T05:00:17.283Z</time>
</trkpt>
<trkpt lat="-27.3549847" lon="152.9592033">
<ele>39.522</ele>
<time>2016-05-16T05:00:19.212Z</time>
</trkpt>
<trkpt lat="-27.3550444" lon="152.9594868">
<ele>40.761</ele>
<time>2016-05-16T05:00:21.102Z</time>
</trkpt>
<trkpt lat="-27.3551440" lon="152.9597821">
<ele>41.239</ele>
<time>2016-05-16T05:00:23.123Z</time>
</trkpt>
<trkpt lat="-27.3552559" lon="152.9600601">
<ele>41.237</ele>
<time>2016-05-16T05:00:25.082Z</time>
</trkpt>
<trkpt lat="-27.3553651" lon="152.9603351">
<ele>41.032</ele>
<time>2016-05-16T05:00:27.145Z</time>
</trkpt>
<trkpt lat="-27.3555126" lon="152.9607077">
<ele>40.667</ele>
<time>2016-05-16T05:00:30.216Z</time>
</trkpt>
<trkpt lat="-27.3556354" lon="152.9610269">
<ele>39.960</ele>
<time>2016-05-16T05:00:33.117Z</time>
</trkpt>
<trkpt lat="-27.3557022" lon="152.9613255">
<ele>38.705</ele>
<time>2016-05-16T05:00:35.749Z</time>
</trkpt>
<trkpt lat="-27.3558516" lon="152.9615335">
<ele>37.258</ele>
<time>2016-05-16T05:00:37.836Z</time>
</trkpt>
<trkpt lat="-27.3560319" lon="152.9619142">
<ele>36.345</ele>
<time>2016-05-16T05:00:40.882Z</time>
</trkpt>
<trkpt lat="-27.3561924" lon="152.9623596">
<ele>36.367</ele>
<time>2016-05-16T05:00:43.971Z</time>
</trkpt>
<trkpt lat="-27.3564058" lon="152.9627653">
<ele>37.160</ele>
<time>2016-05-16T05:00:46.816Z</time>
</trkpt>
<trkpt lat="-27.3566390" lon="152.9632098">
<ele>38.203</ele>
<time>2016-05-16T05:00:49.783Z</time>
</trkpt>
<trkpt lat="-27.3568354" lon="152.9634812">
<ele>39.105</ele>
<time>2016-05-16T05:00:51.713Z</time>
</trkpt>
<trkpt lat="-27.3570731" lon="152.9637346">
<ele>39.958</ele>
<time>2016-05-16T05:00:53.685Z</time>
</trkpt>
<trkpt lat="-27.3573214" lon="152.9639957">
<ele>41.303</ele>
<time>2016-05-16T05:00:55.697Z</time>
</trkpt>
<trkpt lat="-27.3575752" lon="152.9642482">
<ele>43.446</ele>
<time>2016-05-16T05:00:57.738Z</time>
</trkpt>
<trkpt lat="-27.3578820" lon="152.9645824">
<ele>45.921</ele>
<time>2016-05-16T05:01:00.372Z</time>
</trkpt>
<trkpt lat="-27.3581116" lon="152.9648858">
<ele>48.272</ele>
<time>2016-05-16T05:01:02.634Z</time>
</trkpt>
<trkpt lat="-27.3583852" lon="152.9652803">
<ele>50.541</ele>
<time>2016-05-16T05:01:05.555Z</time>
</trkpt>
<trkpt lat="-27.3585920" lon="152.9656967">
<ele>52.456</ele>
<time>2016-05-16T05:01:08.452Z</time>
</trkpt>
<trkpt lat="-27.3586745" lon="152.9659789">
<ele>53.292</ele>
<time>2016-05-16T05:01:10.287Z</time>
</trkpt>
<trkpt lat="-27.3587134" lon="152.9663063">
<ele>52.699</ele>
<time>2016-05-16T05:01:12.352Z</time>
</trkpt>
<trkpt lat="-27.3586673" lon="152.9667678">
<ele>51.160</ele>
<time>2016-05-16T05:01:15.469Z</time>
</trkpt>
<trkpt lat="-27.3585539" lon="152.9671065">
<ele>49.383</ele>
<time>2016-05-16T05:01:18.315Z</time>
</trkpt>
<trkpt lat="-27.3584339" lon="152.9673965">
<ele>47.375</ele>
<time>2016-05-16T05:01:21.201Z</time>
</trkpt>
<trkpt lat="-27.3583556" lon="152.9675804">
<ele>44.843</ele>
<time>2016-05-16T05:01:23.196Z</time>
</trkpt>
<trkpt lat="-27.3582533" lon="152.9678206">
<ele>42.260</ele>
<time>2016-05-16T05:01:25.970Z</time>
</trkpt>
<trkpt lat="-27.3581921" lon="152.9679644">
<ele>40.381</ele>
<time>2016-05-16T05:01:27.820Z</time>
</trkpt>
<trkpt lat="-27.3581250" lon="152.9680985">
<ele>39.246</ele>
<time>2016-05-16T05:01:29.676Z</time>
</trkpt>
<trkpt lat="-27.3580491" lon="152.9682489">
<ele>38.563</ele>
<time>2016-05-16T05:01:31.695Z</time>
</trkpt>
<trkpt lat="-27.3579783" lon="152.9683956">
<ele>38.248</ele>
<time>2016-05-16T05:01:33.482Z</time>
</trkpt>
<trkpt lat="-27.3578491" lon="152.9686656">
<ele>38.213</ele>
<time>2016-05-16T05:01:36.553Z</time>
</trkpt>
<trkpt lat="-27.3577282" lon="152.9689179">
<ele>38.063</ele>
<time>2016-05-16T05:01:39.508Z</time>
</trkpt>
<trkpt lat="-27.3576586" lon="152.9690653">
<ele>37.323</ele>
<time>2016-05-16T05:01:41.443Z</time>
</trkpt>
<trkpt lat="-27.3575818" lon="152.9692282">
<ele>35.973</ele>
<time>2016-05-16T05:01:43.999Z</time>
</trkpt>
<trkpt lat="-27.3575818" lon="152.9692282">
<ele>34.600</ele>
<time>2016-05-16T05:01:48.999Z</time>
</trkpt>
<trkpt lat="-27.3575818" lon="152.9692282">
<ele>33.882</ele>
<time>2016-05-16T05:02:27.703Z</time>
</trkpt>
<trkpt lat="-27.3574692" lon="152.9694638">
<ele>33.932</ele>
<time>2016-05-16T05:02:34.573Z</time>
</trkpt>
<trkpt lat="-27.3573821" lon="152.9698311">
<ele>34.072</ele>
<time>2016-05-16T05:02:38.869Z</time>
</trkpt>
<trkpt lat="-27.3577821" lon="152.9698841">
<ele>33.776</ele>
<time>2016-05-16T05:02:42.000Z</time>
</trkpt>
<trkpt lat="-27.3580427" lon="152.9700145">
<ele>33.619</ele>
<time>2016-05-16T05:02:43.834Z</time>
</trkpt>
<trkpt lat="-27.3583286" lon="152.9701904">
<ele>34.601</ele>
<time>2016-05-16T05:02:45.830Z</time>
</trkpt>
<trkpt lat="-27.3587920" lon="152.9704919">
<ele>36.698</ele>
<time>2016-05-16T05:02:48.628Z</time>
</trkpt>
<trkpt lat="-27.3591072" lon="152.9707052">
<ele>38.896</ele>
<time>2016-05-16T05:02:50.355Z</time>
</trkpt>
<trkpt lat="-27.3594447" lon="152.9709049">
<ele>40.486</ele>
<time>2016-05-16T05:02:52.144Z</time>
</trkpt>
<trkpt lat="-27.3599419" lon="152.9711409">
<ele>41.431</ele>
<time>2016-05-16T05:02:54.889Z</time>
</trkpt>
<trkpt lat="-27.3602329" lon="152.9714716">
<ele>42.012</ele>
<time>2016-05-16T05:02:57.301Z</time>
</trkpt>
<trkpt lat="-27.3605453" lon="152.9716796">
<ele>42.565</ele>
<time>2016-05-16T05:02:59.874Z</time>
</trkpt>
<trkpt lat="-27.3606479" lon="152.9717603">
<ele>43.104</ele>
<time>2016-05-16T05:03:01.000Z</time>
</trkpt>
<trkpt lat="-27.3606479" lon="152.9717603">
<ele>43.365</ele>
<time>2016-05-16T05:03:06.000Z</time>
</trkpt>
<trkpt lat="-27.3606479" lon="152.9717603">
<ele>43.321</ele>
<time>2016-05-16T05:03:42.920Z</time>
</trkpt>
<trkpt lat="-27.3609809" lon="152.9719087">
<ele>43.202</ele>
<time>2016-05-16T05:03:51.069Z</time>
</trkpt>
<trkpt lat="-27.3612083" lon="152.9720203">
<ele>44.204</ele>
<time>2016-05-16T05:03:52.972Z</time>
</trkpt>
<trkpt lat="-27.3617066" lon="152.9722699">
<ele>47.606</ele>
<time>2016-05-16T05:03:56.618Z</time>
</trkpt>
<trkpt lat="-27.3622146" lon="152.9726373">
<ele>53.406</ele>
<time>2016-05-16T05:04:00.205Z</time>
</trkpt>
<trkpt lat="-27.3625341" lon="152.9728905">
<ele>60.184</ele>
<time>2016-05-16T05:04:02.281Z</time>
</trkpt>
<trkpt lat="-27.3628505" lon="152.9731462">
<ele>65.653</ele>
<time>2016-05-16T05:04:04.285Z</time>
</trkpt>
<trkpt lat="-27.3633715" lon="152.9735186">
<ele>68.277</ele>
<time>2016-05-16T05:04:07.425Z</time>
</trkpt>
<trkpt lat="-27.3638188" lon="152.9739145">
<ele>68.784</ele>
<time>2016-05-16T05:04:10.349Z</time>
</trkpt>
<trkpt lat="-27.3643015" lon="152.9742268">
<ele>68.691</ele>
<time>2016-05-16T05:04:13.147Z</time>
</trkpt>
<trkpt lat="-27.3646248" lon="152.9744663">
<ele>68.766</ele>
<time>2016-05-16T05:04:15.066Z</time>
</trkpt>
<trkpt lat="-27.3650802" lon="152.9748958">
<ele>68.899</ele>
<time>2016-05-16T05:04:17.937Z</time>
</trkpt>
<trkpt lat="-27.3654739" lon="152.9754220">
<ele>68.807</ele>
<time>2016-05-16T05:04:20.862Z</time>
</trkpt>
<trkpt lat="-27.3657281" lon="152.9757990">
<ele>67.645</ele>
<time>2016-05-16T05:04:22.876Z</time>
</trkpt>
<trkpt lat="-27.3659319" lon="152.9761783">
<ele>64.539</ele>
<time>2016-05-16T05:04:24.754Z</time>
</trkpt>
<trkpt lat="-27.3662271" lon="152.9765400">
<ele>60.414</ele>
<time>2016-05-16T05:04:26.844Z</time>
</trkpt>
<trkpt lat="-27.3663576" lon="152.9767302">
<ele>57.257</ele>
<time>2016-05-16T05:04:27.875Z</time>
</trkpt>
<trkpt lat="-27.3668272" lon="152.9774470">
<ele>55.497</ele>
<time>2016-05-16T05:04:31.693Z</time>
</trkpt>
<trkpt lat="-27.3671999" lon="152.9779846">
<ele>54.436</ele>
<time>2016-05-16T05:04:34.604Z</time>
</trkpt>
<trkpt lat="-27.3676470" lon="152.9784623">
<ele>54.262</ele>
<time>2016-05-16T05:04:37.570Z</time>
</trkpt>
<trkpt lat="-27.3681481" lon="152.9788747">
<ele>55.279</ele>
<time>2016-05-16T05:04:40.540Z</time>
</trkpt>
<trkpt lat="-27.3685067" lon="152.9790846">
<ele>56.175</ele>
<time>2016-05-16T05:04:42.462Z</time>
</trkpt>
<trkpt lat="-27.3688878" lon="152.9792734">
<ele>55.591</ele>
<time>2016-05-16T05:04:44.445Z</time>
</trkpt>
<trkpt lat="-27.3694538" lon="152.9795360">
<ele>53.626</ele>
<time>2016-05-16T05:04:47.378Z</time>
</trkpt>
<trkpt lat="-27.3698295" lon="152.9797207">
<ele>51.264</ele>
<time>2016-05-16T05:04:49.378Z</time>
</trkpt>
<trkpt lat="-27.3701953" lon="152.9799010">
<ele>49.545</ele>
<time>2016-05-16T05:04:51.363Z</time>
</trkpt>
<trkpt lat="-27.3707417" lon="152.9801518">
<ele>49.066</ele>
<time>2016-05-16T05:04:54.303Z</time>
</trkpt>
<trkpt lat="-27.3713009" lon="152.9803469">
<ele>50.326</ele>
<time>2016-05-16T05:04:57.208Z</time>
</trkpt>
<trkpt lat="-27.3716912" lon="152.9804249">
<ele>53.183</ele>
<time>2016-05-16T05:04:59.179Z</time>
</trkpt>
<trkpt lat="-27.3720682" lon="152.9804522">
<ele>56.474</ele>
<time>2016-05-16T05:05:01.047Z</time>
</trkpt>
<trkpt lat="-27.3724887" lon="152.9804640">
<ele>59.508</ele>
<time>2016-05-16T05:05:03.096Z</time>
</trkpt>
<trkpt lat="-27.3731251" lon="152.9804146">
<ele>62.049</ele>
<time>2016-05-16T05:05:06.178Z</time>
</trkpt>
<trkpt lat="-27.3735376" lon="152.9803816">
<ele>63.594</ele>
<time>2016-05-16T05:05:08.148Z</time>
</trkpt>
<trkpt lat="-27.3739413" lon="152.9803690">
<ele>64.237</ele>
<time>2016-05-16T05:05:10.079Z</time>
</trkpt>
<trkpt lat="-27.3743467" lon="152.9803551">
<ele>64.488</ele>
<time>2016-05-16T05:05:12.026Z</time>
</trkpt>
<trkpt lat="-27.3749559" lon="152.9803563">
<ele>64.571</ele>
<time>2016-05-16T05:05:14.964Z</time>
</trkpt>
<trkpt lat="-27.3755496" lon="152.9804201">
<ele>64.610</ele>
<time>2016-05-16T05:05:17.890Z</time>
</trkpt>
<trkpt lat="-27.3759373" lon="152.9804582">
<ele>65.030</ele>
<time>2016-05-16T05:05:19.939Z</time>
</trkpt>
<trkpt lat="-27.3764756" lon="152.9804863">
<ele>65.985</ele>
<time>2016-05-16T05:05:23.025Z</time>
</trkpt>
<trkpt lat="-27.3769281" lon="152.9805851">
<ele>66.899</ele>
<time>2016-05-16T05:05:26.028Z</time>
</trkpt>
<trkpt lat="-27.3771939" lon="152.9806205">
<ele>67.262</ele>
<time>2016-05-16T05:05:28.019Z</time>
</trkpt>
<trkpt lat="-27.3775571" lon="152.9807040">
<ele>67.196</ele>
<time>2016-05-16T05:05:30.887Z</time>
</trkpt>
<trkpt lat="-27.3779485" lon="152.9807305">
<ele>66.595</ele>
<time>2016-05-16T05:05:34.428Z</time>
</trkpt>
<trkpt lat="-27.3781444" lon="152.9807558">
<ele>65.082</ele>
<time>2016-05-16T05:05:36.510Z</time>
</trkpt>
<trkpt lat="-27.3783034" lon="152.9807873">
<ele>62.689</ele>
<time>2016-05-16T05:05:38.094Z</time>
</trkpt>
<trkpt lat="-27.3784141" lon="152.9807954">
<ele>60.224</ele>
<time>2016-05-16T05:05:39.140Z</time>
</trkpt>
<trkpt lat="-27.3788384" lon="152.9808525">
<ele>58.799</ele>
<time>2016-05-16T05:05:42.332Z</time>
</trkpt>
<trkpt lat="-27.3792515" lon="152.9809163">
<ele>58.733</ele>
<time>2016-05-16T05:05:44.725Z</time>
</trkpt>
<trkpt lat="-27.3797767" lon="152.9810681">
<ele>59.185</ele>
<time>2016-05-16T05:05:47.652Z</time>
</trkpt>
<trkpt lat="-27.3802837" lon="152.9813390">
<ele>58.851</ele>
<time>2016-05-16T05:05:50.710Z</time>
</trkpt>
<trkpt lat="-27.3804318" lon="152.9814350">
<ele>57.022</ele>
<time>2016-05-16T05:05:51.650Z</time>
</trkpt>
<trkpt lat="-27.3810154" lon="152.9819165">
<ele>54.465</ele>
<time>2016-05-16T05:05:55.615Z</time>
</trkpt>
<trkpt lat="-27.3814043" lon="152.9823208">
<ele>52.363</ele>
<time>2016-05-16T05:05:58.532Z</time>
</trkpt>
<trkpt lat="-27.3816588" lon="152.9825750">
<ele>51.049</ele>
<time>2016-05-16T05:06:00.424Z</time>
</trkpt>
<trkpt lat="-27.3819280" lon="152.9828244">
<ele>50.421</ele>
<time>2016-05-16T05:06:02.373Z</time>
</trkpt>
<trkpt lat="-27.3823971" lon="152.9831035">
<ele>50.276</ele>
<time>2016-05-16T05:06:05.339Z</time>
</trkpt>
<trkpt lat="-27.3829042" lon="152.9832676">
<ele>50.500</ele>
<time>2016-05-16T05:06:08.291Z</time>
</trkpt>
<trkpt lat="-27.3832469" lon="152.9833735">
<ele>51.239</ele>
<time>2016-05-16T05:06:10.276Z</time>
</trkpt>
<trkpt lat="-27.3837488" lon="152.9835361">
<ele>52.643</ele>
<time>2016-05-16T05:06:13.203Z</time>
</trkpt>
<trkpt lat="-27.3842521" lon="152.9836875">
<ele>55.175</ele>
<time>2016-05-16T05:06:16.146Z</time>
</trkpt>
<trkpt lat="-27.3845793" lon="152.9838087">
<ele>58.773</ele>
<time>2016-05-16T05:06:18.097Z</time>
</trkpt>
<trkpt lat="-27.3850404" lon="152.9840761">
<ele>62.442</ele>
<time>2016-05-16T05:06:21.028Z</time>
</trkpt>
<trkpt lat="-27.3854891" lon="152.9844589">
<ele>65.727</ele>
<time>2016-05-16T05:06:24.217Z</time>
</trkpt>
<trkpt lat="-27.3857772" lon="152.9846442">
<ele>68.498</ele>
<time>2016-05-16T05:06:26.114Z</time>
</trkpt>
<trkpt lat="-27.3862692" lon="152.9848228">
<ele>69.638</ele>
<time>2016-05-16T05:06:29.068Z</time>
</trkpt>
<trkpt lat="-27.3868098" lon="152.9848612">
<ele>68.423</ele>
<time>2016-05-16T05:06:32.214Z</time>
</trkpt>
<trkpt lat="-27.3871323" lon="152.9848788">
<ele>65.565</ele>
<time>2016-05-16T05:06:34.202Z</time>
</trkpt>
<trkpt lat="-27.3875918" lon="152.9849131">
<ele>62.605</ele>
<time>2016-05-16T05:06:37.141Z</time>
</trkpt>
<trkpt lat="-27.3880395" lon="152.9849560">
<ele>60.620</ele>
<time>2016-05-16T05:06:40.066Z</time>
</trkpt>
<trkpt lat="-27.3883414" lon="152.9850050">
<ele>59.694</ele>
<time>2016-05-16T05:06:42.036Z</time>
</trkpt>
<trkpt lat="-27.3887891" lon="152.9851101">
<ele>59.742</ele>
<time>2016-05-16T05:06:44.990Z</time>
</trkpt>
<trkpt lat="-27.3892443" lon="152.9851291">
<ele>61.064</ele>
<time>2016-05-16T05:06:47.951Z</time>
</trkpt>
<trkpt lat="-27.3895468" lon="152.9851405">
<ele>63.436</ele>
<time>2016-05-16T05:06:49.908Z</time>
</trkpt>
<trkpt lat="-27.3899916" lon="152.9851615">
<ele>65.993</ele>
<time>2016-05-16T05:06:52.769Z</time>
</trkpt>
<trkpt lat="-27.3904589" lon="152.9852152">
<ele>68.317</ele>
<time>2016-05-16T05:06:55.772Z</time>
</trkpt>
<trkpt lat="-27.3909152" lon="152.9851801">
<ele>70.477</ele>
<time>2016-05-16T05:06:58.690Z</time>
</trkpt>
<trkpt lat="-27.3913663" lon="152.9851187">
<ele>72.223</ele>
<time>2016-05-16T05:07:01.573Z</time>
</trkpt>
<trkpt lat="-27.3918071" lon="152.9850358">
<ele>73.202</ele>
<time>2016-05-16T05:07:04.367Z</time>
</trkpt>
<trkpt lat="-27.3921350" lon="152.9849820">
<ele>73.378</ele>
<time>2016-05-16T05:07:06.358Z</time>
</trkpt>
<trkpt lat="-27.3926416" lon="152.9850199">
<ele>72.727</ele>
<time>2016-05-16T05:07:09.338Z</time>
</trkpt>
<trkpt lat="-27.3929509" lon="152.9851358">
<ele>71.153</ele>
<time>2016-05-16T05:07:11.243Z</time>
</trkpt>
<trkpt lat="-27.3934079" lon="152.9853315">
<ele>68.603</ele>
<time>2016-05-16T05:07:14.124Z</time>
</trkpt>
<trkpt lat="-27.3938708" lon="152.9855276">
<ele>65.736</ele>
<time>2016-05-16T05:07:17.102Z</time>
</trkpt>
<trkpt lat="-27.3941447" lon="152.9856488">
<ele>64.452</ele>
<time>2016-05-16T05:07:18.975Z</time>
</trkpt>
<trkpt lat="-27.3945523" lon="152.9858112">
<ele>65.576</ele>
<time>2016-05-16T05:07:21.915Z</time>
</trkpt>
<trkpt lat="-27.3948014" lon="152.9859090">
<ele>67.194</ele>
<time>2016-05-16T05:07:23.806Z</time>
</trkpt>
<trkpt lat="-27.3951788" lon="152.9860584">
<ele>67.236</ele>
<time>2016-05-16T05:07:26.742Z</time>
</trkpt>
<trkpt lat="-27.3954397" lon="152.9861734">
<ele>65.246</ele>
<time>2016-05-16T05:07:28.725Z</time>
</trkpt>
<trkpt lat="-27.3957087" lon="152.9863040">
<ele>62.140</ele>
<time>2016-05-16T05:07:30.707Z</time>
</trkpt>
<trkpt lat="-27.3959773" lon="152.9864423">
<ele>59.339</ele>
<time>2016-05-16T05:07:32.769Z</time>
</trkpt>
<trkpt lat="-27.3963241" lon="152.9866062">
<ele>57.478</ele>
<time>2016-05-16T05:07:35.658Z</time>
</trkpt>
<trkpt lat="-27.3965219" lon="152.9866984">
<ele>56.399</ele>
<time>2016-05-16T05:07:37.523Z</time>
</trkpt>
<trkpt lat="-27.3968217" lon="152.9868336">
<ele>55.906</ele>
<time>2016-05-16T05:07:40.451Z</time>
</trkpt>
<trkpt lat="-27.3970165" lon="152.9869176">
<ele>56.201</ele>
<time>2016-05-16T05:07:42.324Z</time>
</trkpt>
<trkpt lat="-27.3973461" lon="152.9870537">
<ele>57.819</ele>
<time>2016-05-16T05:07:45.408Z</time>
</trkpt>
<trkpt lat="-27.3975700" lon="152.9870763">
<ele>60.592</ele>
<time>2016-05-16T05:07:47.383Z</time>
</trkpt>
<trkpt lat="-27.3978827" lon="152.9869496">
<ele>63.748</ele>
<time>2016-05-16T05:07:50.351Z</time>
</trkpt>
<trkpt lat="-27.3980646" lon="152.9867755">
<ele>66.400</ele>
<time>2016-05-16T05:07:52.440Z</time>
</trkpt>
<trkpt lat="-27.3983541" lon="152.9865651">
<ele>67.814</ele>
<time>2016-05-16T05:07:55.346Z</time>
</trkpt>
<trkpt lat="-27.3986592" lon="152.9863474">
<ele>67.745</ele>
<time>2016-05-16T05:07:58.313Z</time>
</trkpt>
<trkpt lat="-27.3988904" lon="152.9862499">
<ele>66.051</ele>
<time>2016-05-16T05:08:00.304Z</time>
</trkpt>
<trkpt lat="-27.3992910" lon="152.9862702">
<ele>62.879</ele>
<time>2016-05-16T05:08:03.393Z</time>
</trkpt>
<trkpt lat="-27.3997190" lon="152.9863584">
<ele>58.947</ele>
<time>2016-05-16T05:08:06.523Z</time>
</trkpt>
<trkpt lat="-27.3999879" lon="152.9864150">
<ele>55.080</ele>
<time>2016-05-16T05:08:08.474Z</time>
</trkpt>
<trkpt lat="-27.4003343" lon="152.9864941">
<ele>51.629</ele>
<time>2016-05-16T05:08:11.247Z</time>
</trkpt>
<trkpt lat="-27.4005118" lon="152.9864829">
<ele>48.416</ele>
<time>2016-05-16T05:08:13.000Z</time>
</trkpt>
<trkpt lat="-27.4005118" lon="152.9864829">
<ele>45.644</ele>
<time>2016-05-16T05:08:19.000Z</time>
</trkpt>
<trkpt lat="-27.4005118" lon="152.9864829">
<ele>44.247</ele>
<time>2016-05-16T05:09:03.048Z</time>
</trkpt>
<trkpt lat="-27.4006830" lon="152.9863404">
<ele>44.413</ele>
<time>2016-05-16T05:09:08.322Z</time>
</trkpt>
<trkpt lat="-27.4006481" lon="152.9859892">
<ele>45.236</ele>
<time>2016-05-16T05:09:11.674Z</time>
</trkpt>
<trkpt lat="-27.4006265" lon="152.9857422">
<ele>46.469</ele>
<time>2016-05-16T05:09:13.553Z</time>
</trkpt>
<trkpt lat="-27.4005722" lon="152.9854598">
<ele>48.554</ele>
<time>2016-05-16T05:09:15.512Z</time>
</trkpt>
<trkpt lat="-27.4004709" lon="152.9851607">
<ele>51.302</ele>
<time>2016-05-16T05:09:17.645Z</time>
</trkpt>
<trkpt lat="-27.4003008" lon="152.9847733">
<ele>54.124</ele>
<time>2016-05-16T05:09:20.813Z</time>
</trkpt>
<trkpt lat="-27.4000669" lon="152.9845411">
<ele>56.492</ele>
<time>2016-05-16T05:09:23.890Z</time>
</trkpt>
<trkpt lat="-27.3999123" lon="152.9844514">
<ele>57.890</ele>
<time>2016-05-16T05:09:25.707Z</time>
</trkpt>
<trkpt lat="-27.3996598" lon="152.9843049">
<ele>58.502</ele>
<time>2016-05-16T05:09:28.549Z</time>
</trkpt>
<trkpt lat="-27.3994576" lon="152.9842130">
<ele>59.325</ele>
<time>2016-05-16T05:09:30.591Z</time>
</trkpt>
<trkpt lat="-27.3992392" lon="152.9841495">
<ele>60.995</ele>
<time>2016-05-16T05:09:32.553Z</time>
</trkpt>
<trkpt lat="-27.3989039" lon="152.9839921">
<ele>63.059</ele>
<time>2016-05-16T05:09:35.653Z</time>
</trkpt>
<trkpt lat="-27.3986025" lon="152.9837854">
<ele>65.401</ele>
<time>2016-05-16T05:09:38.854Z</time>
</trkpt>
<trkpt lat="-27.3984882" lon="152.9835896">
<ele>68.140</ele>
<time>2016-05-16T05:09:41.034Z</time>
</trkpt>
<trkpt lat="-27.3984604" lon="152.9834840">
<ele>70.373</ele>
<time>2016-05-16T05:09:42.028Z</time>
</trkpt>
<trkpt lat="-27.3984809" lon="152.9830262">
<ele>71.353</ele>
<time>2016-05-16T05:09:45.990Z</time>
</trkpt>
<trkpt lat="-27.3985026" lon="152.9826660">
<ele>71.511</ele>
<time>2016-05-16T05:09:48.874Z</time>
</trkpt>
<trkpt lat="-27.3983468" lon="152.9822917">
<ele>71.485</ele>
<time>2016-05-16T05:09:51.929Z</time>
</trkpt>
<trkpt lat="-27.3981303" lon="152.9819269">
<ele>71.717</ele>
<time>2016-05-16T05:09:54.954Z</time>
</trkpt>
<trkpt lat="-27.3979010" lon="152.9815616">
<ele>72.702</ele>
<time>2016-05-16T05:09:57.968Z</time>
</trkpt>
<trkpt lat="-27.3977515" lon="152.9813247">
<ele>74.499</ele>
<time>2016-05-16T05:09:59.914Z</time>
</trkpt>
<trkpt lat="-27.3975271" lon="152.9809492">
<ele>76.466</ele>
<time>2016-05-16T05:10:02.927Z</time>
</trkpt>
<trkpt lat="-27.3972752" lon="152.9807445">
<ele>78.167</ele>
<time>2016-05-16T05:10:05.262Z</time>
</trkpt>
<trkpt lat="-27.3969922" lon="152.9806919">
<ele>79.588</ele>
<time>2016-05-16T05:10:07.415Z</time>
</trkpt>
<trkpt lat="-27.3965781" lon="152.9808460">
<ele>80.915</ele>
<time>2016-05-16T05:10:10.705Z</time>
</trkpt>
<trkpt lat="-27.3963372" lon="152.9809521">
<ele>82.408</ele>
<time>2016-05-16T05:10:12.736Z</time>
</trkpt>
<trkpt lat="-27.3960000" lon="152.9807863">
<ele>83.808</ele>
<time>2016-05-16T05:10:15.541Z</time>
</trkpt>
<trkpt lat="-27.3957462" lon="152.9806186">
<ele>84.536</ele>
<time>2016-05-16T05:10:17.613Z</time>
</trkpt>
<trkpt lat="-27.3953542" lon="152.9803973">
<ele>84.451</ele>
<time>2016-05-16T05:10:20.791Z</time>
</trkpt>
<trkpt lat="-27.3950325" lon="152.9802192">
<ele>83.922</ele>
<time>2016-05-16T05:10:23.671Z</time>
</trkpt>
<trkpt lat="-27.3948863" lon="152.9800074">
<ele>83.685</ele>
<time>2016-05-16T05:10:25.715Z</time>
</trkpt>
<trkpt lat="-27.3948530" lon="152.9798007">
<ele>84.267</ele>
<time>2016-05-16T05:10:27.238Z</time>
</trkpt>
<trkpt lat="-27.3949336" lon="152.9794529">
<ele>85.511</ele>
<time>2016-05-16T05:10:29.767Z</time>
</trkpt>
<trkpt lat="-27.3950146" lon="152.9790371">
<ele>86.952</ele>
<time>2016-05-16T05:10:32.745Z</time>
</trkpt>
<trkpt lat="-27.3949290" lon="152.9787406">
<ele>88.227</ele>
<time>2016-05-16T05:10:34.764Z</time>
</trkpt>
<trkpt lat="-27.3947561" lon="152.9784594">
<ele>89.104</ele>
<time>2016-05-16T05:10:36.841Z</time>
</trkpt>
<trkpt lat="-27.3945105" lon="152.9780870">
<ele>89.548</ele>
<time>2016-05-16T05:10:39.690Z</time>
</trkpt>
<trkpt lat="-27.3942682" lon="152.9777013">
<ele>89.663</ele>
<time>2016-05-16T05:10:42.668Z</time>
</trkpt>
<trkpt lat="-27.3940065" lon="152.9773163">
<ele>89.600</ele>
<time>2016-05-16T05:10:45.774Z</time>
</trkpt>
<trkpt lat="-27.3938352" lon="152.9770968">
<ele>89.086</ele>
<time>2016-05-16T05:10:47.701Z</time>
</trkpt>
<trkpt lat="-27.3936206" lon="152.9769177">
<ele>87.749</ele>
<time>2016-05-16T05:10:49.741Z</time>
</trkpt>
<trkpt lat="-27.3932772" lon="152.9767925">
<ele>86.128</ele>
<time>2016-05-16T05:10:52.535Z</time>
</trkpt>
<trkpt lat="-27.3929595" lon="152.9765905">
<ele>85.391</ele>
<time>2016-05-16T05:10:55.336Z</time>
</trkpt>
<trkpt lat="-27.3927397" lon="152.9761964">
<ele>85.829</ele>
<time>2016-05-16T05:10:58.383Z</time>
</trkpt>
<trkpt lat="-27.3926146" lon="152.9759101">
<ele>86.331</ele>
<time>2016-05-16T05:11:00.456Z</time>
</trkpt>
<trkpt lat="-27.3924623" lon="152.9756685">
<ele>85.843</ele>
<time>2016-05-16T05:11:02.869Z</time>
</trkpt>
<trkpt lat="-27.3923047" lon="152.9755243">
<ele>84.681</ele>
<time>2016-05-16T05:11:05.999Z</time>
</trkpt>
<trkpt lat="-27.3922165" lon="152.9754696">
<ele>83.473</ele>
<time>2016-05-16T05:11:08.278Z</time>
</trkpt>
<trkpt lat="-27.3921248" lon="152.9754180">
<ele>82.430</ele>
<time>2016-05-16T05:11:13.104Z</time>
</trkpt>
<trkpt lat="-27.3920165" lon="152.9753584">
<ele>81.890</ele>
<time>2016-05-16T05:11:18.488Z</time>
</trkpt>
<trkpt lat="-27.3919261" lon="152.9752724">
<ele>82.152</ele>
<time>2016-05-16T05:11:21.025Z</time>
</trkpt>
<trkpt lat="-27.3918122" lon="152.9749587">
<ele>83.091</ele>
<time>2016-05-16T05:11:24.604Z</time>
</trkpt>
<trkpt lat="-27.3917415" lon="152.9746985">
<ele>84.355</ele>
<time>2016-05-16T05:11:26.778Z</time>
</trkpt>
<trkpt lat="-27.3915919" lon="152.9743017">
<ele>85.476</ele>
<time>2016-05-16T05:11:29.890Z</time>
</trkpt>
<trkpt lat="-27.3914836" lon="152.9739076">
<ele>86.105</ele>
<time>2016-05-16T05:11:32.773Z</time>
</trkpt>
<trkpt lat="-27.3914342" lon="152.9736262">
<ele>86.009</ele>
<time>2016-05-16T05:11:34.748Z</time>
</trkpt>
<trkpt lat="-27.3914206" lon="152.9733226">
<ele>85.274</ele>
<time>2016-05-16T05:11:36.787Z</time>
</trkpt>
<trkpt lat="-27.3914534" lon="152.9728667">
<ele>84.486</ele>
<time>2016-05-16T05:11:39.852Z</time>
</trkpt>
<trkpt lat="-27.3914771" lon="152.9726050">
<ele>84.052</ele>
<time>2016-05-16T05:11:41.681Z</time>
</trkpt>
<trkpt lat="-27.3914502" lon="152.9723277">
<ele>83.734</ele>
<time>2016-05-16T05:11:43.628Z</time>
</trkpt>
<trkpt lat="-27.3913372" lon="152.9720528">
<ele>83.335</ele>
<time>2016-05-16T05:11:45.677Z</time>
</trkpt>
<trkpt lat="-27.3911488" lon="152.9716226">
<ele>83.103</ele>
<time>2016-05-16T05:11:48.767Z</time>
</trkpt>
<trkpt lat="-27.3911066" lon="152.9713051">
<ele>83.235</ele>
<time>2016-05-16T05:11:50.761Z</time>
</trkpt>
<trkpt lat="-27.3911732" lon="152.9708087">
<ele>83.473</ele>
<time>2016-05-16T05:11:53.826Z</time>
</trkpt>
<trkpt lat="-27.3913185" lon="152.9703862">
<ele>83.515</ele>
<time>2016-05-16T05:11:56.700Z</time>
</trkpt>
<trkpt lat="-27.3914690" lon="152.9701816">
<ele>83.120</ele>
<time>2016-05-16T05:11:58.491Z</time>
</trkpt>
<trkpt lat="-27.3917609" lon="152.9698653">
<ele>82.299</ele>
<time>2016-05-16T05:12:01.564Z</time>
</trkpt>
<trkpt lat="-27.3920314" lon="152.9695420">
<ele>81.538</ele>
<time>2016-05-16T05:12:04.528Z</time>
</trkpt>
<trkpt lat="-27.3922264" lon="152.9693085">
<ele>81.200</ele>
<time>2016-05-16T05:12:06.721Z</time>
</trkpt>
<trkpt lat="-27.3924148" lon="152.9690463">
<ele>81.131</ele>
<time>2016-05-16T05:12:09.112Z</time>
</trkpt>
<trkpt lat="-27.3926009" lon="152.9688048">
<ele>81.067</ele>
<time>2016-05-16T05:12:11.637Z</time>
</trkpt>
<trkpt lat="-27.3927367" lon="152.9685306">
<ele>80.879</ele>
<time>2016-05-16T05:12:14.343Z</time>
</trkpt>
<trkpt lat="-27.3927877" lon="152.9683605">
<ele>80.479</ele>
<time>2016-05-16T05:12:16.040Z</time>
</trkpt>
<trkpt lat="-27.3928795" lon="152.9681342">
<ele>79.883</ele>
<time>2016-05-16T05:12:18.688Z</time>
</trkpt>
<trkpt lat="-27.3929304" lon="152.9680177">
<ele>79.333</ele>
<time>2016-05-16T05:12:20.285Z</time>
</trkpt>
<trkpt lat="-27.3928596" lon="152.9678202">
<ele>79.017</ele>
<time>2016-05-16T05:12:23.189Z</time>
</trkpt>
<trkpt lat="-27.3927505" lon="152.9676407">
<ele>79.047</ele>
<time>2016-05-16T05:12:25.775Z</time>
</trkpt>
<trkpt lat="-27.3925414" lon="152.9673067">
<ele>79.712</ele>
<time>2016-05-16T05:12:29.269Z</time>
</trkpt>
<trkpt lat="-27.3924240" lon="152.9670980">
<ele>81.269</ele>
<time>2016-05-16T05:12:31.200Z</time>
</trkpt>
<trkpt lat="-27.3923385" lon="152.9668706">
<ele>83.325</ele>
<time>2016-05-16T05:12:33.137Z</time>
</trkpt>
<trkpt lat="-27.3922485" lon="152.9664663">
<ele>85.026</ele>
<time>2016-05-16T05:12:36.319Z</time>
</trkpt>
<trkpt lat="-27.3921816" lon="152.9660684">
<ele>86.240</ele>
<time>2016-05-16T05:12:39.359Z</time>
</trkpt>
<trkpt lat="-27.3920960" lon="152.9656625">
<ele>87.352</ele>
<time>2016-05-16T05:12:42.572Z</time>
</trkpt>
<trkpt lat="-27.3920361" lon="152.9654389">
<ele>88.527</ele>
<time>2016-05-16T05:12:44.515Z</time>
</trkpt>
<trkpt lat="-27.3919790" lon="152.9652393">
<ele>89.744</ele>
<time>2016-05-16T05:12:46.344Z</time>
</trkpt>
<trkpt lat="-27.3919166" lon="152.9649926">
<ele>90.941</ele>
<time>2016-05-16T05:12:48.419Z</time>
</trkpt>
<trkpt lat="-27.3918466" lon="152.9647241">
<ele>92.241</ele>
<time>2016-05-16T05:12:50.398Z</time>
</trkpt>
<trkpt lat="-27.3917554" lon="152.9643764">
<ele>93.818</ele>
<time>2016-05-16T05:12:52.661Z</time>
</trkpt>
<trkpt lat="-27.3917179" lon="152.9642080">
<ele>95.278</ele>
<time>2016-05-16T05:12:53.692Z</time>
</trkpt>
<trkpt lat="-27.3916706" lon="152.9635132">
<ele>95.978</ele>
<time>2016-05-16T05:12:57.684Z</time>
</trkpt>
<trkpt lat="-27.3917183" lon="152.9631828">
<ele>95.243</ele>
<time>2016-05-16T05:12:59.645Z</time>
</trkpt>
<trkpt lat="-27.3917902" lon="152.9627468">
<ele>92.881</ele>
<time>2016-05-16T05:13:02.600Z</time>
</trkpt>
<trkpt lat="-27.3918344" lon="152.9624711">
<ele>89.259</ele>
<time>2016-05-16T05:13:04.984Z</time>
</trkpt>
<trkpt lat="-27.3918887" lon="152.9623701">
<ele>84.951</ele>
<time>2016-05-16T05:13:06.581Z</time>
</trkpt>
<trkpt lat="-27.3919066" lon="152.9622629">
<ele>81.021</ele>
<time>2016-05-16T05:13:08.696Z</time>
</trkpt>
<trkpt lat="-27.3919349" lon="152.9620836">
<ele>78.644</ele>
<time>2016-05-16T05:13:12.327Z</time>
</trkpt>
<trkpt lat="-27.3919226" lon="152.9618449">
<ele>78.075</ele>
<time>2016-05-16T05:13:15.610Z</time>
</trkpt>
<trkpt lat="-27.3918080" lon="152.9616252">
<ele>79.121</ele>
<time>2016-05-16T05:13:18.378Z</time>
</trkpt>
<trkpt lat="-27.3916614" lon="152.9614740">
<ele>81.382</ele>
<time>2016-05-16T05:13:20.473Z</time>
</trkpt>
<trkpt lat="-27.3914101" lon="152.9612496">
<ele>84.127</ele>
<time>2016-05-16T05:13:23.563Z</time>
</trkpt>
<trkpt lat="-27.3912437" lon="152.9611002">
<ele>86.695</ele>
<time>2016-05-16T05:13:25.508Z</time>
</trkpt>
<trkpt lat="-27.3910697" lon="152.9609365">
<ele>88.614</ele>
<time>2016-05-16T05:13:27.499Z</time>
</trkpt>
<trkpt lat="-27.3908481" lon="152.9606495">
<ele>89.584</ele>
<time>2016-05-16T05:13:30.485Z</time>
</trkpt>
<trkpt lat="-27.3907768" lon="152.9602950">
<ele>89.775</ele>
<time>2016-05-16T05:13:33.689Z</time>
</trkpt>
<trkpt lat="-27.3907464" lon="152.9600907">
<ele>89.519</ele>
<time>2016-05-16T05:13:35.999Z</time>
</trkpt>
<trkpt lat="-27.3907464" lon="152.9600907">
<ele>89.068</ele>
<time>2016-05-16T05:13:39.999Z</time>
</trkpt>
<trkpt lat="-27.3907464" lon="152.9600907">
<ele>88.742</ele>
<time>2016-05-16T05:13:52.562Z</time>
</trkpt>
<trkpt lat="-27.3907133" lon="152.9599060">
<ele>88.718</ele>
<time>2016-05-16T05:13:57.238Z</time>
</trkpt>
<trkpt lat="-27.3906745" lon="152.9596872">
<ele>88.500</ele>
<time>2016-05-16T05:13:59.481Z</time>
</trkpt>
<trkpt lat="-27.3906337" lon="152.9594256">
<ele>87.708</ele>
<time>2016-05-16T05:14:01.464Z</time>
</trkpt>
<trkpt lat="-27.3905626" lon="152.9589522">
<ele>87.232</ele>
<time>2016-05-16T05:14:04.644Z</time>
</trkpt>
<trkpt lat="-27.3905195" lon="152.9586791">
<ele>88.299</ele>
<time>2016-05-16T05:14:06.363Z</time>
</trkpt>
<trkpt lat="-27.3904355" lon="152.9581458">
<ele>90.486</ele>
<time>2016-05-16T05:14:09.750Z</time>
</trkpt>
<trkpt lat="-27.3903885" lon="152.9578411">
<ele>92.124</ele>
<time>2016-05-16T05:14:11.817Z</time>
</trkpt>
<trkpt lat="-27.3903775" lon="152.9575583">
<ele>92.393</ele>
<time>2016-05-16T05:14:13.743Z</time>
</trkpt>
<trkpt lat="-27.3904976" lon="152.9571419">
<ele>91.834</ele>
<time>2016-05-16T05:14:16.657Z</time>
</trkpt>
<trkpt lat="-27.3906431" lon="152.9569046">
<ele>91.110</ele>
<time>2016-05-16T05:14:18.537Z</time>
</trkpt>
<trkpt lat="-27.3908127" lon="152.9566640">
<ele>90.374</ele>
<time>2016-05-16T05:14:20.549Z</time>
</trkpt>
<trkpt lat="-27.3910599" lon="152.9563094">
<ele>89.575</ele>
<time>2016-05-16T05:14:23.478Z</time>
</trkpt>
<trkpt lat="-27.3911907" lon="152.9560187">
<ele>88.282</ele>
<time>2016-05-16T05:14:25.515Z</time>
</trkpt>
<trkpt lat="-27.3912850" lon="152.9555670">
<ele>86.147</ele>
<time>2016-05-16T05:14:28.359Z</time>
</trkpt>
<trkpt lat="-27.3912711" lon="152.9552157">
<ele>83.904</ele>
<time>2016-05-16T05:14:30.522Z</time>
</trkpt>
<trkpt lat="-27.3913234" lon="152.9547415">
<ele>82.761</ele>
<time>2016-05-16T05:14:33.518Z</time>
</trkpt>
<trkpt lat="-27.3915675" lon="152.9543488">
<ele>83.060</ele>
<time>2016-05-16T05:14:36.532Z</time>
</trkpt>
<trkpt lat="-27.3918116" lon="152.9541697">
<ele>84.148</ele>
<time>2016-05-16T05:14:38.536Z</time>
</trkpt>
<trkpt lat="-27.3920603" lon="152.9539955">
<ele>84.944</ele>
<time>2016-05-16T05:14:40.523Z</time>
</trkpt>
<trkpt lat="-27.3923720" lon="152.9536292">
<ele>84.982</ele>
<time>2016-05-16T05:14:43.558Z</time>
</trkpt>
<trkpt lat="-27.3925003" lon="152.9533327">
<ele>84.479</ele>
<time>2016-05-16T05:14:45.475Z</time>
</trkpt>
<trkpt lat="-27.3925704" lon="152.9529792">
<ele>83.786</ele>
<time>2016-05-16T05:14:47.487Z</time>
</trkpt>
<trkpt lat="-27.3926650" lon="152.9524534">
<ele>83.328</ele>
<time>2016-05-16T05:14:50.390Z</time>
</trkpt>
<trkpt lat="-27.3927647" lon="152.9518959">
<ele>83.609</ele>
<time>2016-05-16T05:14:53.413Z</time>
</trkpt>
<trkpt lat="-27.3928336" lon="152.9515277">
<ele>84.976</ele>
<time>2016-05-16T05:14:55.404Z</time>
</trkpt>
<trkpt lat="-27.3928432" lon="152.9511499">
<ele>87.242</ele>
<time>2016-05-16T05:14:57.388Z</time>
</trkpt>
<trkpt lat="-27.3928828" lon="152.9507575">
<ele>89.799</ele>
<time>2016-05-16T05:14:59.443Z</time>
</trkpt>
<trkpt lat="-27.3930346" lon="152.9502048">
<ele>92.160</ele>
<time>2016-05-16T05:15:02.489Z</time>
</trkpt>
<trkpt lat="-27.3931320" lon="152.9498561">
<ele>94.780</ele>
<time>2016-05-16T05:15:04.477Z</time>
</trkpt>
<trkpt lat="-27.3932080" lon="152.9495053">
<ele>97.917</ele>
<time>2016-05-16T05:15:06.478Z</time>
</trkpt>
<trkpt lat="-27.3932205" lon="152.9491521">
<ele>100.600</ele>
<time>2016-05-16T05:15:08.483Z</time>
</trkpt>
<trkpt lat="-27.3932553" lon="152.9486532">
<ele>102.357</ele>
<time>2016-05-16T05:15:11.341Z</time>
</trkpt>
<trkpt lat="-27.3933756" lon="152.9481401">
<ele>104.055</ele>
<time>2016-05-16T05:15:14.352Z</time>
</trkpt>
<trkpt lat="-27.3935056" lon="152.9476005">
<ele>106.425</ele>
<time>2016-05-16T05:15:17.570Z</time>
</trkpt>
<trkpt lat="-27.3935471" lon="152.9471066">
<ele>109.327</ele>
<time>2016-05-16T05:15:20.592Z</time>
</trkpt>
<trkpt lat="-27.3934982" lon="152.9468065">
<ele>111.721</ele>
<time>2016-05-16T05:15:22.507Z</time>
</trkpt>
<trkpt lat="-27.3933478" lon="152.9463441">
<ele>112.590</ele>
<time>2016-05-16T05:15:25.572Z</time>
</trkpt>
<trkpt lat="-27.3931937" lon="152.9460721">
<ele>111.562</ele>
<time>2016-05-16T05:15:27.628Z</time>
</trkpt>
<trkpt lat="-27.3929937" lon="152.9458968">
<ele>109.353</ele>
<time>2016-05-16T05:15:29.492Z</time>
</trkpt>
<trkpt lat="-27.3926562" lon="152.9456515">
<ele>107.698</ele>
<time>2016-05-16T05:15:32.439Z</time>
</trkpt>
<trkpt lat="-27.3924753" lon="152.9454102">
<ele>108.147</ele>
<time>2016-05-16T05:15:34.530Z</time>
</trkpt>
<trkpt lat="-27.3923450" lon="152.9451693">
<ele>110.620</ele>
<time>2016-05-16T05:15:36.593Z</time>
</trkpt>
<trkpt lat="-27.3922718" lon="152.9448168">
<ele>113.399</ele>
<time>2016-05-16T05:15:39.410Z</time>
</trkpt>
<trkpt lat="-27.3923082" lon="152.9444443">
<ele>114.644</ele>
<time>2016-05-16T05:15:42.329Z</time>
</trkpt>
<trkpt lat="-27.3923878" lon="152.9441718">
<ele>113.876</ele>
<time>2016-05-16T05:15:44.361Z</time>
</trkpt>
<trkpt lat="-27.3925549" lon="152.9437679">
<ele>111.820</ele>
<time>2016-05-16T05:15:47.344Z</time>
</trkpt>
<trkpt lat="-27.3926297" lon="152.9432969">
<ele>109.375</ele>
<time>2016-05-16T05:15:50.353Z</time>
</trkpt>
<trkpt lat="-27.3926179" lon="152.9427936">
<ele>107.050</ele>
<time>2016-05-16T05:15:53.376Z</time>
</trkpt>
<trkpt lat="-27.3926030" lon="152.9422901">
<ele>105.244</ele>
<time>2016-05-16T05:15:56.371Z</time>
</trkpt>
<trkpt lat="-27.3926988" lon="152.9418093">
<ele>104.074</ele>
<time>2016-05-16T05:15:59.358Z</time>
</trkpt>
<trkpt lat="-27.3928290" lon="152.9415304">
<ele>103.291</ele>
<time>2016-05-16T05:16:01.322Z</time>
</trkpt>
<trkpt lat="-27.3929532" lon="152.9410897">
<ele>102.730</ele>
<time>2016-05-16T05:16:04.226Z</time>
</trkpt>
<trkpt lat="-27.3929858" lon="152.9407737">
<ele>102.676</ele>
<time>2016-05-16T05:16:06.211Z</time>
</trkpt>
<trkpt lat="-27.3929895" lon="152.9404535">
<ele>103.265</ele>
<time>2016-05-16T05:16:08.233Z</time>
</trkpt>
<trkpt lat="-27.3930157" lon="152.9401438">
<ele>103.804</ele>
<time>2016-05-16T05:16:10.344Z</time>
</trkpt>
<trkpt lat="-27.3931133" lon="152.9397604">
<ele>103.571</ele>
<time>2016-05-16T05:16:13.280Z</time>
</trkpt>
<trkpt lat="-27.3933184" lon="152.9394719">
<ele>102.794</ele>
<time>2016-05-16T05:16:16.200Z</time>
</trkpt>
<trkpt lat="-27.3934826" lon="152.9393317">
<ele>102.126</ele>
<time>2016-05-16T05:16:18.066Z</time>
</trkpt>
<trkpt lat="-27.3935803" lon="152.9392421">
<ele>101.771</ele>
<time>2016-05-16T05:16:19.210Z</time>
</trkpt>
<trkpt lat="-27.3939145" lon="152.9389508">
<ele>101.408</ele>
<time>2016-05-16T05:16:23.351Z</time>
</trkpt>
<trkpt lat="-27.3941115" lon="152.9388462">
<ele>99.846</ele>
<time>2016-05-16T05:16:26.201Z</time>
</trkpt>
<trkpt lat="-27.3942029" lon="152.9387937">
<ele>95.955</ele>
<time>2016-05-16T05:16:27.995Z</time>
</trkpt>
<trkpt lat="-27.3942029" lon="152.9387937">
<ele>91.066</ele>
<time>2016-05-16T05:16:32.995Z</time>
</trkpt>
<trkpt lat="-27.3942029" lon="152.9387937">
<ele>88.242</ele>
<time>2016-05-16T05:16:35.550Z</time>
</trkpt>
<trkpt lat="-27.3943539" lon="152.9386689">
<ele>88.404</ele>
<time>2016-05-16T05:16:40.729Z</time>
</trkpt>
<trkpt lat="-27.3943536" lon="152.9385098">
<ele>88.874</ele>
<time>2016-05-16T05:16:42.995Z</time>
</trkpt>
<trkpt lat="-27.3943536" lon="152.9385098">
<ele>87.442</ele>
<time>2016-05-16T05:16:48.995Z</time>
</trkpt>
<trkpt lat="-27.3943536" lon="152.9385098">
<ele>85.730</ele>
<time>2016-05-16T05:16:55.969Z</time>
</trkpt>
<trkpt lat="-27.3943201" lon="152.9382599">
<ele>85.663</ele>
<time>2016-05-16T05:17:01.466Z</time>
</trkpt>
<trkpt lat="-27.3942851" lon="152.9379680">
<ele>86.304</ele>
<time>2016-05-16T05:17:04.401Z</time>
</trkpt>
<trkpt lat="-27.3942260" lon="152.9376002">
<ele>86.277</ele>
<time>2016-05-16T05:17:07.382Z</time>
</trkpt>
<trkpt lat="-27.3941972" lon="152.9373294">
<ele>85.478</ele>
<time>2016-05-16T05:17:09.359Z</time>
</trkpt>
<trkpt lat="-27.3941682" lon="152.9370590">
<ele>84.274</ele>
<time>2016-05-16T05:17:11.307Z</time>
</trkpt>
<trkpt lat="-27.3941148" lon="152.9366350">
<ele>82.858</ele>
<time>2016-05-16T05:17:14.359Z</time>
</trkpt>
<trkpt lat="-27.3940873" lon="152.9363666">
<ele>81.193</ele>
<time>2016-05-16T05:17:16.241Z</time>
</trkpt>
<trkpt lat="-27.3940300" lon="152.9359383">
<ele>79.118</ele>
<time>2016-05-16T05:17:19.223Z</time>
</trkpt>
<trkpt lat="-27.3939918" lon="152.9356525">
<ele>76.682</ele>
<time>2016-05-16T05:17:21.365Z</time>
</trkpt>
<trkpt lat="-27.3939457" lon="152.9353141">
<ele>74.183</ele>
<time>2016-05-16T05:17:24.235Z</time>
</trkpt>
<trkpt lat="-27.3939233" lon="152.9351460">
<ele>71.564</ele>
<time>2016-05-16T05:17:25.948Z</time>
</trkpt>
<trkpt lat="-27.3938744" lon="152.9349084">
<ele>68.704</ele>
<time>2016-05-16T05:17:28.631Z</time>
</trkpt>
<trkpt lat="-27.3938375" lon="152.9346845">
<ele>66.286</ele>
<time>2016-05-16T05:17:31.436Z</time>
</trkpt>
<trkpt lat="-27.3938201" lon="152.9345788">
<ele>65.463</ele>
<time>2016-05-16T05:17:32.999Z</time>
</trkpt>
<trkpt lat="-27.3938201" lon="152.9345788">
<ele>66.288</ele>
<time>2016-05-16T05:17:39.000Z</time>
</trkpt>
<trkpt lat="-27.3938201" lon="152.9345788">
<ele>67.273</ele>
<time>2016-05-16T05:17:39.217Z</time>
</trkpt>
<trkpt lat="-27.3937828" lon="152.9342898">
<ele>67.265</ele>
<time>2016-05-16T05:17:45.973Z</time>
</trkpt>
<trkpt lat="-27.3937626" lon="152.9341053">
<ele>67.679</ele>
<time>2016-05-16T05:17:48.122Z</time>
</trkpt>
<trkpt lat="-27.3937429" lon="152.9339354">
<ele>70.217</ele>
<time>2016-05-16T05:17:50.003Z</time>
</trkpt>
<trkpt lat="-27.3936927" lon="152.9336523">
<ele>73.755</ele>
<time>2016-05-16T05:17:53.062Z</time>
</trkpt>
<trkpt lat="-27.3936726" lon="152.9334625">
<ele>76.114</ele>
<time>2016-05-16T05:17:54.990Z</time>
</trkpt>
<trkpt lat="-27.3936428" lon="152.9332643">
<ele>76.823</ele>
<time>2016-05-16T05:17:57.050Z</time>
</trkpt>
<trkpt lat="-27.3936185" lon="152.9329708">
<ele>76.349</ele>
<time>2016-05-16T05:18:00.299Z</time>
</trkpt>
<trkpt lat="-27.3936651" lon="152.9327237">
<ele>74.868</ele>
<time>2016-05-16T05:18:03.367Z</time>
</trkpt>
<trkpt lat="-27.3938442" lon="152.9325992">
<ele>72.685</ele>
<time>2016-05-16T05:18:06.144Z</time>
</trkpt>
<trkpt lat="-27.3940930" lon="152.9325203">
<ele>70.741</ele>
<time>2016-05-16T05:18:09.351Z</time>
</trkpt>
<trkpt lat="-27.3943441" lon="152.9324533">
<ele>69.871</ele>
<time>2016-05-16T05:18:12.925Z</time>
</trkpt>
<trkpt lat="-27.3944733" lon="152.9324217">
<ele>70.012</ele>
<time>2016-05-16T05:18:15.256Z</time>
</trkpt>
<trkpt lat="-27.3945372" lon="152.9323031">
<ele>70.504</ele>
<time>2016-05-16T05:18:17.866Z</time>
</trkpt>
<trkpt lat="-27.3945663" lon="152.9321730">
<ele>70.712</ele>
<time>2016-05-16T05:18:19.981Z</time>
</trkpt>
<trkpt lat="-27.3944320" lon="152.9319787">
<ele>70.517</ele>
<time>2016-05-16T05:18:22.666Z</time>
</trkpt>
<trkpt lat="-27.3942029" lon="152.9318351">
<ele>70.281</ele>
<time>2016-05-16T05:18:24.732Z</time>
</trkpt>
<trkpt lat="-27.3939588" lon="152.9316443">
<ele>70.561</ele>
<time>2016-05-16T05:18:26.702Z</time>
</trkpt>
<trkpt lat="-27.3936317" lon="152.9312667">
<ele>71.705</ele>
<time>2016-05-16T05:18:29.673Z</time>
</trkpt>
<trkpt lat="-27.3934326" lon="152.9309873">
<ele>73.468</ele>
<time>2016-05-16T05:18:31.660Z</time>
</trkpt>
<trkpt lat="-27.3932633" lon="152.9306762">
<ele>75.175</ele>
<time>2016-05-16T05:18:33.661Z</time>
</trkpt>
<trkpt lat="-27.3930235" lon="152.9301699">
<ele>76.389</ele>
<time>2016-05-16T05:18:36.668Z</time>
</trkpt>
<trkpt lat="-27.3928709" lon="152.9298178">
<ele>77.245</ele>
<time>2016-05-16T05:18:38.706Z</time>
</trkpt>
<trkpt lat="-27.3927348" lon="152.9294889">
<ele>78.042</ele>
<time>2016-05-16T05:18:40.596Z</time>
</trkpt>
<trkpt lat="-27.3925313" lon="152.9289183">
<ele>78.801</ele>
<time>2016-05-16T05:18:43.748Z</time>
</trkpt>
<trkpt lat="-27.3923573" lon="152.9283621">
<ele>79.356</ele>
<time>2016-05-16T05:18:46.708Z</time>
</trkpt>
<trkpt lat="-27.3922232" lon="152.9277710">
<ele>79.749</ele>
<time>2016-05-16T05:18:49.686Z</time>
</trkpt>
<trkpt lat="-27.3921755" lon="152.9273429">
<ele>80.280</ele>
<time>2016-05-16T05:18:51.706Z</time>
</trkpt>
<trkpt lat="-27.3921535" lon="152.9267004">
<ele>81.004</ele>
<time>2016-05-16T05:18:54.686Z</time>
</trkpt>
<trkpt lat="-27.3921506" lon="152.9262712">
<ele>81.506</ele>
<time>2016-05-16T05:18:56.660Z</time>
</trkpt>
<trkpt lat="-27.3921745" lon="152.9258281">
<ele>81.356</ele>
<time>2016-05-16T05:18:58.693Z</time>
</trkpt>
<trkpt lat="-27.3922786" lon="152.9251956">
<ele>80.663</ele>
<time>2016-05-16T05:19:01.633Z</time>
</trkpt>
<trkpt lat="-27.3924275" lon="152.9245636">
<ele>80.013</ele>
<time>2016-05-16T05:19:04.622Z</time>
</trkpt>
<trkpt lat="-27.3926250" lon="152.9238842">
<ele>79.779</ele>
<time>2016-05-16T05:19:07.942Z</time>
</trkpt>
<trkpt lat="-27.3928037" lon="152.9233024">
<ele>79.715</ele>
<time>2016-05-16T05:19:10.873Z</time>
</trkpt>
<trkpt lat="-27.3929618" lon="152.9227272">
<ele>79.540</ele>
<time>2016-05-16T05:19:13.769Z</time>
</trkpt>
<trkpt lat="-27.3930426" lon="152.9223541">
<ele>79.424</ele>
<time>2016-05-16T05:19:15.619Z</time>
</trkpt>
<trkpt lat="-27.3931184" lon="152.9217456">
<ele>79.794</ele>
<time>2016-05-16T05:19:18.551Z</time>
</trkpt>
<trkpt lat="-27.3931231" lon="152.9210961">
<ele>80.721</ele>
<time>2016-05-16T05:19:21.620Z</time>
</trkpt>
<trkpt lat="-27.3931305" lon="152.9204760">
<ele>81.738</ele>
<time>2016-05-16T05:19:24.568Z</time>
</trkpt>
<trkpt lat="-27.3931117" lon="152.9198590">
<ele>82.371</ele>
<time>2016-05-16T05:19:27.540Z</time>
</trkpt>
<trkpt lat="-27.3930832" lon="152.9192445">
<ele>82.766</ele>
<time>2016-05-16T05:19:30.550Z</time>
</trkpt>
<trkpt lat="-27.3930964" lon="152.9188478">
<ele>83.305</ele>
<time>2016-05-16T05:19:32.500Z</time>
</trkpt>
<trkpt lat="-27.3930692" lon="152.9182408">
<ele>83.922</ele>
<time>2016-05-16T05:19:35.436Z</time>
</trkpt>
<trkpt lat="-27.3930550" lon="152.9176041">
<ele>84.316</ele>
<time>2016-05-16T05:19:38.426Z</time>
</trkpt>
<trkpt lat="-27.3930459" lon="152.9169404">
<ele>84.583</ele>
<time>2016-05-16T05:19:41.464Z</time>
</trkpt>
<trkpt lat="-27.3930199" lon="152.9162995">
<ele>84.938</ele>
<time>2016-05-16T05:19:44.407Z</time>
</trkpt>
<trkpt lat="-27.3930300" lon="152.9156647">
<ele>85.439</ele>
<time>2016-05-16T05:19:47.376Z</time>
</trkpt>
<trkpt lat="-27.3930163" lon="152.9152272">
<ele>85.983</ele>
<time>2016-05-16T05:19:49.468Z</time>
</trkpt>
<trkpt lat="-27.3930082" lon="152.9150187">
<ele>86.385</ele>
<time>2016-05-16T05:19:50.469Z</time>
</trkpt>
<trkpt lat="-27.3929832" lon="152.9141772">
<ele>86.629</ele>
<time>2016-05-16T05:19:54.479Z</time>
</trkpt>
<trkpt lat="-27.3930029" lon="152.9137962">
<ele>87.214</ele>
<time>2016-05-16T05:19:56.301Z</time>
</trkpt>
<trkpt lat="-27.3931444" lon="152.9131570">
<ele>88.315</ele>
<time>2016-05-16T05:19:59.468Z</time>
</trkpt>
<trkpt lat="-27.3933003" lon="152.9127947">
<ele>89.259</ele>
<time>2016-05-16T05:20:01.436Z</time>
</trkpt>
<trkpt lat="-27.3936174" lon="152.9122940">
<ele>89.518</ele>
<time>2016-05-16T05:20:04.470Z</time>
</trkpt>
<trkpt lat="-27.3938639" lon="152.9119727">
<ele>89.628</ele>
<time>2016-05-16T05:20:06.579Z</time>
</trkpt>
<trkpt lat="-27.3941297" lon="152.9117120">
<ele>90.439</ele>
<time>2016-05-16T05:20:08.564Z</time>
</trkpt>
<trkpt lat="-27.3943411" lon="152.9113876">
<ele>92.175</ele>
<time>2016-05-16T05:20:10.594Z</time>
</trkpt>
<trkpt lat="-27.3944710" lon="152.9110014">
<ele>94.520</ele>
<time>2016-05-16T05:20:12.676Z</time>
</trkpt>
<trkpt lat="-27.3945404" lon="152.9104131">
<ele>97.046</ele>
<time>2016-05-16T05:20:15.631Z</time>
</trkpt>
<trkpt lat="-27.3944805" lon="152.9100104">
<ele>99.867</ele>
<time>2016-05-16T05:20:17.612Z</time>
</trkpt>
<trkpt lat="-27.3943864" lon="152.9096099">
<ele>102.924</ele>
<time>2016-05-16T05:20:19.617Z</time>
</trkpt>
<trkpt lat="-27.3942499" lon="152.9090092">
<ele>105.188</ele>
<time>2016-05-16T05:20:22.639Z</time>
</trkpt>
<trkpt lat="-27.3941252" lon="152.9086218">
<ele>106.464</ele>
<time>2016-05-16T05:20:24.658Z</time>
</trkpt>
<trkpt lat="-27.3938696" lon="152.9080958">
<ele>107.807</ele>
<time>2016-05-16T05:20:27.573Z</time>
</trkpt>
<trkpt lat="-27.3936424" lon="152.9077530">
<ele>109.873</ele>
<time>2016-05-16T05:20:29.601Z</time>
</trkpt>
<trkpt lat="-27.3931781" lon="152.9073923">
<ele>112.708</ele>
<time>2016-05-16T05:20:32.581Z</time>
</trkpt>
<trkpt lat="-27.3928340" lon="152.9072129">
<ele>116.128</ele>
<time>2016-05-16T05:20:34.551Z</time>
</trkpt>
<trkpt lat="-27.3924603" lon="152.9070377">
<ele>119.675</ele>
<time>2016-05-16T05:20:36.647Z</time>
</trkpt>
<trkpt lat="-27.3921055" lon="152.9069067">
<ele>123.084</ele>
<time>2016-05-16T05:20:38.635Z</time>
</trkpt>
<trkpt lat="-27.3917747" lon="152.9067126">
<ele>126.133</ele>
<time>2016-05-16T05:20:40.659Z</time>
</trkpt>
<trkpt lat="-27.3913636" lon="152.9063227">
<ele>128.682</ele>
<time>2016-05-16T05:20:43.606Z</time>
</trkpt>
<trkpt lat="-27.3911505" lon="152.9060194">
<ele>130.909</ele>
<time>2016-05-16T05:20:45.472Z</time>
</trkpt>
<trkpt lat="-27.3909167" lon="152.9054211">
<ele>133.050</ele>
<time>2016-05-16T05:20:48.618Z</time>
</trkpt>
<trkpt lat="-27.3907027" lon="152.9048594">
<ele>135.065</ele>
<time>2016-05-16T05:20:51.640Z</time>
</trkpt>
<trkpt lat="-27.3903866" lon="152.9044158">
<ele>137.110</ele>
<time>2016-05-16T05:20:54.570Z</time>
</trkpt>
<trkpt lat="-27.3899486" lon="152.9041996">
<ele>139.629</ele>
<time>2016-05-16T05:20:57.378Z</time>
</trkpt>
<trkpt lat="-27.3895998" lon="152.9041499">
<ele>143.061</ele>
<time>2016-05-16T05:20:59.395Z</time>
</trkpt>
<trkpt lat="-27.3892489" lon="152.9042279">
<ele>146.843</ele>
<time>2016-05-16T05:21:01.375Z</time>
</trkpt>
<trkpt lat="-27.3887425" lon="152.9044959">
<ele>149.750</ele>
<time>2016-05-16T05:21:04.404Z</time>
</trkpt>
<trkpt lat="-27.3884277" lon="152.9047171">
<ele>151.138</ele>
<time>2016-05-16T05:21:06.412Z</time>
</trkpt>
<trkpt lat="-27.3880852" lon="152.9049104">
<ele>150.988</ele>
<time>2016-05-16T05:21:08.515Z</time>
</trkpt>
<trkpt lat="-27.3874227" lon="152.9050365">
<ele>149.590</ele>
<time>2016-05-16T05:21:12.433Z</time>
</trkpt>
<trkpt lat="-27.3869706" lon="152.9048556">
<ele>147.304</ele>
<time>2016-05-16T05:21:15.375Z</time>
</trkpt>
<trkpt lat="-27.3866820" lon="152.9046952">
<ele>144.220</ele>
<time>2016-05-16T05:21:17.382Z</time>
</trkpt>
<trkpt lat="-27.3862469" lon="152.9044052">
<ele>140.889</ele>
<time>2016-05-16T05:21:20.603Z</time>
</trkpt>
<trkpt lat="-27.3858335" lon="152.9042100">
<ele>138.420</ele>
<time>2016-05-16T05:21:23.589Z</time>
</trkpt>
<trkpt lat="-27.3854087" lon="152.9041093">
<ele>137.225</ele>
<time>2016-05-16T05:21:26.568Z</time>
</trkpt>
<trkpt lat="-27.3851217" lon="152.9040457">
<ele>136.707</ele>
<time>2016-05-16T05:21:28.559Z</time>
</trkpt>
<trkpt lat="-27.3848248" lon="152.9039328">
<ele>136.076</ele>
<time>2016-05-16T05:21:30.698Z</time>
</trkpt>
<trkpt lat="-27.3845757" lon="152.9038598">
<ele>134.797</ele>
<time>2016-05-16T05:21:32.449Z</time>
</trkpt>
<trkpt lat="-27.3841615" lon="152.9036691">
<ele>132.953</ele>
<time>2016-05-16T05:21:35.442Z</time>
</trkpt>
<trkpt lat="-27.3839168" lon="152.9034785">
<ele>131.094</ele>
<time>2016-05-16T05:21:37.379Z</time>
</trkpt>
<trkpt lat="-27.3835631" lon="152.9031474">
<ele>129.424</ele>
<time>2016-05-16T05:21:40.345Z</time>
</trkpt>
<trkpt lat="-27.3832423" lon="152.9027652">
<ele>127.823</ele>
<time>2016-05-16T05:21:43.342Z</time>
</trkpt>
<trkpt lat="-27.3830335" lon="152.9025016">
<ele>126.377</ele>
<time>2016-05-16T05:21:45.397Z</time>
</trkpt>
<trkpt lat="-27.3827435" lon="152.9021291">
<ele>125.236</ele>
<time>2016-05-16T05:21:48.365Z</time>
</trkpt>
<trkpt lat="-27.3825669" lon="152.9018740">
<ele>124.015</ele>
<time>2016-05-16T05:21:50.372Z</time>
</trkpt>
<trkpt lat="-27.3823734" lon="152.9014415">
<ele>122.234</ele>
<time>2016-05-16T05:21:53.378Z</time>
</trkpt>
<trkpt lat="-27.3822599" lon="152.9011400">
<ele>119.919</ele>
<time>2016-05-16T05:21:55.357Z</time>
</trkpt>
<trkpt lat="-27.3821564" lon="152.9006364">
<ele>117.440</ele>
<time>2016-05-16T05:21:58.412Z</time>
</trkpt>
<trkpt lat="-27.3821244" lon="152.9001269">
<ele>115.291</ele>
<time>2016-05-16T05:22:01.421Z</time>
</trkpt>
<trkpt lat="-27.3821352" lon="152.8997989">
<ele>113.617</ele>
<time>2016-05-16T05:22:03.403Z</time>
</trkpt>
<trkpt lat="-27.3821563" lon="152.8993157">
<ele>112.057</ele>
<time>2016-05-16T05:22:06.307Z</time>
</trkpt>
<trkpt lat="-27.3820994" lon="152.8989681">
<ele>110.551</ele>
<time>2016-05-16T05:22:08.361Z</time>
</trkpt>
<trkpt lat="-27.3820080" lon="152.8986357">
<ele>109.183</ele>
<time>2016-05-16T05:22:10.319Z</time>
</trkpt>
<trkpt lat="-27.3818090" lon="152.8981387">
<ele>107.942</ele>
<time>2016-05-16T05:22:13.358Z</time>
</trkpt>
<trkpt lat="-27.3816785" lon="152.8978397">
<ele>107.083</ele>
<time>2016-05-16T05:22:15.301Z</time>
</trkpt>
<trkpt lat="-27.3815622" lon="152.8975517">
<ele>106.720</ele>
<time>2016-05-16T05:22:17.222Z</time>
</trkpt>
<trkpt lat="-27.3814350" lon="152.8970785">
<ele>106.545</ele>
<time>2016-05-16T05:22:20.200Z</time>
</trkpt>
<trkpt lat="-27.3813734" lon="152.8965498">
<ele>106.292</ele>
<time>2016-05-16T05:22:23.263Z</time>
</trkpt>
<trkpt lat="-27.3813632" lon="152.8961852">
<ele>105.791</ele>
<time>2016-05-16T05:22:25.271Z</time>
</trkpt>
<trkpt lat="-27.3813617" lon="152.8958152">
<ele>104.828</ele>
<time>2016-05-16T05:22:27.281Z</time>
</trkpt>
<trkpt lat="-27.3813433" lon="152.8954509">
<ele>103.357</ele>
<time>2016-05-16T05:22:29.243Z</time>
</trkpt>
<trkpt lat="-27.3812424" lon="152.8949068">
<ele>101.663</ele>
<time>2016-05-16T05:22:32.196Z</time>
</trkpt>
<trkpt lat="-27.3811112" lon="152.8945496">
<ele>99.836</ele>
<time>2016-05-16T05:22:34.199Z</time>
</trkpt>
<trkpt lat="-27.3809179" lon="152.8942418">
<ele>97.737</ele>
<time>2016-05-16T05:22:36.114Z</time>
</trkpt>
<trkpt lat="-27.3805405" lon="152.8938306">
<ele>95.566</ele>
<time>2016-05-16T05:22:39.085Z</time>
</trkpt>
<trkpt lat="-27.3802591" lon="152.8936133">
<ele>93.073</ele>
<time>2016-05-16T05:22:40.991Z</time>
</trkpt>
<trkpt lat="-27.3798146" lon="152.8932672">
<ele>89.659</ele>
<time>2016-05-16T05:22:44.025Z</time>
</trkpt>
<trkpt lat="-27.3794188" lon="152.8928913">
<ele>85.560</ele>
<time>2016-05-16T05:22:47.114Z</time>
</trkpt>
<trkpt lat="-27.3792243" lon="152.8926697">
<ele>80.883</ele>
<time>2016-05-16T05:22:48.991Z</time>
</trkpt>
<trkpt lat="-27.3789515" lon="152.8923315">
<ele>75.331</ele>
<time>2016-05-16T05:22:51.883Z</time>
</trkpt>
<trkpt lat="-27.3787678" lon="152.8920891">
<ele>69.656</ele>
<time>2016-05-16T05:22:53.892Z</time>
</trkpt>
<trkpt lat="-27.3784929" lon="152.8917255">
<ele>65.204</ele>
<time>2016-05-16T05:22:56.911Z</time>
</trkpt>
<trkpt lat="-27.3783334" lon="152.8915006">
<ele>62.353</ele>
<time>2016-05-16T05:22:58.869Z</time>
</trkpt>
<trkpt lat="-27.3781211" lon="152.8912043">
<ele>60.569</ele>
<time>2016-05-16T05:23:01.629Z</time>
</trkpt>
<trkpt lat="-27.3779560" lon="152.8909924">
<ele>59.382</ele>
<time>2016-05-16T05:23:03.717Z</time>
</trkpt>
<trkpt lat="-27.3776910" lon="152.8906956">
<ele>58.709</ele>
<time>2016-05-16T05:23:06.752Z</time>
</trkpt>
<trkpt lat="-27.3775191" lon="152.8904939">
<ele>58.832</ele>
<time>2016-05-16T05:23:08.700Z</time>
</trkpt>
<trkpt lat="-27.3773474" lon="152.8902843">
<ele>60.131</ele>
<time>2016-05-16T05:23:10.665Z</time>
</trkpt>
<trkpt lat="-27.3770746" lon="152.8899985">
<ele>62.033</ele>
<time>2016-05-16T05:23:13.579Z</time>
</trkpt>
<trkpt lat="-27.3768661" lon="152.8898115">
<ele>63.409</ele>
<time>2016-05-16T05:23:15.622Z</time>
</trkpt>
<trkpt lat="-27.3765637" lon="152.8895093">
<ele>63.991</ele>
<time>2016-05-16T05:23:18.660Z</time>
</trkpt>
<trkpt lat="-27.3763874" lon="152.8893178">
<ele>64.294</ele>
<time>2016-05-16T05:23:20.627Z</time>
</trkpt>
<trkpt lat="-27.3762216" lon="152.8891461">
<ele>64.751</ele>
<time>2016-05-16T05:23:22.593Z</time>
</trkpt>
<trkpt lat="-27.3759805" lon="152.8889018">
<ele>65.406</ele>
<time>2016-05-16T05:23:25.498Z</time>
</trkpt>
<trkpt lat="-27.3757978" lon="152.8887391">
<ele>66.496</ele>
<time>2016-05-16T05:23:27.534Z</time>
</trkpt>
<trkpt lat="-27.3756298" lon="152.8885817">
<ele>68.305</ele>
<time>2016-05-16T05:23:29.466Z</time>
</trkpt>
<trkpt lat="-27.3753809" lon="152.8883603">
<ele>70.446</ele>
<time>2016-05-16T05:23:32.344Z</time>
</trkpt>
<trkpt lat="-27.3752167" lon="152.8881800">
<ele>72.322</ele>
<time>2016-05-16T05:23:34.402Z</time>
</trkpt>
<trkpt lat="-27.3749495" lon="152.8879284">
<ele>73.667</ele>
<time>2016-05-16T05:23:37.480Z</time>
</trkpt>
<trkpt lat="-27.3746979" lon="152.8876657">
<ele>74.231</ele>
<time>2016-05-16T05:23:40.504Z</time>
</trkpt>
<trkpt lat="-27.3745379" lon="152.8875010">
<ele>73.869</ele>
<time>2016-05-16T05:23:42.456Z</time>
</trkpt>
<trkpt lat="-27.3743743" lon="152.8873452">
<ele>72.781</ele>
<time>2016-05-16T05:23:44.463Z</time>
</trkpt>
<trkpt lat="-27.3741540" lon="152.8871135">
<ele>71.387</ele>
<time>2016-05-16T05:23:47.434Z</time>
</trkpt>
<trkpt lat="-27.3739587" lon="152.8868955">
<ele>69.836</ele>
<time>2016-05-16T05:23:50.472Z</time>
</trkpt>
<trkpt lat="-27.3738431" lon="152.8866972">
<ele>67.933</ele>
<time>2016-05-16T05:23:53.239Z</time>
</trkpt>
<trkpt lat="-27.3738033" lon="152.8865095">
<ele>65.432</ele>
<time>2016-05-16T05:23:55.889Z</time>
</trkpt>
<trkpt lat="-27.3736959" lon="152.8863567">
<ele>62.472</ele>
<time>2016-05-16T05:23:58.837Z</time>
</trkpt>
<trkpt lat="-27.3735660" lon="152.8863612">
<ele>59.804</ele>
<time>2016-05-16T05:24:01.070Z</time>
</trkpt>
<trkpt lat="-27.3734629" lon="152.8864593">
<ele>58.142</ele>
<time>2016-05-16T05:24:03.196Z</time>
</trkpt>
<trkpt lat="-27.3732650" lon="152.8865542">
<ele>57.521</ele>
<time>2016-05-16T05:24:06.295Z</time>
</trkpt>
<trkpt lat="-27.3731159" lon="152.8865816">
<ele>57.534</ele>
<time>2016-05-16T05:24:08.364Z</time>
</trkpt>
<trkpt lat="-27.3729926" lon="152.8866011">
<ele>57.721</ele>
<time>2016-05-16T05:24:10.241Z</time>
</trkpt>
<trkpt lat="-27.3728957" lon="152.8866290">
<ele>57.758</ele>
<time>2016-05-16T05:24:11.998Z</time>
</trkpt>
<trkpt lat="-27.3728957" lon="152.8866290">
<ele>57.557</ele>
<time>2016-05-16T05:24:16.998Z</time>
</trkpt>
<trkpt lat="-27.3728957" lon="152.8866290">
<ele>57.343</ele>
<time>2016-05-16T05:25:11.947Z</time>
</trkpt>
<trkpt lat="-27.3726453" lon="152.8866897">
<ele>57.346</ele>
<time>2016-05-16T05:25:18.949Z</time>
</trkpt>
<trkpt lat="-27.3725029" lon="152.8867325">
<ele>58.084</ele>
<time>2016-05-16T05:25:21.448Z</time>
</trkpt>
<trkpt lat="-27.3723597" lon="152.8866925">
<ele>59.740</ele>
<time>2016-05-16T05:25:24.471Z</time>
</trkpt>
<trkpt lat="-27.3722986" lon="152.8865711">
<ele>61.040</ele>
<time>2016-05-16T05:25:26.953Z</time>
</trkpt>
<trkpt lat="-27.3722461" lon="152.8864054">
<ele>60.916</ele>
<time>2016-05-16T05:25:29.845Z</time>
</trkpt>
<trkpt lat="-27.3721899" lon="152.8862405">
<ele>59.994</ele>
<time>2016-05-16T05:25:32.903Z</time>
</trkpt>
<trkpt lat="-27.3721831" lon="152.8861014">
<ele>59.136</ele>
<time>2016-05-16T05:25:36.008Z</time>
</trkpt>
<trkpt lat="-27.3722356" lon="152.8860122">
<ele>58.491</ele>
<time>2016-05-16T05:25:39.799Z</time>
</trkpt>
<trkpt lat="-27.3723264" lon="152.8859818">
<ele>57.947</ele>
<time>2016-05-16T05:25:45.266Z</time>
</trkpt>
<trkpt lat="-27.3723571" lon="152.8858717">
<ele>57.443</ele>
<time>2016-05-16T05:25:51.755Z</time>
</trkpt>
<trkpt lat="-27.3723386" lon="152.8857639">
<ele>57.007</ele>
<time>2016-05-16T05:25:56.332Z</time>
</trkpt>
<trkpt lat="-27.3723141" lon="152.8856416">
<ele>56.704</ele>
<time>2016-05-16T05:26:00.567Z</time>
</trkpt>
<trkpt lat="-27.3722900" lon="152.8855337">
<ele>56.532</ele>
<time>2016-05-16T05:26:04.319Z</time>
</trkpt>
<trkpt lat="-27.3722696" lon="152.8854258">
<ele>56.373</ele>
<time>2016-05-16T05:26:08.094Z</time>
</trkpt>
<trkpt lat="-27.3723309" lon="152.8853476">
<ele>56.083</ele>
<time>2016-05-16T05:26:11.460Z</time>
</trkpt>
<trkpt lat="-27.3724266" lon="152.8853303">
<ele>55.611</ele>
<time>2016-05-16T05:26:14.751Z</time>
</trkpt>
<trkpt lat="-27.3725382" lon="152.8853158">
<ele>55.083</ele>
<time>2016-05-16T05:26:18.615Z</time>
</trkpt>
<trkpt lat="-27.3726637" lon="152.8853036">
<ele>54.679</ele>
<time>2016-05-16T05:26:22.704Z</time>
</trkpt>
<trkpt lat="-27.3727528" lon="152.8852815">
<ele>54.460</ele>
<time>2016-05-16T05:26:25.665Z</time>
</trkpt>
<trkpt lat="-27.3728399" lon="152.8851913">
<ele>54.353</ele>
<time>2016-05-16T05:26:29.842Z</time>
</trkpt>
<trkpt lat="-27.3728785" lon="152.8850701">
<ele>54.254</ele>
<time>2016-05-16T05:26:33.684Z</time>
</trkpt>
<trkpt lat="-27.3730596" lon="152.8850361">
<ele>54.146</ele>
<time>2016-05-16T05:26:38.106Z</time>
</trkpt>
<trkpt lat="-27.3731648" lon="152.8850085">
<ele>54.239</ele>
<time>2016-05-16T05:26:40.000Z</time>
</trkpt>
<trkpt lat="-27.3731648" lon="152.8850085">
<ele>54.653</ele>
<time>2016-05-16T05:26:45.000Z</time>
</trkpt>
<trkpt lat="-27.3731648" lon="152.8850085">
<ele>55.010</ele>
<time>2016-05-16T05:26:50.624Z</time>
</trkpt>
<trkpt lat="-27.3733125" lon="152.8848169">
<ele>54.984</ele>
<time>2016-05-16T05:26:55.268Z</time>
</trkpt>
<trkpt lat="-27.3732716" lon="152.8844815">
<ele>55.207</ele>
<time>2016-05-16T05:26:58.319Z</time>
</trkpt>
<trkpt lat="-27.3732298" lon="152.8842110">
<ele>56.465</ele>
<time>2016-05-16T05:27:00.291Z</time>
</trkpt>
<trkpt lat="-27.3731865" lon="152.8839111">
<ele>58.435</ele>
<time>2016-05-16T05:27:02.270Z</time>
</trkpt>
<trkpt lat="-27.3731287" lon="152.8835851">
<ele>60.187</ele>
<time>2016-05-16T05:27:04.275Z</time>
</trkpt>
<trkpt lat="-27.3730474" lon="152.8830704">
<ele>61.240</ele>
<time>2016-05-16T05:27:07.294Z</time>
</trkpt>
<trkpt lat="-27.3729867" lon="152.8825368">
<ele>61.641</ele>
<time>2016-05-16T05:27:10.347Z</time>
</trkpt>
<trkpt lat="-27.3729678" lon="152.8823615">
<ele>61.651</ele>
<time>2016-05-16T05:27:11.356Z</time>
</trkpt>
<trkpt lat="-27.3730018" lon="152.8816777">
<ele>61.489</ele>
<time>2016-05-16T05:27:15.255Z</time>
</trkpt>
<trkpt lat="-27.3731523" lon="152.8811741">
<ele>60.971</ele>
<time>2016-05-16T05:27:18.249Z</time>
</trkpt>
<trkpt lat="-27.3733931" lon="152.8807557">
<ele>59.922</ele>
<time>2016-05-16T05:27:21.089Z</time>
</trkpt>
<trkpt lat="-27.3735644" lon="152.8804876">
<ele>58.818</ele>
<time>2016-05-16T05:27:23.025Z</time>
</trkpt>
<trkpt lat="-27.3737306" lon="152.8802257">
<ele>58.381</ele>
<time>2016-05-16T05:27:24.943Z</time>
</trkpt>
<trkpt lat="-27.3739947" lon="152.8798288">
<ele>58.862</ele>
<time>2016-05-16T05:27:27.891Z</time>
</trkpt>
<trkpt lat="-27.3741839" lon="152.8795542">
<ele>60.218</ele>
<time>2016-05-16T05:27:29.880Z</time>
</trkpt>
<trkpt lat="-27.3744900" lon="152.8791311">
<ele>62.137</ele>
<time>2016-05-16T05:27:32.902Z</time>
</trkpt>
<trkpt lat="-27.3746893" lon="152.8788547">
<ele>64.088</ele>
<time>2016-05-16T05:27:34.833Z</time>
</trkpt>
<trkpt lat="-27.3749796" lon="152.8784253">
<ele>65.531</ele>
<time>2016-05-16T05:27:37.761Z</time>
</trkpt>
<trkpt lat="-27.3752559" lon="152.8779825">
<ele>66.237</ele>
<time>2016-05-16T05:27:40.699Z</time>
</trkpt>
<trkpt lat="-27.3755320" lon="152.8775546">
<ele>66.367</ele>
<time>2016-05-16T05:27:43.570Z</time>
</trkpt>
<trkpt lat="-27.3757109" lon="152.8772705">
<ele>66.708</ele>
<time>2016-05-16T05:27:45.481Z</time>
</trkpt>
<trkpt lat="-27.3758971" lon="152.8769818">
<ele>67.896</ele>
<time>2016-05-16T05:27:47.482Z</time>
</trkpt>
<trkpt lat="-27.3760686" lon="152.8766928">
<ele>69.797</ele>
<time>2016-05-16T05:27:49.460Z</time>
</trkpt>
<trkpt lat="-27.3762909" lon="152.8762220">
<ele>71.978</ele>
<time>2016-05-16T05:27:52.484Z</time>
</trkpt>
<trkpt lat="-27.3763906" lon="152.8759121">
<ele>74.330</ele>
<time>2016-05-16T05:27:54.361Z</time>
</trkpt>
<trkpt lat="-27.3764679" lon="152.8754112">
<ele>76.552</ele>
<time>2016-05-16T05:27:57.288Z</time>
</trkpt>
<trkpt lat="-27.3764782" lon="152.8750711">
<ele>78.086</ele>
<time>2016-05-16T05:27:59.245Z</time>
</trkpt>
<trkpt lat="-27.3764297" lon="152.8745774">
<ele>78.715</ele>
<time>2016-05-16T05:28:02.118Z</time>
</trkpt>
<trkpt lat="-27.3763156" lon="152.8740992">
<ele>78.310</ele>
<time>2016-05-16T05:28:05.002Z</time>
</trkpt>
<trkpt lat="-27.3761949" lon="152.8737846">
<ele>76.473</ele>
<time>2016-05-16T05:28:06.975Z</time>
</trkpt>
<trkpt lat="-27.3760407" lon="152.8734785">
<ele>73.628</ele>
<time>2016-05-16T05:28:08.980Z</time>
</trkpt>
<trkpt lat="-27.3757633" lon="152.8730677">
<ele>70.898</ele>
<time>2016-05-16T05:28:11.912Z</time>
</trkpt>
<trkpt lat="-27.3755456" lon="152.8727961">
<ele>68.692</ele>
<time>2016-05-16T05:28:13.959Z</time>
</trkpt>
<trkpt lat="-27.3753092" lon="152.8725574">
<ele>66.816</ele>
<time>2016-05-16T05:28:15.914Z</time>
</trkpt>
<trkpt lat="-27.3750258" lon="152.8723700">
<ele>65.331</ele>
<time>2016-05-16T05:28:17.929Z</time>
</trkpt>
<trkpt lat="-27.3745825" lon="152.8721306">
<ele>64.408</ele>
<time>2016-05-16T05:28:20.882Z</time>
</trkpt>
<trkpt lat="-27.3742750" lon="152.8719771">
<ele>63.968</ele>
<time>2016-05-16T05:28:22.859Z</time>
</trkpt>
<trkpt lat="-27.3739751" lon="152.8718294">
<ele>63.944</ele>
<time>2016-05-16T05:28:24.793Z</time>
</trkpt>
<trkpt lat="-27.3735472" lon="152.8715379">
<ele>64.304</ele>
<time>2016-05-16T05:28:27.749Z</time>
</trkpt>
<trkpt lat="-27.3731598" lon="152.8710949">
<ele>64.821</ele>
<time>2016-05-16T05:28:30.853Z</time>
</trkpt>
<trkpt lat="-27.3729562" lon="152.8707340">
<ele>65.364</ele>
<time>2016-05-16T05:28:32.864Z</time>
</trkpt>
<trkpt lat="-27.3727174" lon="152.8701591">
<ele>65.946</ele>
<time>2016-05-16T05:28:35.810Z</time>
</trkpt>
<trkpt lat="-27.3725879" lon="152.8697692">
<ele>66.151</ele>
<time>2016-05-16T05:28:37.748Z</time>
</trkpt>
<trkpt lat="-27.3724724" lon="152.8693646">
<ele>65.414</ele>
<time>2016-05-16T05:28:39.717Z</time>
</trkpt>
<trkpt lat="-27.3723614" lon="152.8687175">
<ele>64.049</ele>
<time>2016-05-16T05:28:42.726Z</time>
</trkpt>
<trkpt lat="-27.3723141" lon="152.8682870">
<ele>62.948</ele>
<time>2016-05-16T05:28:44.666Z</time>
</trkpt>
<trkpt lat="-27.3722685" lon="152.8676133">
<ele>62.498</ele>
<time>2016-05-16T05:28:47.615Z</time>
</trkpt>
<trkpt lat="-27.3722478" lon="152.8671576">
<ele>62.398</ele>
<time>2016-05-16T05:28:49.587Z</time>
</trkpt>
<trkpt lat="-27.3722202" lon="152.8664798">
<ele>62.236</ele>
<time>2016-05-16T05:28:52.512Z</time>
</trkpt>
<trkpt lat="-27.3722131" lon="152.8660308">
<ele>61.547</ele>
<time>2016-05-16T05:28:54.442Z</time>
</trkpt>
<trkpt lat="-27.3721957" lon="152.8655751">
<ele>60.293</ele>
<time>2016-05-16T05:28:56.398Z</time>
</trkpt>
<trkpt lat="-27.3721609" lon="152.8651350">
<ele>59.381</ele>
<time>2016-05-16T05:28:58.302Z</time>
</trkpt>
<trkpt lat="-27.3721285" lon="152.8644848">
<ele>59.457</ele>
<time>2016-05-16T05:29:01.150Z</time>
</trkpt>
<trkpt lat="-27.3720426" lon="152.8638195">
<ele>60.313</ele>
<time>2016-05-16T05:29:04.109Z</time>
</trkpt>
<trkpt lat="-27.3719210" lon="152.8633970">
<ele>62.013</ele>
<time>2016-05-16T05:29:06.066Z</time>
</trkpt>
<trkpt lat="-27.3717469" lon="152.8629878">
<ele>64.276</ele>
<time>2016-05-16T05:29:08.055Z</time>
</trkpt>
<trkpt lat="-27.3716470" lon="152.8627958">
<ele>65.989</ele>
<time>2016-05-16T05:29:09.027Z</time>
</trkpt>
<trkpt lat="-27.3711385" lon="152.8621189">
<ele>66.824</ele>
<time>2016-05-16T05:29:12.913Z</time>
</trkpt>
<trkpt lat="-27.3708660" lon="152.8617994">
<ele>67.321</ele>
<time>2016-05-16T05:29:14.848Z</time>
</trkpt>
<trkpt lat="-27.3704647" lon="152.8612341">
<ele>67.696</ele>
<time>2016-05-16T05:29:17.938Z</time>
</trkpt>
<trkpt lat="-27.3701069" lon="152.8606136">
<ele>67.923</ele>
<time>2016-05-16T05:29:21.015Z</time>
</trkpt>
<trkpt lat="-27.3698101" lon="152.8599896">
<ele>68.072</ele>
<time>2016-05-16T05:29:23.930Z</time>
</trkpt>
<trkpt lat="-27.3696179" lon="152.8595897">
<ele>68.140</ele>
<time>2016-05-16T05:29:25.820Z</time>
</trkpt>
<trkpt lat="-27.3694384" lon="152.8592024">
<ele>67.828</ele>
<time>2016-05-16T05:29:27.678Z</time>
</trkpt>
<trkpt lat="-27.3693100" lon="152.8588080">
<ele>66.960</ele>
<time>2016-05-16T05:29:29.510Z</time>
</trkpt>
<trkpt lat="-27.3692304" lon="152.8581598">
<ele>65.920</ele>
<time>2016-05-16T05:29:32.428Z</time>
</trkpt>
<trkpt lat="-27.3692780" lon="152.8577174">
<ele>65.177</ele>
<time>2016-05-16T05:29:34.423Z</time>
</trkpt>
<trkpt lat="-27.3694627" lon="152.8570651">
<ele>64.969</ele>
<time>2016-05-16T05:29:37.458Z</time>
</trkpt>
<trkpt lat="-27.3696558" lon="152.8563985">
<ele>65.333</ele>
<time>2016-05-16T05:29:40.522Z</time>
</trkpt>
<trkpt lat="-27.3697879" lon="152.8559925">
<ele>65.874</ele>
<time>2016-05-16T05:29:42.398Z</time>
</trkpt>
<trkpt lat="-27.3699660" lon="152.8553533">
<ele>66.145</ele>
<time>2016-05-16T05:29:45.326Z</time>
</trkpt>
<trkpt lat="-27.3701475" lon="152.8547239">
<ele>66.135</ele>
<time>2016-05-16T05:29:48.224Z</time>
</trkpt>
<trkpt lat="-27.3703113" lon="152.8540631">
<ele>66.012</ele>
<time>2016-05-16T05:29:51.218Z</time>
</trkpt>
<trkpt lat="-27.3704351" lon="152.8536368">
<ele>65.847</ele>
<time>2016-05-16T05:29:53.170Z</time>
</trkpt>
<trkpt lat="-27.3706060" lon="152.8532484">
<ele>65.713</ele>
<time>2016-05-16T05:29:55.051Z</time>
</trkpt>
<trkpt lat="-27.3708235" lon="152.8528601">
<ele>65.573</ele>
<time>2016-05-16T05:29:57.047Z</time>
</trkpt>
<trkpt lat="-27.3710429" lon="152.8524803">
<ele>65.497</ele>
<time>2016-05-16T05:29:59.018Z</time>
</trkpt>
<trkpt lat="-27.3714044" lon="152.8519411">
<ele>65.561</ele>
<time>2016-05-16T05:30:01.959Z</time>
</trkpt>
<trkpt lat="-27.3716105" lon="152.8515646">
<ele>65.595</ele>
<time>2016-05-16T05:30:03.892Z</time>
</trkpt>
<trkpt lat="-27.3717555" lon="152.8511609">
<ele>65.525</ele>
<time>2016-05-16T05:30:05.834Z</time>
</trkpt>
<trkpt lat="-27.3718599" lon="152.8505205">
<ele>65.588</ele>
<time>2016-05-16T05:30:08.802Z</time>
</trkpt>
<trkpt lat="-27.3719115" lon="152.8500815">
<ele>66.513</ele>
<time>2016-05-16T05:30:10.805Z</time>
</trkpt>
<trkpt lat="-27.3721039" lon="152.8494454">
<ele>68.654</ele>
<time>2016-05-16T05:30:13.763Z</time>
</trkpt>
<trkpt lat="-27.3723097" lon="152.8490534">
<ele>70.837</ele>
<time>2016-05-16T05:30:15.753Z</time>
</trkpt>
<trkpt lat="-27.3726162" lon="152.8487282">
<ele>71.872</ele>
<time>2016-05-16T05:30:17.815Z</time>
</trkpt>
<trkpt lat="-27.3731290" lon="152.8483359">
<ele>71.957</ele>
<time>2016-05-16T05:30:20.800Z</time>
</trkpt>
<trkpt lat="-27.3733053" lon="152.8482196">
<ele>72.228</ele>
<time>2016-05-16T05:30:21.773Z</time>
</trkpt>
<trkpt lat="-27.3739181" lon="152.8476285">
<ele>73.336</ele>
<time>2016-05-16T05:30:25.663Z</time>
</trkpt>
<trkpt lat="-27.3741277" lon="152.8472353">
<ele>74.494</ele>
<time>2016-05-16T05:30:27.660Z</time>
</trkpt>
<trkpt lat="-27.3742639" lon="152.8467953">
<ele>74.693</ele>
<time>2016-05-16T05:30:29.671Z</time>
</trkpt>
<trkpt lat="-27.3743125" lon="152.8463146">
<ele>73.713</ele>
<time>2016-05-16T05:30:31.736Z</time>
</trkpt>
<trkpt lat="-27.3743794" lon="152.8456270">
<ele>72.022</ele>
<time>2016-05-16T05:30:34.641Z</time>
</trkpt>
<trkpt lat="-27.3744701" lon="152.8449454">
<ele>70.631</ele>
<time>2016-05-16T05:30:37.541Z</time>
</trkpt>
<trkpt lat="-27.3746056" lon="152.8442929">
<ele>70.449</ele>
<time>2016-05-16T05:30:40.396Z</time>
</trkpt>
<trkpt lat="-27.3747842" lon="152.8436371">
<ele>71.405</ele>
<time>2016-05-16T05:30:43.379Z</time>
</trkpt>
<trkpt lat="-27.3749770" lon="152.8430247">
<ele>72.501</ele>
<time>2016-05-16T05:30:46.244Z</time>
</trkpt>
<trkpt lat="-27.3751368" lon="152.8423813">
<ele>72.980</ele>
<time>2016-05-16T05:30:49.188Z</time>
</trkpt>
<trkpt lat="-27.3751950" lon="152.8417461">
<ele>73.161</ele>
<time>2016-05-16T05:30:52.036Z</time>
</trkpt>
<trkpt lat="-27.3751389" lon="152.8411227">
<ele>73.532</ele>
<time>2016-05-16T05:30:54.893Z</time>
</trkpt>
<trkpt lat="-27.3750830" lon="152.8407101">
<ele>74.027</ele>
<time>2016-05-16T05:30:56.826Z</time>
</trkpt>
<trkpt lat="-27.3750909" lon="152.8402875">
<ele>74.706</ele>
<time>2016-05-16T05:30:58.790Z</time>
</trkpt>
<trkpt lat="-27.3751571" lon="152.8398605">
<ele>76.182</ele>
<time>2016-05-16T05:31:00.805Z</time>
</trkpt>
<trkpt lat="-27.3753651" lon="152.8392833">
<ele>78.419</ele>
<time>2016-05-16T05:31:03.660Z</time>
</trkpt>
<trkpt lat="-27.3755696" lon="152.8389000">
<ele>80.808</ele>
<time>2016-05-16T05:31:05.700Z</time>
</trkpt>
<trkpt lat="-27.3758564" lon="152.8383419">
<ele>82.912</ele>
<time>2016-05-16T05:31:08.642Z</time>
</trkpt>
<trkpt lat="-27.3761528" lon="152.8377780">
<ele>84.682</ele>
<time>2016-05-16T05:31:11.627Z</time>
</trkpt>
<trkpt lat="-27.3764224" lon="152.8372213">
<ele>86.187</ele>
<time>2016-05-16T05:31:14.525Z</time>
</trkpt>
<trkpt lat="-27.3766108" lon="152.8368752">
<ele>87.375</ele>
<time>2016-05-16T05:31:16.396Z</time>
</trkpt>
<trkpt lat="-27.3767809" lon="152.8365146">
<ele>87.901</ele>
<time>2016-05-16T05:31:18.286Z</time>
</trkpt>
<trkpt lat="-27.3768900" lon="152.8361276">
<ele>87.474</ele>
<time>2016-05-16T05:31:20.198Z</time>
</trkpt>
<trkpt lat="-27.3769595" lon="152.8352864">
<ele>86.362</ele>
<time>2016-05-16T05:31:24.328Z</time>
</trkpt>
<trkpt lat="-27.3769616" lon="152.8346074">
<ele>85.215</ele>
<time>2016-05-16T05:31:27.574Z</time>
</trkpt>
<trkpt lat="-27.3769614" lon="152.8341613">
<ele>83.953</ele>
<time>2016-05-16T05:31:29.570Z</time>
</trkpt>
<trkpt lat="-27.3769749" lon="152.8337110">
<ele>82.426</ele>
<time>2016-05-16T05:31:31.547Z</time>
</trkpt>
<trkpt lat="-27.3770873" lon="152.8330405">
<ele>81.116</ele>
<time>2016-05-16T05:31:34.499Z</time>
</trkpt>
<trkpt lat="-27.3773741" lon="152.8324433">
<ele>80.410</ele>
<time>2016-05-16T05:31:37.430Z</time>
</trkpt>
<trkpt lat="-27.3776566" lon="152.8321021">
<ele>80.197</ele>
<time>2016-05-16T05:31:39.434Z</time>
</trkpt>
<trkpt lat="-27.3778061" lon="152.8319373">
<ele>80.313</ele>
<time>2016-05-16T05:31:40.443Z</time>
</trkpt>
<trkpt lat="-27.3783873" lon="152.8312887">
<ele>80.709</ele>
<time>2016-05-16T05:31:44.377Z</time>
</trkpt>
<trkpt lat="-27.3786568" lon="152.8309521">
<ele>81.135</ele>
<time>2016-05-16T05:31:46.321Z</time>
</trkpt>
<trkpt lat="-27.3790104" lon="152.8303821">
<ele>81.342</ele>
<time>2016-05-16T05:31:49.288Z</time>
</trkpt>
<trkpt lat="-27.3792517" lon="152.8297464">
<ele>81.357</ele>
<time>2016-05-16T05:31:52.216Z</time>
</trkpt>
<trkpt lat="-27.3793112" lon="152.8290667">
<ele>81.261</ele>
<time>2016-05-16T05:31:55.117Z</time>
</trkpt>
<trkpt lat="-27.3792569" lon="152.8283818">
<ele>81.115</ele>
<time>2016-05-16T05:31:58.061Z</time>
</trkpt>
<trkpt lat="-27.3791803" lon="152.8279309">
<ele>81.188</ele>
<time>2016-05-16T05:32:00.038Z</time>
</trkpt>
<trkpt lat="-27.3790723" lon="152.8272381">
<ele>81.645</ele>
<time>2016-05-16T05:32:03.069Z</time>
</trkpt>
<trkpt lat="-27.3790020" lon="152.8267835">
<ele>82.392</ele>
<time>2016-05-16T05:32:05.045Z</time>
</trkpt>
<trkpt lat="-27.3788586" lon="152.8261003">
<ele>83.355</ele>
<time>2016-05-16T05:32:08.027Z</time>
</trkpt>
<trkpt lat="-27.3786410" lon="152.8254468">
<ele>84.675</ele>
<time>2016-05-16T05:32:10.970Z</time>
</trkpt>
<trkpt lat="-27.3784386" lon="152.8250449">
<ele>86.427</ele>
<time>2016-05-16T05:32:12.914Z</time>
</trkpt>
<trkpt lat="-27.3780782" lon="152.8244806">
<ele>88.249</ele>
<time>2016-05-16T05:32:15.833Z</time>
</trkpt>
<trkpt lat="-27.3778409" lon="152.8241080">
<ele>89.503</ele>
<time>2016-05-16T05:32:17.754Z</time>
</trkpt>
<trkpt lat="-27.3776098" lon="152.8237408">
<ele>89.759</ele>
<time>2016-05-16T05:32:19.637Z</time>
</trkpt>
<trkpt lat="-27.3773681" lon="152.8230990">
<ele>89.100</ele>
<time>2016-05-16T05:32:22.579Z</time>
</trkpt>
<trkpt lat="-27.3772642" lon="152.8224194">
<ele>87.935</ele>
<time>2016-05-16T05:32:25.527Z</time>
</trkpt>
<trkpt lat="-27.3772658" lon="152.8219401">
<ele>86.779</ele>
<time>2016-05-16T05:32:27.570Z</time>
</trkpt>
<trkpt lat="-27.3773808" lon="152.8212420">
<ele>86.303</ele>
<time>2016-05-16T05:32:30.581Z</time>
</trkpt>
<trkpt lat="-27.3775968" lon="152.8205928">
<ele>86.894</ele>
<time>2016-05-16T05:32:33.490Z</time>
</trkpt>
<trkpt lat="-27.3777475" lon="152.8201581">
<ele>88.146</ele>
<time>2016-05-16T05:32:35.440Z</time>
</trkpt>
<trkpt lat="-27.3779260" lon="152.8194982">
<ele>89.350</ele>
<time>2016-05-16T05:32:38.327Z</time>
</trkpt>
<trkpt lat="-27.3780207" lon="152.8188255">
<ele>90.060</ele>
<time>2016-05-16T05:32:41.201Z</time>
</trkpt>
<trkpt lat="-27.3780669" lon="152.8183819">
<ele>90.257</ele>
<time>2016-05-16T05:32:43.098Z</time>
</trkpt>
<trkpt lat="-27.3781137" lon="152.8179466">
<ele>90.607</ele>
<time>2016-05-16T05:32:44.982Z</time>
</trkpt>
<trkpt lat="-27.3781646" lon="152.8172792">
<ele>91.680</ele>
<time>2016-05-16T05:32:47.887Z</time>
</trkpt>
<trkpt lat="-27.3782222" lon="152.8166140">
<ele>93.045</ele>
<time>2016-05-16T05:32:50.836Z</time>
</trkpt>
<trkpt lat="-27.3782560" lon="152.8161672">
<ele>94.095</ele>
<time>2016-05-16T05:32:52.824Z</time>
</trkpt>
<trkpt lat="-27.3782984" lon="152.8157211">
<ele>94.825</ele>
<time>2016-05-16T05:32:54.806Z</time>
</trkpt>
<trkpt lat="-27.3783538" lon="152.8152594">
<ele>95.416</ele>
<time>2016-05-16T05:32:56.854Z</time>
</trkpt>
<trkpt lat="-27.3784052" lon="152.8148089">
<ele>96.057</ele>
<time>2016-05-16T05:32:58.831Z</time>
</trkpt>
<trkpt lat="-27.3784879" lon="152.8141089">
<ele>96.950</ele>
<time>2016-05-16T05:33:01.870Z</time>
</trkpt>
<trkpt lat="-27.3785429" lon="152.8136468">
<ele>97.978</ele>
<time>2016-05-16T05:33:03.849Z</time>
</trkpt>
<trkpt lat="-27.3786111" lon="152.8129536">
<ele>98.786</ele>
<time>2016-05-16T05:33:06.796Z</time>
</trkpt>
<trkpt lat="-27.3786644" lon="152.8124960">
<ele>99.190</ele>
<time>2016-05-16T05:33:08.745Z</time>
</trkpt>
<trkpt lat="-27.3787100" lon="152.8120414">
<ele>99.539</ele>
<time>2016-05-16T05:33:10.684Z</time>
</trkpt>
<trkpt lat="-27.3787856" lon="152.8113657">
<ele>100.358</ele>
<time>2016-05-16T05:33:13.575Z</time>
</trkpt>
<trkpt lat="-27.3788806" lon="152.8109448">
<ele>101.711</ele>
<time>2016-05-16T05:33:15.425Z</time>
</trkpt>
<trkpt lat="-27.3789607" lon="152.8105058">
<ele>103.440</ele>
<time>2016-05-16T05:33:17.348Z</time>
</trkpt>
<trkpt lat="-27.3790768" lon="152.8098547">
<ele>105.682</ele>
<time>2016-05-16T05:33:20.230Z</time>
</trkpt>
<trkpt lat="-27.3791311" lon="152.8092043">
<ele>108.247</ele>
<time>2016-05-16T05:33:23.112Z</time>
</trkpt>
<trkpt lat="-27.3791102" lon="152.8085409">
<ele>110.725</ele>
<time>2016-05-16T05:33:26.054Z</time>
</trkpt>
<trkpt lat="-27.3790256" lon="152.8078956">
<ele>113.084</ele>
<time>2016-05-16T05:33:28.967Z</time>
</trkpt>
<trkpt lat="-27.3789831" lon="152.8076781">
<ele>115.603</ele>
<time>2016-05-16T05:33:29.962Z</time>
</trkpt>
<trkpt lat="-27.3787536" lon="152.8068197">
<ele>118.319</ele>
<time>2016-05-16T05:33:33.969Z</time>
</trkpt>
<trkpt lat="-27.3786355" lon="152.8064029">
<ele>121.353</ele>
<time>2016-05-16T05:33:35.938Z</time>
</trkpt>
<trkpt lat="-27.3784478" lon="152.8057912">
<ele>124.644</ele>
<time>2016-05-16T05:33:38.847Z</time>
</trkpt>
<trkpt lat="-27.3782701" lon="152.8051516">
<ele>127.300</ele>
<time>2016-05-16T05:33:41.810Z</time>
</trkpt>
<trkpt lat="-27.3780932" lon="152.8045055">
<ele>128.946</ele>
<time>2016-05-16T05:33:44.813Z</time>
</trkpt>
<trkpt lat="-27.3779731" lon="152.8040772">
<ele>130.532</ele>
<time>2016-05-16T05:33:46.802Z</time>
</trkpt>
<trkpt lat="-27.3777960" lon="152.8034179">
<ele>132.432</ele>
<time>2016-05-16T05:33:49.832Z</time>
</trkpt>
<trkpt lat="-27.3776507" lon="152.8030042">
<ele>134.163</ele>
<time>2016-05-16T05:33:51.776Z</time>
</trkpt>
<trkpt lat="-27.3773643" lon="152.8024476">
<ele>135.528</ele>
<time>2016-05-16T05:33:54.567Z</time>
</trkpt>
<trkpt lat="-27.3770949" lon="152.8021675">
<ele>136.577</ele>
<time>2016-05-16T05:33:56.357Z</time>
</trkpt>
<trkpt lat="-27.3766175" lon="152.8018584">
<ele>137.221</ele>
<time>2016-05-16T05:33:59.096Z</time>
</trkpt>
<trkpt lat="-27.3760466" lon="152.8017268">
<ele>137.629</ele>
<time>2016-05-16T05:34:02.056Z</time>
</trkpt>
<trkpt lat="-27.3756703" lon="152.8017371">
<ele>138.139</ele>
<time>2016-05-16T05:34:04.005Z</time>
</trkpt>
<trkpt lat="-27.3752941" lon="152.8018377">
<ele>138.669</ele>
<time>2016-05-16T05:34:06.020Z</time>
</trkpt>
<trkpt lat="-27.3749217" lon="152.8019353">
<ele>138.969</ele>
<time>2016-05-16T05:34:08.023Z</time>
</trkpt>
<trkpt lat="-27.3745398" lon="152.8020240">
<ele>138.857</ele>
<time>2016-05-16T05:34:10.057Z</time>
</trkpt>
<trkpt lat="-27.3741365" lon="152.8020884">
<ele>138.352</ele>
<time>2016-05-16T05:34:12.165Z</time>
</trkpt>
<trkpt lat="-27.3737279" lon="152.8020677">
<ele>137.746</ele>
<time>2016-05-16T05:34:14.270Z</time>
</trkpt>
<trkpt lat="-27.3733274" lon="152.8020221">
<ele>137.130</ele>
<time>2016-05-16T05:34:16.317Z</time>
</trkpt>
<trkpt lat="-27.3729451" lon="152.8020085">
<ele>136.201</ele>
<time>2016-05-16T05:34:18.226Z</time>
</trkpt>
<trkpt lat="-27.3723761" lon="152.8020482">
<ele>134.873</ele>
<time>2016-05-16T05:34:21.017Z</time>
</trkpt>
<trkpt lat="-27.3720056" lon="152.8021667">
<ele>133.111</ele>
<time>2016-05-16T05:34:22.899Z</time>
</trkpt>
<trkpt lat="-27.3714311" lon="152.8023060">
<ele>131.088</ele>
<time>2016-05-16T05:34:25.841Z</time>
</trkpt>
<trkpt lat="-27.3710497" lon="152.8022661">
<ele>129.230</ele>
<time>2016-05-16T05:34:27.795Z</time>
</trkpt>
<trkpt lat="-27.3704654" lon="152.8020395">
<ele>127.452</ele>
<time>2016-05-16T05:34:30.975Z</time>
</trkpt>
<trkpt lat="-27.3700960" lon="152.8018299">
<ele>125.256</ele>
<time>2016-05-16T05:34:33.090Z</time>
</trkpt>
<trkpt lat="-27.3696154" lon="152.8014969">
<ele>122.760</ele>
<time>2016-05-16T05:34:35.944Z</time>
</trkpt>
<trkpt lat="-27.3692901" lon="152.8010459">
<ele>120.309</ele>
<time>2016-05-16T05:34:38.502Z</time>
</trkpt>
<trkpt lat="-27.3691003" lon="152.8005472">
<ele>118.272</ele>
<time>2016-05-16T05:34:40.855Z</time>
</trkpt>
<trkpt lat="-27.3690277" lon="152.8002280">
<ele>117.470</ele>
<time>2016-05-16T05:34:42.308Z</time>
</trkpt>
<trkpt lat="-27.3689585" lon="152.7998859">
<ele>118.335</ele>
<time>2016-05-16T05:34:43.926Z</time>
</trkpt>
<trkpt lat="-27.3688677" lon="152.7993645">
<ele>120.142</ele>
<time>2016-05-16T05:34:46.507Z</time>
</trkpt>
<trkpt lat="-27.3688772" lon="152.7988861">
<ele>122.072</ele>
<time>2016-05-16T05:34:49.016Z</time>
</trkpt>
<trkpt lat="-27.3689605" lon="152.7985758">
<ele>123.661</ele>
<time>2016-05-16T05:34:50.842Z</time>
</trkpt>
<trkpt lat="-27.3690471" lon="152.7982827">
<ele>124.534</ele>
<time>2016-05-16T05:34:52.602Z</time>
</trkpt>
<trkpt lat="-27.3689824" lon="152.7980073">
<ele>124.742</ele>
<time>2016-05-16T05:34:54.206Z</time>
</trkpt>
<trkpt lat="-27.3688415" lon="152.7977255">
<ele>124.729</ele>
<time>2016-05-16T05:34:56.020Z</time>
</trkpt>
<trkpt lat="-27.3686086" lon="152.7973566">
<ele>125.103</ele>
<time>2016-05-16T05:34:58.660Z</time>
</trkpt>
<trkpt lat="-27.3684198" lon="152.7971459">
<ele>126.169</ele>
<time>2016-05-16T05:35:00.492Z</time>
</trkpt>
<trkpt lat="-27.3680279" lon="152.7970033">
<ele>127.659</ele>
<time>2016-05-16T05:35:03.454Z</time>
</trkpt>
<trkpt lat="-27.3676733" lon="152.7968800">
<ele>129.044</ele>
<time>2016-05-16T05:35:06.232Z</time>
</trkpt>
<trkpt lat="-27.3671799" lon="152.7968446">
<ele>129.937</ele>
<time>2016-05-16T05:35:09.834Z</time>
</trkpt>
<trkpt lat="-27.3668939" lon="152.7968809">
<ele>130.003</ele>
<time>2016-05-16T05:35:11.903Z</time>
</trkpt>
<trkpt lat="-27.3664776" lon="152.7970057">
<ele>129.162</ele>
<time>2016-05-16T05:35:14.709Z</time>
</trkpt>
<trkpt lat="-27.3662127" lon="152.7969583">
<ele>127.843</ele>
<time>2016-05-16T05:35:16.310Z</time>
</trkpt>
<trkpt lat="-27.3660791" lon="152.7968668">
<ele>126.736</ele>
<time>2016-05-16T05:35:17.229Z</time>
</trkpt>
<trkpt lat="-27.3656539" lon="152.7963681">
<ele>126.234</ele>
<time>2016-05-16T05:35:20.946Z</time>
</trkpt>
<trkpt lat="-27.3654367" lon="152.7960831">
<ele>126.716</ele>
<time>2016-05-16T05:35:23.188Z</time>
</trkpt>
<trkpt lat="-27.3652002" lon="152.7958651">
<ele>128.311</ele>
<time>2016-05-16T05:35:25.302Z</time>
</trkpt>
<trkpt lat="-27.3649688" lon="152.7956819">
<ele>130.314</ele>
<time>2016-05-16T05:35:27.304Z</time>
</trkpt>
<trkpt lat="-27.3647350" lon="152.7953502">
<ele>131.968</ele>
<time>2016-05-16T05:35:29.851Z</time>
</trkpt>
<trkpt lat="-27.3646795" lon="152.7949071">
<ele>133.259</ele>
<time>2016-05-16T05:35:32.362Z</time>
</trkpt>
<trkpt lat="-27.3646782" lon="152.7945855">
<ele>134.932</ele>
<time>2016-05-16T05:35:34.111Z</time>
</trkpt>
<trkpt lat="-27.3647628" lon="152.7943449">
<ele>137.546</ele>
<time>2016-05-16T05:35:35.562Z</time>
</trkpt>
<trkpt lat="-27.3648632" lon="152.7940387">
<ele>140.299</ele>
<time>2016-05-16T05:35:37.526Z</time>
</trkpt>
<trkpt lat="-27.3647537" lon="152.7936191">
<ele>142.069</ele>
<time>2016-05-16T05:35:40.383Z</time>
</trkpt>
<trkpt lat="-27.3646535" lon="152.7933233">
<ele>143.732</ele>
<time>2016-05-16T05:35:42.505Z</time>
</trkpt>
<trkpt lat="-27.3645064" lon="152.7928744">
<ele>146.795</ele>
<time>2016-05-16T05:35:45.552Z</time>
</trkpt>
<trkpt lat="-27.3644608" lon="152.7926078">
<ele>150.617</ele>
<time>2016-05-16T05:35:47.433Z</time>
</trkpt>
<trkpt lat="-27.3645208" lon="152.7921507">
<ele>153.343</ele>
<time>2016-05-16T05:35:51.135Z</time>
</trkpt>
<trkpt lat="-27.3645101" lon="152.7916432">
<ele>155.088</ele>
<time>2016-05-16T05:35:54.800Z</time>
</trkpt>
<trkpt lat="-27.3644596" lon="152.7910590">
<ele>157.562</ele>
<time>2016-05-16T05:35:58.563Z</time>
</trkpt>
<trkpt lat="-27.3643567" lon="152.7904745">
<ele>161.883</ele>
<time>2016-05-16T05:36:02.610Z</time>
</trkpt>
<trkpt lat="-27.3643112" lon="152.7900767">
<ele>166.956</ele>
<time>2016-05-16T05:36:05.117Z</time>
</trkpt>
<trkpt lat="-27.3642156" lon="152.7895384">
<ele>170.376</ele>
<time>2016-05-16T05:36:08.112Z</time>
</trkpt>
<trkpt lat="-27.3639467" lon="152.7890967">
<ele>171.246</ele>
<time>2016-05-16T05:36:10.839Z</time>
</trkpt>
<trkpt lat="-27.3637068" lon="152.7886666">
<ele>170.809</ele>
<time>2016-05-16T05:36:13.383Z</time>
</trkpt>
<trkpt lat="-27.3635002" lon="152.7883158">
<ele>170.492</ele>
<time>2016-05-16T05:36:15.534Z</time>
</trkpt>
<trkpt lat="-27.3630868" lon="152.7881500">
<ele>171.029</ele>
<time>2016-05-16T05:36:18.138Z</time>
</trkpt>
<trkpt lat="-27.3626970" lon="152.7883257">
<ele>172.145</ele>
<time>2016-05-16T05:36:20.736Z</time>
</trkpt>
<trkpt lat="-27.3624081" lon="152.7883731">
<ele>173.637</ele>
<time>2016-05-16T05:36:22.608Z</time>
</trkpt>
<trkpt lat="-27.3621540" lon="152.7884016">
<ele>176.087</ele>
<time>2016-05-16T05:36:24.367Z</time>
</trkpt>
<trkpt lat="-27.3618659" lon="152.7883857">
<ele>179.630</ele>
<time>2016-05-16T05:36:26.466Z</time>
</trkpt>
<trkpt lat="-27.3614567" lon="152.7884441">
<ele>183.411</ele>
<time>2016-05-16T05:36:29.880Z</time>
</trkpt>
<trkpt lat="-27.3610900" lon="152.7885537">
<ele>186.473</ele>
<time>2016-05-16T05:36:33.139Z</time>
</trkpt>
<trkpt lat="-27.3609014" lon="152.7885801">
<ele>188.765</ele>
<time>2016-05-16T05:36:34.610Z</time>
</trkpt>
<trkpt lat="-27.3607957" lon="152.7881773">
<ele>190.756</ele>
<time>2016-05-16T05:36:37.443Z</time>
</trkpt>
<trkpt lat="-27.3607019" lon="152.7877775">
<ele>193.030</ele>
<time>2016-05-16T05:36:40.188Z</time>
</trkpt>
<trkpt lat="-27.3605953" lon="152.7875390">
<ele>196.051</ele>
<time>2016-05-16T05:36:41.929Z</time>
</trkpt>
<trkpt lat="-27.3603667" lon="152.7872392">
<ele>199.375</ele>
<time>2016-05-16T05:36:44.577Z</time>
</trkpt>
<trkpt lat="-27.3601992" lon="152.7869859">
<ele>201.932</ele>
<time>2016-05-16T05:36:46.914Z</time>
</trkpt>
<trkpt lat="-27.3601994" lon="152.7868351">
<ele>203.352</ele>
<time>2016-05-16T05:36:48.214Z</time>
</trkpt>
<trkpt lat="-27.3602938" lon="152.7867015">
<ele>204.208</ele>
<time>2016-05-16T05:36:49.699Z</time>
</trkpt>
<trkpt lat="-27.3606724" lon="152.7866470">
<ele>205.757</ele>
<time>2016-05-16T05:36:53.158Z</time>
</trkpt>
<trkpt lat="-27.3609206" lon="152.7865844">
<ele>208.630</ele>
<time>2016-05-16T05:36:55.201Z</time>
</trkpt>
<trkpt lat="-27.3611658" lon="152.7864906">
<ele>211.968</ele>
<time>2016-05-16T05:36:57.312Z</time>
</trkpt>
<trkpt lat="-27.3615448" lon="152.7862861">
<ele>214.800</ele>
<time>2016-05-16T05:37:01.063Z</time>
</trkpt>
<trkpt lat="-27.3614947" lon="152.7857722">
<ele>217.409</ele>
<time>2016-05-16T05:37:06.731Z</time>
</trkpt>
<trkpt lat="-27.3615002" lon="152.7855358">
<ele>220.178</ele>
<time>2016-05-16T05:37:08.822Z</time>
</trkpt>
<trkpt lat="-27.3617012" lon="152.7852564">
<ele>222.538</ele>
<time>2016-05-16T05:37:11.351Z</time>
</trkpt>
<trkpt lat="-27.3618105" lon="152.7850550">
<ele>224.133</ele>
<time>2016-05-16T05:37:12.893Z</time>
</trkpt>
<trkpt lat="-27.3618086" lon="152.7848260">
<ele>225.168</ele>
<time>2016-05-16T05:37:14.360Z</time>
</trkpt>
<trkpt lat="-27.3617495" lon="152.7845584">
<ele>225.730</ele>
<time>2016-05-16T05:37:16.230Z</time>
</trkpt>
<trkpt lat="-27.3615866" lon="152.7841789">
<ele>225.864</ele>
<time>2016-05-16T05:37:19.373Z</time>
</trkpt>
<trkpt lat="-27.3611691" lon="152.7839633">
<ele>225.617</ele>
<time>2016-05-16T05:37:23.709Z</time>
</trkpt>
<trkpt lat="-27.3607650" lon="152.7836528">
<ele>224.896</ele>
<time>2016-05-16T05:37:28.284Z</time>
</trkpt>
<trkpt lat="-27.3605400" lon="152.7831942">
<ele>223.834</ele>
<time>2016-05-16T05:37:32.218Z</time>
</trkpt>
<trkpt lat="-27.3604875" lon="152.7828588">
<ele>222.889</ele>
<time>2016-05-16T05:37:34.543Z</time>
</trkpt>
<trkpt lat="-27.3603925" lon="152.7823141">
<ele>222.416</ele>
<time>2016-05-16T05:37:37.994Z</time>
</trkpt>
<trkpt lat="-27.3602554" lon="152.7819868">
<ele>222.444</ele>
<time>2016-05-16T05:37:40.097Z</time>
</trkpt>
<trkpt lat="-27.3600418" lon="152.7815394">
<ele>222.968</ele>
<time>2016-05-16T05:37:43.027Z</time>
</trkpt>
<trkpt lat="-27.3599835" lon="152.7810313">
<ele>224.086</ele>
<time>2016-05-16T05:37:45.850Z</time>
</trkpt>
<trkpt lat="-27.3600410" lon="152.7807165">
<ele>225.505</ele>
<time>2016-05-16T05:37:47.573Z</time>
</trkpt>
<trkpt lat="-27.3601998" lon="152.7805244">
<ele>226.602</ele>
<time>2016-05-16T05:37:48.985Z</time>
</trkpt>
<trkpt lat="-27.3602663" lon="152.7803004">
<ele>227.077</ele>
<time>2016-05-16T05:37:50.258Z</time>
</trkpt>
<trkpt lat="-27.3602472" lon="152.7800502">
<ele>227.192</ele>
<time>2016-05-16T05:37:51.640Z</time>
</trkpt>
<trkpt lat="-27.3600670" lon="152.7797611">
<ele>227.420</ele>
<time>2016-05-16T05:37:53.631Z</time>
</trkpt>
<trkpt lat="-27.3599769" lon="152.7795194">
<ele>228.425</ele>
<time>2016-05-16T05:37:55.193Z</time>
</trkpt>
<trkpt lat="-27.3600138" lon="152.7791956">
<ele>230.731</ele>
<time>2016-05-16T05:37:57.296Z</time>
</trkpt>
<trkpt lat="-27.3600418" lon="152.7788660">
<ele>234.214</ele>
<time>2016-05-16T05:37:59.697Z</time>
</trkpt>
<trkpt lat="-27.3599112" lon="152.7784307">
<ele>238.532</ele>
<time>2016-05-16T05:38:03.304Z</time>
</trkpt>
<trkpt lat="-27.3596615" lon="152.7780419">
<ele>243.734</ele>
<time>2016-05-16T05:38:07.203Z</time>
</trkpt>
<trkpt lat="-27.3593476" lon="152.7779375">
<ele>249.003</ele>
<time>2016-05-16T05:38:10.439Z</time>
</trkpt>
<trkpt lat="-27.3591692" lon="152.7777404">
<ele>252.745</ele>
<time>2016-05-16T05:38:12.859Z</time>
</trkpt>
<trkpt lat="-27.3591129" lon="152.7775683">
<ele>254.838</ele>
<time>2016-05-16T05:38:14.293Z</time>
</trkpt>
<trkpt lat="-27.3591393" lon="152.7773481">
<ele>256.582</ele>
<time>2016-05-16T05:38:16.011Z</time>
</trkpt>
<trkpt lat="-27.3592597" lon="152.7772024">
<ele>258.639</ele>
<time>2016-05-16T05:38:17.366Z</time>
</trkpt>
<trkpt lat="-27.3594879" lon="152.7771430">
<ele>260.756</ele>
<time>2016-05-16T05:38:19.169Z</time>
</trkpt>
<trkpt lat="-27.3598183" lon="152.7769924">
<ele>262.703</ele>
<time>2016-05-16T05:38:22.052Z</time>
</trkpt>
<trkpt lat="-27.3600703" lon="152.7767232">
<ele>264.473</ele>
<time>2016-05-16T05:38:25.479Z</time>
</trkpt>
<trkpt lat="-27.3601292" lon="152.7761603">
<ele>265.932</ele>
<time>2016-05-16T05:38:31.499Z</time>
</trkpt>
<trkpt lat="-27.3599635" lon="152.7758985">
<ele>266.987</ele>
<time>2016-05-16T05:38:34.412Z</time>
</trkpt>
<trkpt lat="-27.3598321" lon="152.7756048">
<ele>267.683</ele>
<time>2016-05-16T05:38:36.877Z</time>
</trkpt>
<trkpt lat="-27.3596735" lon="152.7752519">
<ele>267.540</ele>
<time>2016-05-16T05:38:39.735Z</time>
</trkpt>
<trkpt lat="-27.3594905" lon="152.7750182">
<ele>265.727</ele>
<time>2016-05-16T05:38:41.893Z</time>
</trkpt>
<trkpt lat="-27.3592986" lon="152.7749298">
<ele>261.922</ele>
<time>2016-05-16T05:38:43.469Z</time>
</trkpt>
<trkpt lat="-27.3591874" lon="152.7750942">
<ele>257.118</ele>
<time>2016-05-16T05:38:44.802Z</time>
</trkpt>
<trkpt lat="-27.3592432" lon="152.7754436">
<ele>253.235</ele>
<time>2016-05-16T05:38:47.154Z</time>
</trkpt>
<trkpt lat="-27.3591872" lon="152.7757029">
<ele>252.017</ele>
<time>2016-05-16T05:38:49.026Z</time>
</trkpt>
<trkpt lat="-27.3591251" lon="152.7759623">
<ele>253.884</ele>
<time>2016-05-16T05:38:51.081Z</time>
</trkpt>
<trkpt lat="-27.3590172" lon="152.7761809">
<ele>257.388</ele>
<time>2016-05-16T05:38:53.211Z</time>
</trkpt>
<trkpt lat="-27.3588400" lon="152.7761992">
<ele>260.434</ele>
<time>2016-05-16T05:38:55.373Z</time>
</trkpt>
<trkpt lat="-27.3586374" lon="152.7761780">
<ele>262.704</ele>
<time>2016-05-16T05:38:58.334Z</time>
</trkpt>
<trkpt lat="-27.3583531" lon="152.7761346">
<ele>265.165</ele>
<time>2016-05-16T05:39:02.101Z</time>
</trkpt>
<trkpt lat="-27.3579299" lon="152.7761915">
<ele>268.407</ele>
<time>2016-05-16T05:39:06.192Z</time>
</trkpt>
<trkpt lat="-27.3576056" lon="152.7762696">
<ele>272.740</ele>
<time>2016-05-16T05:39:09.877Z</time>
</trkpt>
<trkpt lat="-27.3572367" lon="152.7763678">
<ele>278.280</ele>
<time>2016-05-16T05:39:13.697Z</time>
</trkpt>
<trkpt lat="-27.3569581" lon="152.7762535">
<ele>284.153</ele>
<time>2016-05-16T05:39:15.837Z</time>
</trkpt>
<trkpt lat="-27.3568473" lon="152.7763555">
<ele>289.048</ele>
<time>2016-05-16T05:39:16.842Z</time>
</trkpt>
<trkpt lat="-27.3567556" lon="152.7767086">
<ele>292.645</ele>
<time>2016-05-16T05:39:18.968Z</time>
</trkpt>
<trkpt lat="-27.3568578" lon="152.7772637">
<ele>295.636</ele>
<time>2016-05-16T05:39:22.705Z</time>
</trkpt>
<trkpt lat="-27.3569872" lon="152.7774788">
<ele>298.610</ele>
<time>2016-05-16T05:39:24.881Z</time>
</trkpt>
<trkpt lat="-27.3570844" lon="152.7776815">
<ele>301.307</ele>
<time>2016-05-16T05:39:27.501Z</time>
</trkpt>
<trkpt lat="-27.3570631" lon="152.7778758">
<ele>303.055</ele>
<time>2016-05-16T05:39:29.630Z</time>
</trkpt>
<trkpt lat="-27.3568636" lon="152.7778074">
<ele>303.965</ele>
<time>2016-05-16T05:39:31.672Z</time>
</trkpt>
<trkpt lat="-27.3566348" lon="152.7773945">
<ele>305.228</ele>
<time>2016-05-16T05:39:35.348Z</time>
</trkpt>
<trkpt lat="-27.3565001" lon="152.7770856">
<ele>308.311</ele>
<time>2016-05-16T05:39:38.853Z</time>
</trkpt>
<trkpt lat="-27.3563384" lon="152.7767941">
<ele>313.723</ele>
<time>2016-05-16T05:39:43.680Z</time>
</trkpt>
<trkpt lat="-27.3562380" lon="152.7764786">
<ele>320.564</ele>
<time>2016-05-16T05:39:46.376Z</time>
</trkpt>
<trkpt lat="-27.3562543" lon="152.7760461">
<ele>327.030</ele>
<time>2016-05-16T05:39:48.947Z</time>
</trkpt>
<trkpt lat="-27.3564084" lon="152.7755530">
<ele>332.177</ele>
<time>2016-05-16T05:39:52.083Z</time>
</trkpt>
<trkpt lat="-27.3565651" lon="152.7752776">
<ele>337.231</ele>
<time>2016-05-16T05:39:54.174Z</time>
</trkpt>
<trkpt lat="-27.3566263" lon="152.7750380">
<ele>343.147</ele>
<time>2016-05-16T05:39:55.768Z</time>
</trkpt>
<trkpt lat="-27.3565534" lon="152.7746403">
<ele>348.461</ele>
<time>2016-05-16T05:39:58.294Z</time>
</trkpt>
<trkpt lat="-27.3564037" lon="152.7743232">
<ele>352.254</ele>
<time>2016-05-16T05:40:00.606Z</time>
</trkpt>
<trkpt lat="-27.3562671" lon="152.7739958">
<ele>355.957</ele>
<time>2016-05-16T05:40:03.194Z</time>
</trkpt>
<trkpt lat="-27.3561201" lon="152.7736818">
<ele>360.858</ele>
<time>2016-05-16T05:40:05.605Z</time>
</trkpt>
<trkpt lat="-27.3560206" lon="152.7732700">
<ele>366.420</ele>
<time>2016-05-16T05:40:08.100Z</time>
</trkpt>
<trkpt lat="-27.3561438" lon="152.7729092">
<ele>371.398</ele>
<time>2016-05-16T05:40:10.283Z</time>
</trkpt>
<trkpt lat="-27.3562410" lon="152.7726420">
<ele>375.576</ele>
<time>2016-05-16T05:40:12.064Z</time>
</trkpt>
<trkpt lat="-27.3560353" lon="152.7724680">
<ele>379.456</ele>
<time>2016-05-16T05:40:14.015Z</time>
</trkpt>
<trkpt lat="-27.3558660" lon="152.7721645">
<ele>383.148</ele>
<time>2016-05-16T05:40:16.793Z</time>
</trkpt>
<trkpt lat="-27.3558036" lon="152.7719309">
<ele>387.102</ele>
<time>2016-05-16T05:40:18.979Z</time>
</trkpt>
<trkpt lat="-27.3556838" lon="152.7717898">
<ele>391.712</ele>
<time>2016-05-16T05:40:20.983Z</time>
</trkpt>
<trkpt lat="-27.3554289" lon="152.7717341">
<ele>396.171</ele>
<time>2016-05-16T05:40:23.637Z</time>
</trkpt>
<trkpt lat="-27.3550903" lon="152.7716099">
<ele>400.243</ele>
<time>2016-05-16T05:40:27.025Z</time>
</trkpt>
<trkpt lat="-27.3548056" lon="152.7712777">
<ele>405.198</ele>
<time>2016-05-16T05:40:30.919Z</time>
</trkpt>
<trkpt lat="-27.3546857" lon="152.7709545">
<ele>411.877</ele>
<time>2016-05-16T05:40:33.509Z</time>
</trkpt>
<trkpt lat="-27.3544900" lon="152.7704887">
<ele>419.420</ele>
<time>2016-05-16T05:40:36.934Z</time>
</trkpt>
<trkpt lat="-27.3543239" lon="152.7702644">
<ele>426.447</ele>
<time>2016-05-16T05:40:38.731Z</time>
</trkpt>
<trkpt lat="-27.3539601" lon="152.7699449">
<ele>432.670</ele>
<time>2016-05-16T05:40:41.857Z</time>
</trkpt>
<trkpt lat="-27.3537224" lon="152.7697441">
<ele>438.705</ele>
<time>2016-05-16T05:40:43.909Z</time>
</trkpt>
<trkpt lat="-27.3534286" lon="152.7696297">
<ele>444.759</ele>
<time>2016-05-16T05:40:46.069Z</time>
</trkpt>
<trkpt lat="-27.3531062" lon="152.7695637">
<ele>450.068</ele>
<time>2016-05-16T05:40:48.269Z</time>
</trkpt>
<trkpt lat="-27.3526276" lon="152.7696278">
<ele>453.905</ele>
<time>2016-05-16T05:40:51.418Z</time>
</trkpt>
<trkpt lat="-27.3522694" lon="152.7696598">
<ele>457.400</ele>
<time>2016-05-16T05:40:53.679Z</time>
</trkpt>
<trkpt lat="-27.3519230" lon="152.7696806">
<ele>462.193</ele>
<time>2016-05-16T05:40:55.801Z</time>
</trkpt>
<trkpt lat="-27.3514662" lon="152.7696208">
<ele>467.867</ele>
<time>2016-05-16T05:40:58.477Z</time>
</trkpt>
<trkpt lat="-27.3512294" lon="152.7695062">
<ele>472.854</ele>
<time>2016-05-16T05:40:59.977Z</time>
</trkpt>
<trkpt lat="-27.3509918" lon="152.7694252">
<ele>476.480</ele>
<time>2016-05-16T05:41:01.478Z</time>
</trkpt>
<trkpt lat="-27.3509784" lon="152.7692941">
<ele>478.722</ele>
<time>2016-05-16T05:41:02.225Z</time>
</trkpt>
<trkpt lat="-27.3508993" lon="152.7688400">
<ele>479.753</ele>
<time>2016-05-16T05:41:05.291Z</time>
</trkpt>
<trkpt lat="-27.3507638" lon="152.7684312">
<ele>479.888</ele>
<time>2016-05-16T05:41:09.687Z</time>
</trkpt>
<trkpt lat="-27.3507899" lon="152.7679265">
<ele>478.891</ele>
<time>2016-05-16T05:41:14.910Z</time>
</trkpt>
<trkpt lat="-27.3509545" lon="152.7675540">
<ele>476.541</ele>
<time>2016-05-16T05:41:17.785Z</time>
</trkpt>
<trkpt lat="-27.3510531" lon="152.7671756">
<ele>473.715</ele>
<time>2016-05-16T05:41:20.294Z</time>
</trkpt>
<trkpt lat="-27.3513557" lon="152.7666652">
<ele>471.082</ele>
<time>2016-05-16T05:41:23.636Z</time>
</trkpt>
<trkpt lat="-27.3516579" lon="152.7664767">
<ele>468.025</ele>
<time>2016-05-16T05:41:25.628Z</time>
</trkpt>
<trkpt lat="-27.3519592" lon="152.7663446">
<ele>464.132</ele>
<time>2016-05-16T05:41:27.498Z</time>
</trkpt>
<trkpt lat="-27.3524506" lon="152.7660980">
<ele>459.987</ele>
<time>2016-05-16T05:41:30.652Z</time>
</trkpt>
<trkpt lat="-27.3528916" lon="152.7657387">
<ele>455.802</ele>
<time>2016-05-16T05:41:33.711Z</time>
</trkpt>
<trkpt lat="-27.3531768" lon="152.7654480">
<ele>450.925</ele>
<time>2016-05-16T05:41:35.803Z</time>
</trkpt>
<trkpt lat="-27.3535632" lon="152.7649107">
<ele>445.966</ele>
<time>2016-05-16T05:41:39.095Z</time>
</trkpt>
<trkpt lat="-27.3538783" lon="152.7643720">
<ele>443.183</ele>
<time>2016-05-16T05:41:42.014Z</time>
</trkpt>
<trkpt lat="-27.3540608" lon="152.7639920">
<ele>443.263</ele>
<time>2016-05-16T05:41:43.931Z</time>
</trkpt>
<trkpt lat="-27.3542479" lon="152.7634610">
<ele>444.059</ele>
<time>2016-05-16T05:41:46.514Z</time>
</trkpt>
<trkpt lat="-27.3545764" lon="152.7630875">
<ele>443.666</ele>
<time>2016-05-16T05:41:49.041Z</time>
</trkpt>
<trkpt lat="-27.3548716" lon="152.7629220">
<ele>442.482</ele>
<time>2016-05-16T05:41:50.921Z</time>
</trkpt>
<trkpt lat="-27.3553448" lon="152.7627557">
<ele>441.977</ele>
<time>2016-05-16T05:41:53.894Z</time>
</trkpt>
<trkpt lat="-27.3556585" lon="152.7626255">
<ele>442.990</ele>
<time>2016-05-16T05:41:55.923Z</time>
</trkpt>
<trkpt lat="-27.3559247" lon="152.7624004">
<ele>445.169</ele>
<time>2016-05-16T05:41:57.922Z</time>
</trkpt>
<trkpt lat="-27.3561566" lon="152.7622194">
<ele>447.404</ele>
<time>2016-05-16T05:41:59.578Z</time>
</trkpt>
<trkpt lat="-27.3566223" lon="152.7620663">
<ele>448.900</ele>
<time>2016-05-16T05:42:02.432Z</time>
</trkpt>
<trkpt lat="-27.3571220" lon="152.7623545">
<ele>449.874</ele>
<time>2016-05-16T05:42:05.920Z</time>
</trkpt>
<trkpt lat="-27.3575899" lon="152.7626207">
<ele>451.479</ele>
<time>2016-05-16T05:42:09.102Z</time>
</trkpt>
<trkpt lat="-27.3581009" lon="152.7628202">
<ele>454.138</ele>
<time>2016-05-16T05:42:12.168Z</time>
</trkpt>
<trkpt lat="-27.3584933" lon="152.7628671">
<ele>456.913</ele>
<time>2016-05-16T05:42:14.345Z</time>
</trkpt>
<trkpt lat="-27.3592523" lon="152.7627214">
<ele>459.483</ele>
<time>2016-05-16T05:42:18.572Z</time>
</trkpt>
<trkpt lat="-27.3597357" lon="152.7625017">
<ele>462.879</ele>
<time>2016-05-16T05:42:21.343Z</time>
</trkpt>
<trkpt lat="-27.3602126" lon="152.7622729">
<ele>467.133</ele>
<time>2016-05-16T05:42:24.095Z</time>
</trkpt>
<trkpt lat="-27.3604662" lon="152.7620471">
<ele>470.785</ele>
<time>2016-05-16T05:42:25.881Z</time>
</trkpt>
<trkpt lat="-27.3606553" lon="152.7617993">
<ele>472.859</ele>
<time>2016-05-16T05:42:27.551Z</time>
</trkpt>
<trkpt lat="-27.3611110" lon="152.7617220">
<ele>473.711</ele>
<time>2016-05-16T05:42:30.319Z</time>
</trkpt>
<trkpt lat="-27.3614680" lon="152.7617166">
<ele>474.064</ele>
<time>2016-05-16T05:42:32.602Z</time>
</trkpt>
<trkpt lat="-27.3620098" lon="152.7614889">
<ele>474.397</ele>
<time>2016-05-16T05:42:36.364Z</time>
</trkpt>
<trkpt lat="-27.3623208" lon="152.7611850">
<ele>475.278</ele>
<time>2016-05-16T05:42:38.704Z</time>
</trkpt>
<trkpt lat="-27.3628162" lon="152.7607024">
<ele>476.913</ele>
<time>2016-05-16T05:42:42.091Z</time>
</trkpt>
<trkpt lat="-27.3633126" lon="152.7602424">
<ele>478.583</ele>
<time>2016-05-16T05:42:45.147Z</time>
</trkpt>
<trkpt lat="-27.3638437" lon="152.7601355">
<ele>479.634</ele>
<time>2016-05-16T05:42:47.627Z</time>
</trkpt>
<trkpt lat="-27.3643302" lon="152.7602298">
<ele>480.724</ele>
<time>2016-05-16T05:42:50.017Z</time>
</trkpt>
<trkpt lat="-27.3647031" lon="152.7604036">
<ele>482.948</ele>
<time>2016-05-16T05:42:52.105Z</time>
</trkpt>
<trkpt lat="-27.3651570" lon="152.7607318">
<ele>485.844</ele>
<time>2016-05-16T05:42:55.069Z</time>
</trkpt>
<trkpt lat="-27.3654432" lon="152.7609356">
<ele>487.942</ele>
<time>2016-05-16T05:42:56.952Z</time>
</trkpt>
<trkpt lat="-27.3657715" lon="152.7611253">
<ele>488.851</ele>
<time>2016-05-16T05:42:59.003Z</time>
</trkpt>
<trkpt lat="-27.3660017" lon="152.7614262">
<ele>489.383</ele>
<time>2016-05-16T05:43:01.007Z</time>
</trkpt>
<trkpt lat="-27.3663679" lon="152.7620170">
<ele>490.193</ele>
<time>2016-05-16T05:43:04.520Z</time>
</trkpt>
<trkpt lat="-27.3666153" lon="152.7623914">
<ele>490.760</ele>
<time>2016-05-16T05:43:06.648Z</time>
</trkpt>
<trkpt lat="-27.3670357" lon="152.7628264">
<ele>490.099</ele>
<time>2016-05-16T05:43:09.490Z</time>
</trkpt>
<trkpt lat="-27.3673358" lon="152.7630524">
<ele>487.893</ele>
<time>2016-05-16T05:43:11.292Z</time>
</trkpt>
<trkpt lat="-27.3678685" lon="152.7630465">
<ele>484.966</ele>
<time>2016-05-16T05:43:14.007Z</time>
</trkpt>
<trkpt lat="-27.3682228" lon="152.7628469">
<ele>483.116</ele>
<time>2016-05-16T05:43:16.124Z</time>
</trkpt>
<trkpt lat="-27.3688538" lon="152.7625711">
<ele>483.787</ele>
<time>2016-05-16T05:43:19.850Z</time>
</trkpt>
<trkpt lat="-27.3694682" lon="152.7622395">
<ele>486.628</ele>
<time>2016-05-16T05:43:23.277Z</time>
</trkpt>
<trkpt lat="-27.3698698" lon="152.7620189">
<ele>490.148</ele>
<time>2016-05-16T05:43:25.330Z</time>
</trkpt>
<trkpt lat="-27.3702340" lon="152.7618798">
<ele>493.443</ele>
<time>2016-05-16T05:43:27.071Z</time>
</trkpt>
<trkpt lat="-27.3707448" lon="152.7617402">
<ele>496.143</ele>
<time>2016-05-16T05:43:29.444Z</time>
</trkpt>
<trkpt lat="-27.3712104" lon="152.7620209">
<ele>497.828</ele>
<time>2016-05-16T05:43:31.992Z</time>
</trkpt>
<trkpt lat="-27.3715419" lon="152.7622103">
<ele>499.366</ele>
<time>2016-05-16T05:43:33.938Z</time>
</trkpt>
<trkpt lat="-27.3719997" lon="152.7625842">
<ele>502.313</ele>
<time>2016-05-16T05:43:37.160Z</time>
</trkpt>
<trkpt lat="-27.3724035" lon="152.7629846">
<ele>506.164</ele>
<time>2016-05-16T05:43:40.158Z</time>
</trkpt>
<trkpt lat="-27.3728895" lon="152.7634920">
<ele>508.817</ele>
<time>2016-05-16T05:43:43.740Z</time>
</trkpt>
<trkpt lat="-27.3734005" lon="152.7639531">
<ele>509.273</ele>
<time>2016-05-16T05:43:47.055Z</time>
</trkpt>
<trkpt lat="-27.3740071" lon="152.7643866">
<ele>507.456</ele>
<time>2016-05-16T05:43:50.323Z</time>
</trkpt>
<trkpt lat="-27.3743553" lon="152.7646905">
<ele>503.622</ele>
<time>2016-05-16T05:43:52.216Z</time>
</trkpt>
<trkpt lat="-27.3748472" lon="152.7651818">
<ele>499.293</ele>
<time>2016-05-16T05:43:55.008Z</time>
</trkpt>
<trkpt lat="-27.3751526" lon="152.7655354">
<ele>496.377</ele>
<time>2016-05-16T05:43:56.913Z</time>
</trkpt>
<trkpt lat="-27.3754575" lon="152.7658712">
<ele>495.721</ele>
<time>2016-05-16T05:43:58.781Z</time>
</trkpt>
<trkpt lat="-27.3758928" lon="152.7663558">
<ele>497.433</ele>
<time>2016-05-16T05:44:01.506Z</time>
</trkpt>
<trkpt lat="-27.3761664" lon="152.7666878">
<ele>501.056</ele>
<time>2016-05-16T05:44:03.365Z</time>
</trkpt>
<trkpt lat="-27.3764245" lon="152.7670089">
<ele>505.609</ele>
<time>2016-05-16T05:44:05.170Z</time>
</trkpt>
<trkpt lat="-27.3767745" lon="152.7675281">
<ele>509.745</ele>
<time>2016-05-16T05:44:08.023Z</time>
</trkpt>
<trkpt lat="-27.3770293" lon="152.7678778">
<ele>512.322</ele>
<time>2016-05-16T05:44:10.056Z</time>
</trkpt>
<trkpt lat="-27.3773980" lon="152.7683908">
<ele>513.293</ele>
<time>2016-05-16T05:44:13.037Z</time>
</trkpt>
<trkpt lat="-27.3777557" lon="152.7688694">
<ele>512.779</ele>
<time>2016-05-16T05:44:15.824Z</time>
</trkpt>
<trkpt lat="-27.3781669" lon="152.7692616">
<ele>510.607</ele>
<time>2016-05-16T05:44:18.553Z</time>
</trkpt>
<trkpt lat="-27.3784539" lon="152.7694981">
<ele>507.119</ele>
<time>2016-05-16T05:44:20.380Z</time>
</trkpt>
<trkpt lat="-27.3788459" lon="152.7698331">
<ele>503.155</ele>
<time>2016-05-16T05:44:22.956Z</time>
</trkpt>
<trkpt lat="-27.3790389" lon="152.7701443">
<ele>499.221</ele>
<time>2016-05-16T05:44:24.763Z</time>
</trkpt>
<trkpt lat="-27.3791138" lon="152.7706642">
<ele>495.806</ele>
<time>2016-05-16T05:44:27.373Z</time>
</trkpt>
<trkpt lat="-27.3789650" lon="152.7712450">
<ele>493.849</ele>
<time>2016-05-16T05:44:30.547Z</time>
</trkpt>
<trkpt lat="-27.3789011" lon="152.7716713">
<ele>494.543</ele>
<time>2016-05-16T05:44:32.919Z</time>
</trkpt>
<trkpt lat="-27.3788960" lon="152.7720627">
<ele>497.635</ele>
<time>2016-05-16T05:44:35.038Z</time>
</trkpt>
<trkpt lat="-27.3789585" lon="152.7724760">
<ele>501.555</ele>
<time>2016-05-16T05:44:37.213Z</time>
</trkpt>
<trkpt lat="-27.3790420" lon="152.7729012">
<ele>504.760</ele>
<time>2016-05-16T05:44:39.343Z</time>
</trkpt>
<trkpt lat="-27.3790211" lon="152.7731747">
<ele>506.149</ele>
<time>2016-05-16T05:44:40.679Z</time>
</trkpt>
<trkpt lat="-27.3788476" lon="152.7733628">
<ele>505.046</ele>
<time>2016-05-16T05:44:42.015Z</time>
</trkpt>
<trkpt lat="-27.3785719" lon="152.7736899">
<ele>502.263</ele>
<time>2016-05-16T05:44:44.556Z</time>
</trkpt>
<trkpt lat="-27.3784842" lon="152.7739962">
<ele>498.921</ele>
<time>2016-05-16T05:44:46.658Z</time>
</trkpt>
<trkpt lat="-27.3784753" lon="152.7742917">
<ele>495.469</ele>
<time>2016-05-16T05:44:48.870Z</time>
</trkpt>
<trkpt lat="-27.3785930" lon="152.7749030">
<ele>492.519</ele>
<time>2016-05-16T05:44:53.412Z</time>
</trkpt>
<trkpt lat="-27.3787773" lon="152.7752176">
<ele>490.253</ele>
<time>2016-05-16T05:44:55.933Z</time>
</trkpt>
<trkpt lat="-27.3790102" lon="152.7754876">
<ele>487.736</ele>
<time>2016-05-16T05:44:58.204Z</time>
</trkpt>
<trkpt lat="-27.3792786" lon="152.7756491">
<ele>484.367</ele>
<time>2016-05-16T05:45:00.151Z</time>
</trkpt>
<trkpt lat="-27.3795860" lon="152.7757907">
<ele>480.626</ele>
<time>2016-05-16T05:45:02.153Z</time>
</trkpt>
<trkpt lat="-27.3800626" lon="152.7758562">
<ele>477.340</ele>
<time>2016-05-16T05:45:05.021Z</time>
</trkpt>
<trkpt lat="-27.3805344" lon="152.7759092">
<ele>474.928</ele>
<time>2016-05-16T05:45:07.993Z</time>
</trkpt>
<trkpt lat="-27.3809815" lon="152.7760270">
<ele>473.064</ele>
<time>2016-05-16T05:45:10.944Z</time>
</trkpt>
<trkpt lat="-27.3812597" lon="152.7761797">
<ele>471.124</ele>
<time>2016-05-16T05:45:12.964Z</time>
</trkpt>
<trkpt lat="-27.3816337" lon="152.7765613">
<ele>468.766</ele>
<time>2016-05-16T05:45:16.259Z</time>
</trkpt>
<trkpt lat="-27.3818689" lon="152.7769103">
<ele>465.560</ele>
<time>2016-05-16T05:45:18.754Z</time>
</trkpt>
<trkpt lat="-27.3820378" lon="152.7774399">
<ele>461.020</ele>
<time>2016-05-16T05:45:21.944Z</time>
</trkpt>
<trkpt lat="-27.3822317" lon="152.7778544">
<ele>455.720</ele>
<time>2016-05-16T05:45:24.692Z</time>
</trkpt>
<trkpt lat="-27.3825470" lon="152.7782396">
<ele>451.276</ele>
<time>2016-05-16T05:45:27.769Z</time>
</trkpt>
<trkpt lat="-27.3827917" lon="152.7785211">
<ele>448.770</ele>
<time>2016-05-16T05:45:30.015Z</time>
</trkpt>
<trkpt lat="-27.3831997" lon="152.7788074">
<ele>447.858</ele>
<time>2016-05-16T05:45:33.108Z</time>
</trkpt>
<trkpt lat="-27.3835565" lon="152.7789137">
<ele>447.193</ele>
<time>2016-05-16T05:45:35.379Z</time>
</trkpt>
<trkpt lat="-27.3838364" lon="152.7789881">
<ele>445.594</ele>
<time>2016-05-16T05:45:37.104Z</time>
</trkpt>
<trkpt lat="-27.3842884" lon="152.7786127">
<ele>443.204</ele>
<time>2016-05-16T05:45:40.730Z</time>
</trkpt>
<trkpt lat="-27.3846678" lon="152.7782303">
<ele>441.135</ele>
<time>2016-05-16T05:45:44.331Z</time>
</trkpt>
<trkpt lat="-27.3848992" lon="152.7780148">
<ele>439.650</ele>
<time>2016-05-16T05:45:46.327Z</time>
</trkpt>
<trkpt lat="-27.3851361" lon="152.7778351">
<ele>438.398</ele>
<time>2016-05-16T05:45:48.061Z</time>
</trkpt>
<trkpt lat="-27.3854065" lon="152.7778363">
<ele>437.549</ele>
<time>2016-05-16T05:45:49.693Z</time>
</trkpt>
<trkpt lat="-27.3857552" lon="152.7782125">
<ele>437.260</ele>
<time>2016-05-16T05:45:52.655Z</time>
</trkpt>
<trkpt lat="-27.3858821" lon="152.7785127">
<ele>437.232</ele>
<time>2016-05-16T05:45:54.592Z</time>
</trkpt>
<trkpt lat="-27.3859698" lon="152.7789992">
<ele>436.913</ele>
<time>2016-05-16T05:45:57.800Z</time>
</trkpt>
<trkpt lat="-27.3858024" lon="152.7795827">
<ele>436.058</ele>
<time>2016-05-16T05:46:01.801Z</time>
</trkpt>
<trkpt lat="-27.3853949" lon="152.7799760">
<ele>435.034</ele>
<time>2016-05-16T05:46:05.259Z</time>
</trkpt>
<trkpt lat="-27.3852217" lon="152.7802942">
<ele>433.920</ele>
<time>2016-05-16T05:46:07.264Z</time>
</trkpt>
<trkpt lat="-27.3850673" lon="152.7805701">
<ele>432.173</ele>
<time>2016-05-16T05:46:08.986Z</time>
</trkpt>
<trkpt lat="-27.3851752" lon="152.7810462">
<ele>429.597</ele>
<time>2016-05-16T05:46:11.620Z</time>
</trkpt>
<trkpt lat="-27.3852558" lon="152.7814110">
<ele>426.635</ele>
<time>2016-05-16T05:46:13.780Z</time>
</trkpt>
<trkpt lat="-27.3853832" lon="152.7817582">
<ele>423.690</ele>
<time>2016-05-16T05:46:16.091Z</time>
</trkpt>
<trkpt lat="-27.3855422" lon="152.7820395">
<ele>420.314</ele>
<time>2016-05-16T05:46:18.157Z</time>
</trkpt>
<trkpt lat="-27.3857531" lon="152.7821805">
<ele>415.987</ele>
<time>2016-05-16T05:46:19.736Z</time>
</trkpt>
<trkpt lat="-27.3858987" lon="152.7824756">
<ele>411.043</ele>
<time>2016-05-16T05:46:21.628Z</time>
</trkpt>
<trkpt lat="-27.3859102" lon="152.7827741">
<ele>406.153</ele>
<time>2016-05-16T05:46:23.396Z</time>
</trkpt>
<trkpt lat="-27.3859596" lon="152.7832291">
<ele>402.091</ele>
<time>2016-05-16T05:46:26.578Z</time>
</trkpt>
<trkpt lat="-27.3859197" lon="152.7835118">
<ele>398.910</ele>
<time>2016-05-16T05:46:28.791Z</time>
</trkpt>
<trkpt lat="-27.3857271" lon="152.7838599">
<ele>395.855</ele>
<time>2016-05-16T05:46:31.778Z</time>
</trkpt>
<trkpt lat="-27.3857008" lon="152.7843023">
<ele>392.554</ele>
<time>2016-05-16T05:46:34.898Z</time>
</trkpt>
<trkpt lat="-27.3857795" lon="152.7846517">
<ele>389.349</ele>
<time>2016-05-16T05:46:37.467Z</time>
</trkpt>
<trkpt lat="-27.3858299" lon="152.7849304">
<ele>386.565</ele>
<time>2016-05-16T05:46:39.463Z</time>
</trkpt>
<trkpt lat="-27.3858719" lon="152.7852060">
<ele>383.824</ele>
<time>2016-05-16T05:46:41.308Z</time>
</trkpt>
<trkpt lat="-27.3860559" lon="152.7853422">
<ele>380.448</ele>
<time>2016-05-16T05:46:42.887Z</time>
</trkpt>
<trkpt lat="-27.3862377" lon="152.7854117">
<ele>376.779</ele>
<time>2016-05-16T05:46:44.270Z</time>
</trkpt>
<trkpt lat="-27.3864222" lon="152.7853648">
<ele>373.326</ele>
<time>2016-05-16T05:46:45.710Z</time>
</trkpt>
<trkpt lat="-27.3866993" lon="152.7853157">
<ele>370.481</ele>
<time>2016-05-16T05:46:48.094Z</time>
</trkpt>
<trkpt lat="-27.3868428" lon="152.7851704">
<ele>369.095</ele>
<time>2016-05-16T05:46:50.014Z</time>
</trkpt>
<trkpt lat="-27.3870119" lon="152.7848289">
<ele>369.471</ele>
<time>2016-05-16T05:46:53.876Z</time>
</trkpt>
<trkpt lat="-27.3871148" lon="152.7845855">
<ele>371.110</ele>
<time>2016-05-16T05:46:56.474Z</time>
</trkpt>
<trkpt lat="-27.3872015" lon="152.7843919">
<ele>373.274</ele>
<time>2016-05-16T05:46:58.372Z</time>
</trkpt>
<trkpt lat="-27.3873374" lon="152.7842943">
<ele>375.010</ele>
<time>2016-05-16T05:46:59.915Z</time>
</trkpt>
<trkpt lat="-27.3875211" lon="152.7844223">
<ele>375.817</ele>
<time>2016-05-16T05:47:01.749Z</time>
</trkpt>
<trkpt lat="-27.3876423" lon="152.7848359">
<ele>376.460</ele>
<time>2016-05-16T05:47:05.357Z</time>
</trkpt>
<trkpt lat="-27.3878198" lon="152.7849606">
<ele>377.771</ele>
<time>2016-05-16T05:47:08.065Z</time>
</trkpt>
<trkpt lat="-27.3880991" lon="152.7848020">
<ele>379.561</ele>
<time>2016-05-16T05:47:12.301Z</time>
</trkpt>
<trkpt lat="-27.3882769" lon="152.7848037">
<ele>381.605</ele>
<time>2016-05-16T05:47:14.197Z</time>
</trkpt>
<trkpt lat="-27.3884711" lon="152.7850357">
<ele>383.857</ele>
<time>2016-05-16T05:47:17.156Z</time>
</trkpt>
<trkpt lat="-27.3886194" lon="152.7851016">
<ele>385.828</ele>
<time>2016-05-16T05:47:18.867Z</time>
</trkpt>
<trkpt lat="-27.3889254" lon="152.7849650">
<ele>387.294</ele>
<time>2016-05-16T05:47:22.748Z</time>
</trkpt>
<trkpt lat="-27.3891684" lon="152.7847969">
<ele>389.006</ele>
<time>2016-05-16T05:47:25.972Z</time>
</trkpt>
<trkpt lat="-27.3895541" lon="152.7846258">
<ele>391.648</ele>
<time>2016-05-16T05:47:29.670Z</time>
</trkpt>
<trkpt lat="-27.3897690" lon="152.7845609">
<ele>395.007</ele>
<time>2016-05-16T05:47:31.340Z</time>
</trkpt>
<trkpt lat="-27.3899450" lon="152.7844814">
<ele>398.034</ele>
<time>2016-05-16T05:47:32.777Z</time>
</trkpt>
<trkpt lat="-27.3901603" lon="152.7846702">
<ele>399.898</ele>
<time>2016-05-16T05:47:35.007Z</time>
</trkpt>
<trkpt lat="-27.3902254" lon="152.7848691">
<ele>400.547</ele>
<time>2016-05-16T05:47:36.874Z</time>
</trkpt>
<trkpt lat="-27.3902505" lon="152.7851444">
<ele>400.982</ele>
<time>2016-05-16T05:47:39.762Z</time>
</trkpt>
<trkpt lat="-27.3904506" lon="152.7853336">
<ele>402.130</ele>
<time>2016-05-16T05:47:42.871Z</time>
</trkpt>
<trkpt lat="-27.3907102" lon="152.7851205">
<ele>404.048</ele>
<time>2016-05-16T05:47:46.359Z</time>
</trkpt>
<trkpt lat="-27.3908225" lon="152.7849428">
<ele>406.446</ele>
<time>2016-05-16T05:47:48.552Z</time>
</trkpt>
<trkpt lat="-27.3909991" lon="152.7847115">
<ele>409.089</ele>
<time>2016-05-16T05:47:51.496Z</time>
</trkpt>
<trkpt lat="-27.3912234" lon="152.7846336">
<ele>411.491</ele>
<time>2016-05-16T05:47:54.000Z</time>
</trkpt>
<trkpt lat="-27.3915194" lon="152.7846069">
<ele>413.442</ele>
<time>2016-05-16T05:47:57.076Z</time>
</trkpt>
<trkpt lat="-27.3917162" lon="152.7844878">
<ele>415.551</ele>
<time>2016-05-16T05:47:59.353Z</time>
</trkpt>
<trkpt lat="-27.3916723" lon="152.7842844">
<ele>418.787</ele>
<time>2016-05-16T05:48:01.355Z</time>
</trkpt>
<trkpt lat="-27.3914129" lon="152.7838976">
<ele>423.157</ele>
<time>2016-05-16T05:48:06.315Z</time>
</trkpt>
<trkpt lat="-27.3912549" lon="152.7836645">
<ele>427.864</ele>
<time>2016-05-16T05:48:08.742Z</time>
</trkpt>
<trkpt lat="-27.3910237" lon="152.7834847">
<ele>432.124</ele>
<time>2016-05-16T05:48:11.287Z</time>
</trkpt>
<trkpt lat="-27.3909249" lon="152.7831199">
<ele>435.170</ele>
<time>2016-05-16T05:48:14.545Z</time>
</trkpt>
<trkpt lat="-27.3910284" lon="152.7827443">
<ele>437.035</ele>
<time>2016-05-16T05:48:17.825Z</time>
</trkpt>
<trkpt lat="-27.3912959" lon="152.7825461">
<ele>438.675</ele>
<time>2016-05-16T05:48:20.720Z</time>
</trkpt>
<trkpt lat="-27.3915460" lon="152.7821598">
<ele>440.686</ele>
<time>2016-05-16T05:48:24.130Z</time>
</trkpt>
<trkpt lat="-27.3917401" lon="152.7817219">
<ele>443.315</ele>
<time>2016-05-16T05:48:27.195Z</time>
</trkpt>
<trkpt lat="-27.3918444" lon="152.7814443">
<ele>446.497</ele>
<time>2016-05-16T05:48:29.039Z</time>
</trkpt>
<trkpt lat="-27.3919942" lon="152.7812180">
<ele>449.448</ele>
<time>2016-05-16T05:48:30.862Z</time>
</trkpt>
<trkpt lat="-27.3920685" lon="152.7808256">
<ele>451.327</ele>
<time>2016-05-16T05:48:33.593Z</time>
</trkpt>
<trkpt lat="-27.3921411" lon="152.7804147">
<ele>452.281</ele>
<time>2016-05-16T05:48:36.434Z</time>
</trkpt>
<trkpt lat="-27.3922153" lon="152.7800932">
<ele>453.451</ele>
<time>2016-05-16T05:48:38.599Z</time>
</trkpt>
<trkpt lat="-27.3922793" lon="152.7798373">
<ele>455.495</ele>
<time>2016-05-16T05:48:40.404Z</time>
</trkpt>
<trkpt lat="-27.3922656" lon="152.7796104">
<ele>457.648</ele>
<time>2016-05-16T05:48:42.129Z</time>
</trkpt>
<trkpt lat="-27.3923368" lon="152.7793483">
<ele>458.858</ele>
<time>2016-05-16T05:48:44.644Z</time>
</trkpt>
<trkpt lat="-27.3924586" lon="152.7792261">
<ele>459.055</ele>
<time>2016-05-16T05:48:46.552Z</time>
</trkpt>
<trkpt lat="-27.3925939" lon="152.7791075">
<ele>459.008</ele>
<time>2016-05-16T05:48:48.789Z</time>
</trkpt>
<trkpt lat="-27.3927133" lon="152.7790441">
<ele>459.383</ele>
<time>2016-05-16T05:48:50.491Z</time>
</trkpt>
<trkpt lat="-27.3928630" lon="152.7791398">
<ele>460.047</ele>
<time>2016-05-16T05:48:52.914Z</time>
</trkpt>
<trkpt lat="-27.3929206" lon="152.7792416">
<ele>460.528</ele>
<time>2016-05-16T05:48:54.669Z</time>
</trkpt>
<trkpt lat="-27.3929530" lon="152.7794659">
<ele>460.823</ele>
<time>2016-05-16T05:48:58.176Z</time>
</trkpt>
<trkpt lat="-27.3929617" lon="152.7797859">
<ele>461.315</ele>
<time>2016-05-16T05:49:01.497Z</time>
</trkpt>
<trkpt lat="-27.3929998" lon="152.7800787">
<ele>462.058</ele>
<time>2016-05-16T05:49:04.268Z</time>
</trkpt>
<trkpt lat="-27.3930953" lon="152.7802501">
<ele>462.317</ele>
<time>2016-05-16T05:49:06.237Z</time>
</trkpt>
<trkpt lat="-27.3933363" lon="152.7804114">
<ele>461.428</ele>
<time>2016-05-16T05:49:09.440Z</time>
</trkpt>
<trkpt lat="-27.3935548" lon="152.7805087">
<ele>459.772</ele>
<time>2016-05-16T05:49:11.931Z</time>
</trkpt>
<trkpt lat="-27.3938527" lon="152.7804921">
<ele>458.168</ele>
<time>2016-05-16T05:49:14.497Z</time>
</trkpt>
<trkpt lat="-27.3942311" lon="152.7804474">
<ele>456.775</ele>
<time>2016-05-16T05:49:17.504Z</time>
</trkpt>
<trkpt lat="-27.3944736" lon="152.7804806">
<ele>455.073</ele>
<time>2016-05-16T05:49:19.453Z</time>
</trkpt>
<trkpt lat="-27.3947632" lon="152.7806795">
<ele>452.712</ele>
<time>2016-05-16T05:49:22.386Z</time>
</trkpt>
<trkpt lat="-27.3949455" lon="152.7809093">
<ele>449.987</ele>
<time>2016-05-16T05:49:25.092Z</time>
</trkpt>
<trkpt lat="-27.3950207" lon="152.7810726">
<ele>447.047</ele>
<time>2016-05-16T05:49:26.966Z</time>
</trkpt>
<trkpt lat="-27.3948504" lon="152.7812074">
<ele>444.013</ele>
<time>2016-05-16T05:49:30.321Z</time>
</trkpt>
<trkpt lat="-27.3947585" lon="152.7812376">
<ele>441.111</ele>
<time>2016-05-16T05:49:33.000Z</time>
</trkpt>
<trkpt lat="-27.3947585" lon="152.7812376">
<ele>438.574</ele>
<time>2016-05-16T05:49:37.000Z</time>
</trkpt>
<trkpt lat="-27.3947585" lon="152.7812376">
<ele>437.089</ele>
<time>2016-05-16T05:54:18.431Z</time>
</trkpt>
<trkpt lat="-27.3946619" lon="152.7814382">
<ele>437.366</ele>
<time>2016-05-16T05:54:28.313Z</time>
</trkpt>
<trkpt lat="-27.3945512" lon="152.7816054">
<ele>438.628</ele>
<time>2016-05-16T05:54:30.954Z</time>
</trkpt>
<trkpt lat="-27.3945628" lon="152.7818208">
<ele>439.493</ele>
<time>2016-05-16T05:54:33.177Z</time>
</trkpt>
<trkpt lat="-27.3946995" lon="152.7821047">
<ele>439.466</ele>
<time>2016-05-16T05:54:35.751Z</time>
</trkpt>
<trkpt lat="-27.3948996" lon="152.7822642">
<ele>438.969</ele>
<time>2016-05-16T05:54:37.768Z</time>
</trkpt>
<trkpt lat="-27.3952710" lon="152.7823546">
<ele>438.770</ele>
<time>2016-05-16T05:54:41.020Z</time>
</trkpt>
<trkpt lat="-27.3954594" lon="152.7824008">
<ele>439.341</ele>
<time>2016-05-16T05:54:42.772Z</time>
</trkpt>
<trkpt lat="-27.3956518" lon="152.7824669">
<ele>440.239</ele>
<time>2016-05-16T05:54:44.596Z</time>
</trkpt>
<trkpt lat="-27.3959379" lon="152.7826883">
<ele>440.887</ele>
<time>2016-05-16T05:54:47.586Z</time>
</trkpt>
<trkpt lat="-27.3960987" lon="152.7828638">
<ele>441.105</ele>
<time>2016-05-16T05:54:49.459Z</time>
</trkpt>
<trkpt lat="-27.3963482" lon="152.7831696">
<ele>440.765</ele>
<time>2016-05-16T05:54:52.404Z</time>
</trkpt>
<trkpt lat="-27.3966463" lon="152.7834446">
<ele>439.695</ele>
<time>2016-05-16T05:54:55.259Z</time>
</trkpt>
<trkpt lat="-27.3968994" lon="152.7836031">
<ele>438.187</ele>
<time>2016-05-16T05:54:57.240Z</time>
</trkpt>
<trkpt lat="-27.3971881" lon="152.7837327">
<ele>437.451</ele>
<time>2016-05-16T05:54:59.360Z</time>
</trkpt>
<trkpt lat="-27.3974691" lon="152.7837752">
<ele>438.130</ele>
<time>2016-05-16T05:55:01.336Z</time>
</trkpt>
<trkpt lat="-27.3978897" lon="152.7837948">
<ele>439.496</ele>
<time>2016-05-16T05:55:04.318Z</time>
</trkpt>
<trkpt lat="-27.3981543" lon="152.7838225">
<ele>440.669</ele>
<time>2016-05-16T05:55:06.277Z</time>
</trkpt>
<trkpt lat="-27.3985033" lon="152.7839700">
<ele>441.337</ele>
<time>2016-05-16T05:55:09.054Z</time>
</trkpt>
<trkpt lat="-27.3986986" lon="152.7842057">
<ele>441.619</ele>
<time>2016-05-16T05:55:11.191Z</time>
</trkpt>
<trkpt lat="-27.3987495" lon="152.7844889">
<ele>441.923</ele>
<time>2016-05-16T05:55:13.126Z</time>
</trkpt>
<trkpt lat="-27.3987772" lon="152.7849235">
<ele>442.377</ele>
<time>2016-05-16T05:55:16.059Z</time>
</trkpt>
<trkpt lat="-27.3987712" lon="152.7852149">
<ele>442.764</ele>
<time>2016-05-16T05:55:18.000Z</time>
</trkpt>
<trkpt lat="-27.3988847" lon="152.7855033">
<ele>442.698</ele>
<time>2016-05-16T05:55:20.005Z</time>
</trkpt>
<trkpt lat="-27.3989740" lon="152.7858076">
<ele>441.878</ele>
<time>2016-05-16T05:55:21.915Z</time>
</trkpt>
<trkpt lat="-27.3990068" lon="152.7863603">
<ele>440.610</ele>
<time>2016-05-16T05:55:25.113Z</time>
</trkpt>
<trkpt lat="-27.3989502" lon="152.7866854">
<ele>439.760</ele>
<time>2016-05-16T05:55:27.003Z</time>
</trkpt>
<trkpt lat="-27.3990347" lon="152.7873924">
<ele>439.698</ele>
<time>2016-05-16T05:55:31.123Z</time>
</trkpt>
<trkpt lat="-27.3990469" lon="152.7877575">
<ele>440.174</ele>
<time>2016-05-16T05:55:33.259Z</time>
</trkpt>
<trkpt lat="-27.3989503" lon="152.7882444">
<ele>440.719</ele>
<time>2016-05-16T05:55:36.305Z</time>
</trkpt>
<trkpt lat="-27.3987815" lon="152.7886480">
<ele>440.998</ele>
<time>2016-05-16T05:55:39.247Z</time>
</trkpt>
<trkpt lat="-27.3986083" lon="152.7888575">
<ele>441.082</ele>
<time>2016-05-16T05:55:41.248Z</time>
</trkpt>
<trkpt lat="-27.3984358" lon="152.7890457">
<ele>441.739</ele>
<time>2016-05-16T05:55:43.127Z</time>
</trkpt>
<trkpt lat="-27.3981847" lon="152.7891960">
<ele>443.318</ele>
<time>2016-05-16T05:55:45.239Z</time>
</trkpt>
<trkpt lat="-27.3979745" lon="152.7894421">
<ele>445.043</ele>
<time>2016-05-16T05:55:47.507Z</time>
</trkpt>
<trkpt lat="-27.3980546" lon="152.7899050">
<ele>446.089</ele>
<time>2016-05-16T05:55:50.667Z</time>
</trkpt>
<trkpt lat="-27.3981811" lon="152.7903275">
<ele>446.809</ele>
<time>2016-05-16T05:55:53.506Z</time>
</trkpt>
<trkpt lat="-27.3983716" lon="152.7907473">
<ele>447.720</ele>
<time>2016-05-16T05:55:56.533Z</time>
</trkpt>
<trkpt lat="-27.3985141" lon="152.7910025">
<ele>448.638</ele>
<time>2016-05-16T05:55:58.613Z</time>
</trkpt>
<trkpt lat="-27.3987671" lon="152.7912775">
<ele>448.946</ele>
<time>2016-05-16T05:56:01.558Z</time>
</trkpt>
<trkpt lat="-27.3989932" lon="152.7913282">
<ele>448.576</ele>
<time>2016-05-16T05:56:03.443Z</time>
</trkpt>
<trkpt lat="-27.3993766" lon="152.7914320">
<ele>448.140</ele>
<time>2016-05-16T05:56:06.390Z</time>
</trkpt>
<trkpt lat="-27.3996580" lon="152.7914950">
<ele>448.838</ele>
<time>2016-05-16T05:56:08.398Z</time>
</trkpt>
<trkpt lat="-27.3999365" lon="152.7915897">
<ele>451.220</ele>
<time>2016-05-16T05:56:10.379Z</time>
</trkpt>
<trkpt lat="-27.4003336" lon="152.7918618">
<ele>454.296</ele>
<time>2016-05-16T05:56:13.606Z</time>
</trkpt>
<trkpt lat="-27.4005524" lon="152.7922012">
<ele>457.207</ele>
<time>2016-05-16T05:56:16.393Z</time>
</trkpt>
<trkpt lat="-27.4006566" lon="152.7924540">
<ele>459.876</ele>
<time>2016-05-16T05:56:18.343Z</time>
</trkpt>
<trkpt lat="-27.4009546" lon="152.7926674">
<ele>461.788</ele>
<time>2016-05-16T05:56:21.224Z</time>
</trkpt>
<trkpt lat="-27.4012362" lon="152.7924967">
<ele>463.237</ele>
<time>2016-05-16T05:56:23.755Z</time>
</trkpt>
<trkpt lat="-27.4016685" lon="152.7926459">
<ele>465.351</ele>
<time>2016-05-16T05:56:27.512Z</time>
</trkpt>
<trkpt lat="-27.4017417" lon="152.7928561">
<ele>467.798</ele>
<time>2016-05-16T05:56:29.274Z</time>
</trkpt>
<trkpt lat="-27.4015733" lon="152.7932758">
<ele>469.631</ele>
<time>2016-05-16T05:56:32.539Z</time>
</trkpt>
<trkpt lat="-27.4013527" lon="152.7934948">
<ele>471.141</ele>
<time>2016-05-16T05:56:34.732Z</time>
</trkpt>
<trkpt lat="-27.4011000" lon="152.7939054">
<ele>472.740</ele>
<time>2016-05-16T05:56:38.129Z</time>
</trkpt>
<trkpt lat="-27.4009835" lon="152.7941341">
<ele>474.268</ele>
<time>2016-05-16T05:56:40.004Z</time>
</trkpt>
<trkpt lat="-27.4006955" lon="152.7944061">
<ele>475.595</ele>
<time>2016-05-16T05:56:43.144Z</time>
</trkpt>
<trkpt lat="-27.4004106" lon="152.7946536">
<ele>476.556</ele>
<time>2016-05-16T05:56:46.341Z</time>
</trkpt>
<trkpt lat="-27.4002970" lon="152.7949701">
<ele>477.271</ele>
<time>2016-05-16T05:56:48.694Z</time>
</trkpt>
<trkpt lat="-27.4003420" lon="152.7951322">
<ele>478.107</ele>
<time>2016-05-16T05:56:49.800Z</time>
</trkpt>
<trkpt lat="-27.4006456" lon="152.7958758">
<ele>479.059</ele>
<time>2016-05-16T05:56:54.021Z</time>
</trkpt>
<trkpt lat="-27.4007466" lon="152.7962315">
<ele>480.197</ele>
<time>2016-05-16T05:56:55.898Z</time>
</trkpt>
<trkpt lat="-27.4009655" lon="152.7967566">
<ele>481.514</ele>
<time>2016-05-16T05:56:58.886Z</time>
</trkpt>
<trkpt lat="-27.4011213" lon="152.7970961">
<ele>482.413</ele>
<time>2016-05-16T05:57:00.905Z</time>
</trkpt>
<trkpt lat="-27.4012643" lon="152.7974470">
<ele>482.397</ele>
<time>2016-05-16T05:57:02.927Z</time>
</trkpt>
<trkpt lat="-27.4014638" lon="152.7979749">
<ele>481.333</ele>
<time>2016-05-16T05:57:05.889Z</time>
</trkpt>
<trkpt lat="-27.4015370" lon="152.7985639">
<ele>479.210</ele>
<time>2016-05-16T05:57:09.081Z</time>
</trkpt>
<trkpt lat="-27.4015279" lon="152.7987466">
<ele>476.504</ele>
<time>2016-05-16T05:57:10.095Z</time>
</trkpt>
<trkpt lat="-27.4013108" lon="152.7993852">
<ele>474.233</ele>
<time>2016-05-16T05:57:14.215Z</time>
</trkpt>
<trkpt lat="-27.4008557" lon="152.7995472">
<ele>473.152</ele>
<time>2016-05-16T05:57:17.610Z</time>
</trkpt>
<trkpt lat="-27.4004717" lon="152.7997082">
<ele>473.816</ele>
<time>2016-05-16T05:57:20.791Z</time>
</trkpt>
<trkpt lat="-27.4002647" lon="152.7998557">
<ele>476.354</ele>
<time>2016-05-16T05:57:22.705Z</time>
</trkpt>
<trkpt lat="-27.4001526" lon="152.8002281">
<ele>479.714</ele>
<time>2016-05-16T05:57:25.168Z</time>
</trkpt>
<trkpt lat="-27.4002591" lon="152.8007549">
<ele>483.129</ele>
<time>2016-05-16T05:57:28.065Z</time>
</trkpt>
<trkpt lat="-27.4003698" lon="152.8014067">
<ele>487.443</ele>
<time>2016-05-16T05:57:31.351Z</time>
</trkpt>
<trkpt lat="-27.4003866" lon="152.8018118">
<ele>493.299</ele>
<time>2016-05-16T05:57:33.431Z</time>
</trkpt>
<trkpt lat="-27.4004100" lon="152.8021887">
<ele>499.862</ele>
<time>2016-05-16T05:57:35.384Z</time>
</trkpt>
<trkpt lat="-27.4004438" lon="152.8025475">
<ele>505.574</ele>
<time>2016-05-16T05:57:37.251Z</time>
</trkpt>
<trkpt lat="-27.4005105" lon="152.8031217">
<ele>509.213</ele>
<time>2016-05-16T05:57:40.224Z</time>
</trkpt>
<trkpt lat="-27.4005232" lon="152.8035048">
<ele>510.168</ele>
<time>2016-05-16T05:57:42.153Z</time>
</trkpt>
<trkpt lat="-27.4005639" lon="152.8041185">
<ele>508.986</ele>
<time>2016-05-16T05:57:45.264Z</time>
</trkpt>
<trkpt lat="-27.4005900" lon="152.8045109">
<ele>506.914</ele>
<time>2016-05-16T05:57:47.430Z</time>
</trkpt>
<trkpt lat="-27.4006049" lon="152.8048577">
<ele>504.321</ele>
<time>2016-05-16T05:57:49.596Z</time>
</trkpt>
<trkpt lat="-27.4005346" lon="152.8053589">
<ele>500.766</ele>
<time>2016-05-16T05:57:53.123Z</time>
</trkpt>
<trkpt lat="-27.4002869" lon="152.8056650">
<ele>495.753</ele>
<time>2016-05-16T05:57:56.153Z</time>
</trkpt>
<trkpt lat="-27.3999590" lon="152.8058704">
<ele>489.316</ele>
<time>2016-05-16T05:57:59.322Z</time>
</trkpt>
<trkpt lat="-27.3997229" lon="152.8056158">
<ele>483.285</ele>
<time>2016-05-16T05:58:02.085Z</time>
</trkpt>
<trkpt lat="-27.3993782" lon="152.8054840">
<ele>479.861</ele>
<time>2016-05-16T05:58:05.131Z</time>
</trkpt>
<trkpt lat="-27.3991487" lon="152.8055332">
<ele>479.312</ele>
<time>2016-05-16T05:58:06.886Z</time>
</trkpt>
<trkpt lat="-27.3989414" lon="152.8058661">
<ele>480.297</ele>
<time>2016-05-16T05:58:09.399Z</time>
</trkpt>
<trkpt lat="-27.3988515" lon="152.8061738">
<ele>481.337</ele>
<time>2016-05-16T05:58:11.255Z</time>
</trkpt>
<trkpt lat="-27.3988739" lon="152.8066538">
<ele>481.448</ele>
<time>2016-05-16T05:58:13.910Z</time>
</trkpt>
<trkpt lat="-27.3990421" lon="152.8071748">
<ele>480.525</ele>
<time>2016-05-16T05:58:16.911Z</time>
</trkpt>
<trkpt lat="-27.3991775" lon="152.8074856">
<ele>478.921</ele>
<time>2016-05-16T05:58:18.784Z</time>
</trkpt>
<trkpt lat="-27.3994260" lon="152.8079792">
<ele>476.891</ele>
<time>2016-05-16T05:58:22.176Z</time>
</trkpt>
<trkpt lat="-27.3995608" lon="152.8083273">
<ele>474.162</ele>
<time>2016-05-16T05:58:24.837Z</time>
</trkpt>
<trkpt lat="-27.3995761" lon="152.8086332">
<ele>470.934</ele>
<time>2016-05-16T05:58:27.235Z</time>
</trkpt>
<trkpt lat="-27.3996610" lon="152.8090073">
<ele>468.259</ele>
<time>2016-05-16T05:58:30.207Z</time>
</trkpt>
<trkpt lat="-27.3997799" lon="152.8092146">
<ele>466.221</ele>
<time>2016-05-16T05:58:32.025Z</time>
</trkpt>
<trkpt lat="-27.4000358" lon="152.8093341">
<ele>463.867</ele>
<time>2016-05-16T05:58:34.166Z</time>
</trkpt>
<trkpt lat="-27.4002267" lon="152.8096025">
<ele>461.277</ele>
<time>2016-05-16T05:58:36.464Z</time>
</trkpt>
<trkpt lat="-27.4002377" lon="152.8099289">
<ele>458.920</ele>
<time>2016-05-16T05:58:38.720Z</time>
</trkpt>
<trkpt lat="-27.4001844" lon="152.8103531">
<ele>456.967</ele>
<time>2016-05-16T05:58:41.579Z</time>
</trkpt>
<trkpt lat="-27.4001476" lon="152.8106551">
<ele>455.520</ele>
<time>2016-05-16T05:58:43.404Z</time>
</trkpt>
<trkpt lat="-27.3999900" lon="152.8112659">
<ele>454.270</ele>
<time>2016-05-16T05:58:46.799Z</time>
</trkpt>
<trkpt lat="-27.3999200" lon="152.8116405">
<ele>452.919</ele>
<time>2016-05-16T05:58:48.825Z</time>
</trkpt>
<trkpt lat="-27.3998722" lon="152.8120441">
<ele>451.628</ele>
<time>2016-05-16T05:58:51.199Z</time>
</trkpt>
<trkpt lat="-27.3997470" lon="152.8125768">
<ele>450.409</ele>
<time>2016-05-16T05:58:54.395Z</time>
</trkpt>
<trkpt lat="-27.3997855" lon="152.8128646">
<ele>448.423</ele>
<time>2016-05-16T05:58:55.993Z</time>
</trkpt>
<trkpt lat="-27.3998973" lon="152.8133899">
<ele>445.260</ele>
<time>2016-05-16T05:58:58.939Z</time>
</trkpt>
<trkpt lat="-27.3999986" lon="152.8139364">
<ele>442.209</ele>
<time>2016-05-16T05:59:02.157Z</time>
</trkpt>
<trkpt lat="-27.4000836" lon="152.8143102">
<ele>440.138</ele>
<time>2016-05-16T05:59:04.769Z</time>
</trkpt>
<trkpt lat="-27.4001462" lon="152.8147984">
<ele>438.412</ele>
<time>2016-05-16T05:59:08.602Z</time>
</trkpt>
<trkpt lat="-27.4003136" lon="152.8151089">
<ele>436.160</ele>
<time>2016-05-16T05:59:11.477Z</time>
</trkpt>
<trkpt lat="-27.4005276" lon="152.8152376">
<ele>432.934</ele>
<time>2016-05-16T05:59:13.511Z</time>
</trkpt>
<trkpt lat="-27.4007364" lon="152.8152334">
<ele>429.312</ele>
<time>2016-05-16T05:59:15.220Z</time>
</trkpt>
<trkpt lat="-27.4009922" lon="152.8149422">
<ele>426.474</ele>
<time>2016-05-16T05:59:17.925Z</time>
</trkpt>
<trkpt lat="-27.4012376" lon="152.8146466">
<ele>424.664</ele>
<time>2016-05-16T05:59:20.224Z</time>
</trkpt>
<trkpt lat="-27.4015847" lon="152.8146754">
<ele>423.558</ele>
<time>2016-05-16T05:59:22.059Z</time>
</trkpt>
<trkpt lat="-27.4021813" lon="152.8148140">
<ele>423.118</ele>
<time>2016-05-16T05:59:25.158Z</time>
</trkpt>
<trkpt lat="-27.4027562" lon="152.8149449">
<ele>423.424</ele>
<time>2016-05-16T05:59:28.219Z</time>
</trkpt>
<trkpt lat="-27.4031439" lon="152.8150627">
<ele>424.334</ele>
<time>2016-05-16T05:59:30.449Z</time>
</trkpt>
<trkpt lat="-27.4036725" lon="152.8151839">
<ele>425.697</ele>
<time>2016-05-16T05:59:33.479Z</time>
</trkpt>
<trkpt lat="-27.4041683" lon="152.8153019">
<ele>427.156</ele>
<time>2016-05-16T05:59:36.398Z</time>
</trkpt>
<trkpt lat="-27.4044950" lon="152.8154897">
<ele>427.838</ele>
<time>2016-05-16T05:59:38.560Z</time>
</trkpt>
<trkpt lat="-27.4047774" lon="152.8156990">
<ele>426.910</ele>
<time>2016-05-16T05:59:40.573Z</time>
</trkpt>
<trkpt lat="-27.4051862" lon="152.8159976">
<ele>424.357</ele>
<time>2016-05-16T05:59:43.450Z</time>
</trkpt>
<trkpt lat="-27.4054908" lon="152.8161409">
<ele>421.309</ele>
<time>2016-05-16T05:59:45.379Z</time>
</trkpt>
<trkpt lat="-27.4059643" lon="152.8163715">
<ele>419.537</ele>
<time>2016-05-16T05:59:48.446Z</time>
</trkpt>
<trkpt lat="-27.4062631" lon="152.8165467">
<ele>419.619</ele>
<time>2016-05-16T05:59:50.494Z</time>
</trkpt>
<trkpt lat="-27.4066266" lon="152.8168909">
<ele>420.305</ele>
<time>2016-05-16T05:59:53.553Z</time>
</trkpt>
<trkpt lat="-27.4068735" lon="152.8171452">
<ele>420.166</ele>
<time>2016-05-16T05:59:55.989Z</time>
</trkpt>
<trkpt lat="-27.4070946" lon="152.8173708">
<ele>418.774</ele>
<time>2016-05-16T05:59:58.494Z</time>
</trkpt>
<trkpt lat="-27.4074148" lon="152.8177250">
<ele>416.041</ele>
<time>2016-05-16T06:00:02.201Z</time>
</trkpt>
<trkpt lat="-27.4073938" lon="152.8180072">
<ele>411.613</ele>
<time>2016-05-16T06:00:03.966Z</time>
</trkpt>
<trkpt lat="-27.4075108" lon="152.8183974">
<ele>406.192</ele>
<time>2016-05-16T06:00:06.311Z</time>
</trkpt>
<trkpt lat="-27.4077305" lon="152.8186384">
<ele>401.338</ele>
<time>2016-05-16T06:00:08.095Z</time>
</trkpt>
<trkpt lat="-27.4080685" lon="152.8190453">
<ele>397.892</ele>
<time>2016-05-16T06:00:10.871Z</time>
</trkpt>
<trkpt lat="-27.4084475" lon="152.8194372">
<ele>395.745</ele>
<time>2016-05-16T06:00:13.650Z</time>
</trkpt>
<trkpt lat="-27.4087408" lon="152.8197089">
<ele>394.360</ele>
<time>2016-05-16T06:00:15.717Z</time>
</trkpt>
<trkpt lat="-27.4090252" lon="152.8199432">
<ele>392.959</ele>
<time>2016-05-16T06:00:17.647Z</time>
</trkpt>
<trkpt lat="-27.4092874" lon="152.8202273">
<ele>391.354</ele>
<time>2016-05-16T06:00:19.659Z</time>
</trkpt>
<trkpt lat="-27.4095188" lon="152.8205535">
<ele>390.016</ele>
<time>2016-05-16T06:00:21.795Z</time>
</trkpt>
<trkpt lat="-27.4098969" lon="152.8208269">
<ele>389.201</ele>
<time>2016-05-16T06:00:24.452Z</time>
</trkpt>
<trkpt lat="-27.4100707" lon="152.8211279">
<ele>388.163</ele>
<time>2016-05-16T06:00:26.316Z</time>
</trkpt>
<trkpt lat="-27.4103558" lon="152.8216232">
<ele>386.571</ele>
<time>2016-05-16T06:00:29.303Z</time>
</trkpt>
<trkpt lat="-27.4104579" lon="152.8219779">
<ele>385.411</ele>
<time>2016-05-16T06:00:31.087Z</time>
</trkpt>
<trkpt lat="-27.4105787" lon="152.8223488">
<ele>385.385</ele>
<time>2016-05-16T06:00:32.877Z</time>
</trkpt>
<trkpt lat="-27.4107145" lon="152.8227726">
<ele>385.649</ele>
<time>2016-05-16T06:00:34.933Z</time>
</trkpt>
<trkpt lat="-27.4109514" lon="152.8233823">
<ele>384.900</ele>
<time>2016-05-16T06:00:38.062Z</time>
</trkpt>
<trkpt lat="-27.4110316" lon="152.8238158">
<ele>382.299</ele>
<time>2016-05-16T06:00:40.211Z</time>
</trkpt>
<trkpt lat="-27.4110469" lon="152.8244026">
<ele>377.898</ele>
<time>2016-05-16T06:00:43.372Z</time>
</trkpt>
<trkpt lat="-27.4110707" lon="152.8248031">
<ele>372.623</ele>
<time>2016-05-16T06:00:45.771Z</time>
</trkpt>
<trkpt lat="-27.4111115" lon="152.8252592">
<ele>367.741</ele>
<time>2016-05-16T06:00:48.389Z</time>
</trkpt>
<trkpt lat="-27.4113500" lon="152.8257409">
<ele>364.279</ele>
<time>2016-05-16T06:00:51.209Z</time>
</trkpt>
<trkpt lat="-27.4117032" lon="152.8261840">
<ele>362.501</ele>
<time>2016-05-16T06:00:54.023Z</time>
</trkpt>
<trkpt lat="-27.4121289" lon="152.8266457">
<ele>361.975</ele>
<time>2016-05-16T06:00:57.134Z</time>
</trkpt>
<trkpt lat="-27.4123925" lon="152.8269243">
<ele>362.415</ele>
<time>2016-05-16T06:00:59.124Z</time>
</trkpt>
<trkpt lat="-27.4128272" lon="152.8273414">
<ele>363.857</ele>
<time>2016-05-16T06:01:02.512Z</time>
</trkpt>
<trkpt lat="-27.4131910" lon="152.8277203">
<ele>366.337</ele>
<time>2016-05-16T06:01:05.660Z</time>
</trkpt>
<trkpt lat="-27.4133461" lon="152.8281881">
<ele>369.324</ele>
<time>2016-05-16T06:01:08.493Z</time>
</trkpt>
<trkpt lat="-27.4133265" lon="152.8287179">
<ele>371.818</ele>
<time>2016-05-16T06:01:11.558Z</time>
</trkpt>
<trkpt lat="-27.4134472" lon="152.8292123">
<ele>374.257</ele>
<time>2016-05-16T06:01:14.919Z</time>
</trkpt>
<trkpt lat="-27.4136157" lon="152.8294927">
<ele>377.535</ele>
<time>2016-05-16T06:01:17.107Z</time>
</trkpt>
<trkpt lat="-27.4138972" lon="152.8297477">
<ele>380.651</ele>
<time>2016-05-16T06:01:19.494Z</time>
</trkpt>
<trkpt lat="-27.4143794" lon="152.8298973">
<ele>382.603</ele>
<time>2016-05-16T06:01:22.585Z</time>
</trkpt>
<trkpt lat="-27.4148648" lon="152.8300586">
<ele>384.747</ele>
<time>2016-05-16T06:01:25.642Z</time>
</trkpt>
<trkpt lat="-27.4152707" lon="152.8303790">
<ele>388.333</ele>
<time>2016-05-16T06:01:28.547Z</time>
</trkpt>
<trkpt lat="-27.4156819" lon="152.8307201">
<ele>392.839</ele>
<time>2016-05-16T06:01:31.497Z</time>
</trkpt>
<trkpt lat="-27.4160487" lon="152.8310862">
<ele>397.494</ele>
<time>2016-05-16T06:01:34.264Z</time>
</trkpt>
<trkpt lat="-27.4161894" lon="152.8314065">
<ele>401.781</ele>
<time>2016-05-16T06:01:35.947Z</time>
</trkpt>
<trkpt lat="-27.4164283" lon="152.8319596">
<ele>404.700</ele>
<time>2016-05-16T06:01:38.686Z</time>
</trkpt>
<trkpt lat="-27.4167105" lon="152.8325882">
<ele>405.828</ele>
<time>2016-05-16T06:01:41.687Z</time>
</trkpt>
<trkpt lat="-27.4169938" lon="152.8332210">
<ele>405.107</ele>
<time>2016-05-16T06:01:44.749Z</time>
</trkpt>
<trkpt lat="-27.4172612" lon="152.8338468">
<ele>402.954</ele>
<time>2016-05-16T06:01:47.898Z</time>
</trkpt>
<trkpt lat="-27.4175156" lon="152.8344175">
<ele>400.775</ele>
<time>2016-05-16T06:01:50.974Z</time>
</trkpt>
<trkpt lat="-27.4177006" lon="152.8349546">
<ele>399.422</ele>
<time>2016-05-16T06:01:53.901Z</time>
</trkpt>
<trkpt lat="-27.4177295" lon="152.8353316">
<ele>397.546</ele>
<time>2016-05-16T06:01:55.826Z</time>
</trkpt>
<trkpt lat="-27.4177679" lon="152.8359096">
<ele>393.796</ele>
<time>2016-05-16T06:01:58.719Z</time>
</trkpt>
<trkpt lat="-27.4178951" lon="152.8362987">
<ele>388.672</ele>
<time>2016-05-16T06:02:00.859Z</time>
</trkpt>
<trkpt lat="-27.4180249" lon="152.8366427">
<ele>383.577</ele>
<time>2016-05-16T06:02:02.796Z</time>
</trkpt>
<trkpt lat="-27.4180739" lon="152.8368275">
<ele>379.157</ele>
<time>2016-05-16T06:02:03.795Z</time>
</trkpt>
<trkpt lat="-27.4182126" lon="152.8376073">
<ele>375.516</ele>
<time>2016-05-16T06:02:07.679Z</time>
</trkpt>
<trkpt lat="-27.4181147" lon="152.8380421">
<ele>371.797</ele>
<time>2016-05-16T06:02:09.772Z</time>
</trkpt>
<trkpt lat="-27.4178825" lon="152.8386277">
<ele>367.457</ele>
<time>2016-05-16T06:02:12.596Z</time>
</trkpt>
<trkpt lat="-27.4177172" lon="152.8390656">
<ele>362.998</ele>
<time>2016-05-16T06:02:14.648Z</time>
</trkpt>
<trkpt lat="-27.4175097" lon="152.8397028">
<ele>359.302</ele>
<time>2016-05-16T06:02:17.564Z</time>
</trkpt>
<trkpt lat="-27.4175106" lon="152.8401556">
<ele>357.043</ele>
<time>2016-05-16T06:02:19.521Z</time>
</trkpt>
<trkpt lat="-27.4174523" lon="152.8408114">
<ele>356.494</ele>
<time>2016-05-16T06:02:22.351Z</time>
</trkpt>
<trkpt lat="-27.4174132" lon="152.8410553">
<ele>357.377</ele>
<time>2016-05-16T06:02:23.401Z</time>
</trkpt>
<trkpt lat="-27.4171682" lon="152.8419826">
<ele>359.177</ele>
<time>2016-05-16T06:02:27.596Z</time>
</trkpt>
<trkpt lat="-27.4170772" lon="152.8424093">
<ele>360.941</ele>
<time>2016-05-16T06:02:29.630Z</time>
</trkpt>
<trkpt lat="-27.4170686" lon="152.8428210">
<ele>362.119</ele>
<time>2016-05-16T06:02:31.556Z</time>
</trkpt>
<trkpt lat="-27.4172053" lon="152.8434322">
<ele>363.096</ele>
<time>2016-05-16T06:02:34.465Z</time>
</trkpt>
<trkpt lat="-27.4174028" lon="152.8438022">
<ele>365.095</ele>
<time>2016-05-16T06:02:36.413Z</time>
</trkpt>
<trkpt lat="-27.4177626" lon="152.8443244">
<ele>368.501</ele>
<time>2016-05-16T06:02:39.311Z</time>
</trkpt>
<trkpt lat="-27.4180271" lon="152.8446796">
<ele>371.693</ele>
<time>2016-05-16T06:02:41.328Z</time>
</trkpt>
<trkpt lat="-27.4184251" lon="152.8451643">
<ele>373.223</ele>
<time>2016-05-16T06:02:44.161Z</time>
</trkpt>
<trkpt lat="-27.4187041" lon="152.8457371">
<ele>372.529</ele>
<time>2016-05-16T06:02:46.995Z</time>
</trkpt>
<trkpt lat="-27.4187858" lon="152.8459535">
<ele>369.224</ele>
<time>2016-05-16T06:02:48.024Z</time>
</trkpt>
<trkpt lat="-27.4191581" lon="152.8467485">
<ele>364.720</ele>
<time>2016-05-16T06:02:52.098Z</time>
</trkpt>
<trkpt lat="-27.4192856" lon="152.8471076">
<ele>361.591</ele>
<time>2016-05-16T06:02:53.935Z</time>
</trkpt>
<trkpt lat="-27.4195214" lon="152.8476650">
<ele>360.845</ele>
<time>2016-05-16T06:02:56.909Z</time>
</trkpt>
<trkpt lat="-27.4197087" lon="152.8480204">
<ele>361.784</ele>
<time>2016-05-16T06:02:58.849Z</time>
</trkpt>
<trkpt lat="-27.4199284" lon="152.8483904">
<ele>363.306</ele>
<time>2016-05-16T06:03:00.924Z</time>
</trkpt>
<trkpt lat="-27.4201578" lon="152.8487478">
<ele>364.884</ele>
<time>2016-05-16T06:03:02.995Z</time>
</trkpt>
<trkpt lat="-27.4204373" lon="152.8492217">
<ele>366.918</ele>
<time>2016-05-16T06:03:05.962Z</time>
</trkpt>
<trkpt lat="-27.4207158" lon="152.8496485">
<ele>370.050</ele>
<time>2016-05-16T06:03:09.176Z</time>
</trkpt>
<trkpt lat="-27.4208887" lon="152.8499000">
<ele>373.703</ele>
<time>2016-05-16T06:03:11.203Z</time>
</trkpt>
<trkpt lat="-27.4209943" lon="152.8503370">
<ele>376.304</ele>
<time>2016-05-16T06:03:14.027Z</time>
</trkpt>
<trkpt lat="-27.4208533" lon="152.8506489">
<ele>377.376</ele>
<time>2016-05-16T06:03:16.056Z</time>
</trkpt>
<trkpt lat="-27.4207799" lon="152.8510128">
<ele>378.018</ele>
<time>2016-05-16T06:03:18.071Z</time>
</trkpt>
<trkpt lat="-27.4205751" lon="152.8515263">
<ele>379.038</ele>
<time>2016-05-16T06:03:20.899Z</time>
</trkpt>
<trkpt lat="-27.4204676" lon="152.8519222">
<ele>380.689</ele>
<time>2016-05-16T06:03:22.871Z</time>
</trkpt>
<trkpt lat="-27.4203628" lon="152.8523260">
<ele>382.736</ele>
<time>2016-05-16T06:03:24.843Z</time>
</trkpt>
<trkpt lat="-27.4202688" lon="152.8529624">
<ele>384.335</ele>
<time>2016-05-16T06:03:28.062Z</time>
</trkpt>
<trkpt lat="-27.4202367" lon="152.8533326">
<ele>384.479</ele>
<time>2016-05-16T06:03:30.014Z</time>
</trkpt>
<trkpt lat="-27.4202992" lon="152.8537066">
<ele>382.979</ele>
<time>2016-05-16T06:03:31.996Z</time>
</trkpt>
<trkpt lat="-27.4203688" lon="152.8540919">
<ele>380.663</ele>
<time>2016-05-16T06:03:34.019Z</time>
</trkpt>
<trkpt lat="-27.4203826" lon="152.8546837">
<ele>378.705</ele>
<time>2016-05-16T06:03:37.041Z</time>
</trkpt>
<trkpt lat="-27.4204055" lon="152.8548753">
<ele>376.932</ele>
<time>2016-05-16T06:03:38.022Z</time>
</trkpt>
<trkpt lat="-27.4205222" lon="152.8556365">
<ele>374.660</ele>
<time>2016-05-16T06:03:41.854Z</time>
</trkpt>
<trkpt lat="-27.4205882" lon="152.8562156">
<ele>371.178</ele>
<time>2016-05-16T06:03:44.645Z</time>
</trkpt>
<trkpt lat="-27.4206453" lon="152.8568442">
<ele>366.041</ele>
<time>2016-05-16T06:03:47.765Z</time>
</trkpt>
<trkpt lat="-27.4205794" lon="152.8573835">
<ele>360.631</ele>
<time>2016-05-16T06:03:50.740Z</time>
</trkpt>
<trkpt lat="-27.4206199" lon="152.8577570">
<ele>357.094</ele>
<time>2016-05-16T06:03:52.916Z</time>
</trkpt>
<trkpt lat="-27.4206683" lon="152.8581053">
<ele>355.603</ele>
<time>2016-05-16T06:03:54.970Z</time>
</trkpt>
<trkpt lat="-27.4208030" lon="152.8584334">
<ele>355.084</ele>
<time>2016-05-16T06:03:57.073Z</time>
</trkpt>
<trkpt lat="-27.4209646" lon="152.8588977">
<ele>354.269</ele>
<time>2016-05-16T06:04:00.120Z</time>
</trkpt>
<trkpt lat="-27.4209908" lon="152.8592032">
<ele>351.893</ele>
<time>2016-05-16T06:04:02.039Z</time>
</trkpt>
<trkpt lat="-27.4210925" lon="152.8596531">
<ele>347.852</ele>
<time>2016-05-16T06:04:04.630Z</time>
</trkpt>
<trkpt lat="-27.4212181" lon="152.8600483">
<ele>343.879</ele>
<time>2016-05-16T06:04:06.714Z</time>
</trkpt>
<trkpt lat="-27.4213553" lon="152.8604486">
<ele>342.708</ele>
<time>2016-05-16T06:04:08.825Z</time>
</trkpt>
<trkpt lat="-27.4214811" lon="152.8607590">
<ele>344.900</ele>
<time>2016-05-16T06:04:10.602Z</time>
</trkpt>
<trkpt lat="-27.4216155" lon="152.8611468">
<ele>347.905</ele>
<time>2016-05-16T06:04:13.194Z</time>
</trkpt>
<trkpt lat="-27.4216461" lon="152.8613982">
<ele>349.408</ele>
<time>2016-05-16T06:04:15.012Z</time>
</trkpt>
<trkpt lat="-27.4216424" lon="152.8616565">
<ele>349.494</ele>
<time>2016-05-16T06:04:16.882Z</time>
</trkpt>
<trkpt lat="-27.4214848" lon="152.8620978">
<ele>349.163</ele>
<time>2016-05-16T06:04:19.789Z</time>
</trkpt>
<trkpt lat="-27.4213955" lon="152.8624408">
<ele>349.220</ele>
<time>2016-05-16T06:04:21.807Z</time>
</trkpt>
<trkpt lat="-27.4212497" lon="152.8629650">
<ele>349.684</ele>
<time>2016-05-16T06:04:24.696Z</time>
</trkpt>
<trkpt lat="-27.4211226" lon="152.8633346">
<ele>349.940</ele>
<time>2016-05-16T06:04:26.751Z</time>
</trkpt>
<trkpt lat="-27.4210280" lon="152.8637006">
<ele>349.625</ele>
<time>2016-05-16T06:04:28.914Z</time>
</trkpt>
<trkpt lat="-27.4210130" lon="152.8640508">
<ele>349.074</ele>
<time>2016-05-16T06:04:31.102Z</time>
</trkpt>
<trkpt lat="-27.4207861" lon="152.8643815">
<ele>348.719</ele>
<time>2016-05-16T06:04:33.917Z</time>
</trkpt>
<trkpt lat="-27.4205872" lon="152.8645781">
<ele>348.589</ele>
<time>2016-05-16T06:04:35.871Z</time>
</trkpt>
<trkpt lat="-27.4203640" lon="152.8647668">
<ele>348.492</ele>
<time>2016-05-16T06:04:38.079Z</time>
</trkpt>
<trkpt lat="-27.4201508" lon="152.8649084">
<ele>348.019</ele>
<time>2016-05-16T06:04:40.220Z</time>
</trkpt>
<trkpt lat="-27.4199051" lon="152.8651485">
<ele>346.923</ele>
<time>2016-05-16T06:04:43.507Z</time>
</trkpt>
<trkpt lat="-27.4198184" lon="152.8654591">
<ele>345.004</ele>
<time>2016-05-16T06:04:46.464Z</time>
</trkpt>
<trkpt lat="-27.4199721" lon="152.8657739">
<ele>341.553</ele>
<time>2016-05-16T06:04:49.561Z</time>
</trkpt>
<trkpt lat="-27.4201074" lon="152.8660963">
<ele>336.708</ele>
<time>2016-05-16T06:04:52.143Z</time>
</trkpt>
<trkpt lat="-27.4200316" lon="152.8664240">
<ele>332.049</ele>
<time>2016-05-16T06:04:54.268Z</time>
</trkpt>
<trkpt lat="-27.4197395" lon="152.8668729">
<ele>328.669</ele>
<time>2016-05-16T06:04:57.214Z</time>
</trkpt>
<trkpt lat="-27.4195174" lon="152.8672070">
<ele>326.233</ele>
<time>2016-05-16T06:04:59.298Z</time>
</trkpt>
<trkpt lat="-27.4189893" lon="152.8677017">
<ele>323.828</ele>
<time>2016-05-16T06:05:03.370Z</time>
</trkpt>
<trkpt lat="-27.4187608" lon="152.8679359">
<ele>320.825</ele>
<time>2016-05-16T06:05:05.342Z</time>
</trkpt>
<trkpt lat="-27.4184040" lon="152.8682119">
<ele>317.765</ele>
<time>2016-05-16T06:05:08.175Z</time>
</trkpt>
<trkpt lat="-27.4181471" lon="152.8684137">
<ele>315.777</ele>
<time>2016-05-16T06:05:10.097Z</time>
</trkpt>
<trkpt lat="-27.4179366" lon="152.8686809">
<ele>315.169</ele>
<time>2016-05-16T06:05:11.979Z</time>
</trkpt>
<trkpt lat="-27.4177092" lon="152.8692256">
<ele>315.338</ele>
<time>2016-05-16T06:05:14.907Z</time>
</trkpt>
<trkpt lat="-27.4176395" lon="152.8698483">
<ele>315.677</ele>
<time>2016-05-16T06:05:17.944Z</time>
</trkpt>
<trkpt lat="-27.4175970" lon="152.8704457">
<ele>315.787</ele>
<time>2016-05-16T06:05:20.877Z</time>
</trkpt>
<trkpt lat="-27.4175914" lon="152.8708503">
<ele>315.207</ele>
<time>2016-05-16T06:05:22.853Z</time>
</trkpt>
<trkpt lat="-27.4176159" lon="152.8714608">
<ele>313.919</ele>
<time>2016-05-16T06:05:25.981Z</time>
</trkpt>
<trkpt lat="-27.4176814" lon="152.8720006">
<ele>312.706</ele>
<time>2016-05-16T06:05:29.074Z</time>
</trkpt>
<trkpt lat="-27.4177670" lon="152.8724885">
<ele>311.653</ele>
<time>2016-05-16T06:05:32.004Z</time>
</trkpt>
<trkpt lat="-27.4180378" lon="152.8729610">
<ele>310.205</ele>
<time>2016-05-16T06:05:34.922Z</time>
</trkpt>
<trkpt lat="-27.4182876" lon="152.8733008">
<ele>308.654</ele>
<time>2016-05-16T06:05:36.988Z</time>
</trkpt>
<trkpt lat="-27.4185676" lon="152.8736266">
<ele>307.465</ele>
<time>2016-05-16T06:05:39.053Z</time>
</trkpt>
<trkpt lat="-27.4189762" lon="152.8741094">
<ele>306.256</ele>
<time>2016-05-16T06:05:42.153Z</time>
</trkpt>
<trkpt lat="-27.4191967" lon="152.8744299">
<ele>304.288</ele>
<time>2016-05-16T06:05:44.067Z</time>
</trkpt>
<trkpt lat="-27.4194117" lon="152.8750057">
<ele>301.715</ele>
<time>2016-05-16T06:05:46.987Z</time>
</trkpt>
<trkpt lat="-27.4194946" lon="152.8754339">
<ele>299.718</ele>
<time>2016-05-16T06:05:49.060Z</time>
</trkpt>
<trkpt lat="-27.4196664" lon="152.8760064">
<ele>299.013</ele>
<time>2016-05-16T06:05:52.279Z</time>
</trkpt>
<trkpt lat="-27.4198457" lon="152.8763021">
<ele>299.495</ele>
<time>2016-05-16T06:05:54.434Z</time>
</trkpt>
<trkpt lat="-27.4200307" lon="152.8765274">
<ele>300.817</ele>
<time>2016-05-16T06:05:56.375Z</time>
</trkpt>
<trkpt lat="-27.4202606" lon="152.8769366">
<ele>302.538</ele>
<time>2016-05-16T06:05:59.701Z</time>
</trkpt>
<trkpt lat="-27.4204491" lon="152.8771207">
<ele>304.556</ele>
<time>2016-05-16T06:06:01.589Z</time>
</trkpt>
<trkpt lat="-27.4207059" lon="152.8772109">
<ele>306.643</ele>
<time>2016-05-16T06:06:03.506Z</time>
</trkpt>
<trkpt lat="-27.4209908" lon="152.8772594">
<ele>308.042</ele>
<time>2016-05-16T06:06:05.327Z</time>
</trkpt>
<trkpt lat="-27.4213258" lon="152.8772179">
<ele>308.436</ele>
<time>2016-05-16T06:06:07.343Z</time>
</trkpt>
<trkpt lat="-27.4218274" lon="152.8769554">
<ele>308.515</ele>
<time>2016-05-16T06:06:10.375Z</time>
</trkpt>
<trkpt lat="-27.4221294" lon="152.8767425">
<ele>308.880</ele>
<time>2016-05-16T06:06:12.333Z</time>
</trkpt>
<trkpt lat="-27.4225642" lon="152.8763452">
<ele>309.438</ele>
<time>2016-05-16T06:06:15.650Z</time>
</trkpt>
<trkpt lat="-27.4228622" lon="152.8761800">
<ele>310.416</ele>
<time>2016-05-16T06:06:17.909Z</time>
</trkpt>
<trkpt lat="-27.4231131" lon="152.8759763">
<ele>312.389</ele>
<time>2016-05-16T06:06:20.092Z</time>
</trkpt>
<trkpt lat="-27.4233961" lon="152.8756794">
<ele>314.835</ele>
<time>2016-05-16T06:06:22.796Z</time>
</trkpt>
<trkpt lat="-27.4238989" lon="152.8757936">
<ele>316.700</ele>
<time>2016-05-16T06:06:26.028Z</time>
</trkpt>
<trkpt lat="-27.4241855" lon="152.8759855">
<ele>317.578</ele>
<time>2016-05-16T06:06:28.083Z</time>
</trkpt>
<trkpt lat="-27.4244823" lon="152.8763857">
<ele>317.559</ele>
<time>2016-05-16T06:06:31.017Z</time>
</trkpt>
<trkpt lat="-27.4247196" lon="152.8766050">
<ele>316.973</ele>
<time>2016-05-16T06:06:33.079Z</time>
</trkpt>
<trkpt lat="-27.4249535" lon="152.8767996">
<ele>316.122</ele>
<time>2016-05-16T06:06:35.033Z</time>
</trkpt>
<trkpt lat="-27.4254276" lon="152.8768702">
<ele>315.250</ele>
<time>2016-05-16T06:06:38.149Z</time>
</trkpt>
<trkpt lat="-27.4257380" lon="152.8768204">
<ele>314.767</ele>
<time>2016-05-16T06:06:40.073Z</time>
</trkpt>
<trkpt lat="-27.4262974" lon="152.8765023">
<ele>314.802</ele>
<time>2016-05-16T06:06:43.652Z</time>
</trkpt>
<trkpt lat="-27.4266111" lon="152.8764398">
<ele>314.739</ele>
<time>2016-05-16T06:06:45.444Z</time>
</trkpt>
<trkpt lat="-27.4271470" lon="152.8765533">
<ele>314.062</ele>
<time>2016-05-16T06:06:48.545Z</time>
</trkpt>
<trkpt lat="-27.4275710" lon="152.8767990">
<ele>313.169</ele>
<time>2016-05-16T06:06:51.320Z</time>
</trkpt>
<trkpt lat="-27.4278540" lon="152.8770346">
<ele>312.944</ele>
<time>2016-05-16T06:06:53.372Z</time>
</trkpt>
<trkpt lat="-27.4280904" lon="152.8772600">
<ele>313.619</ele>
<time>2016-05-16T06:06:55.181Z</time>
</trkpt>
<trkpt lat="-27.4285105" lon="152.8776190">
<ele>314.548</ele>
<time>2016-05-16T06:06:58.341Z</time>
</trkpt>
<trkpt lat="-27.4288417" lon="152.8779717">
<ele>315.090</ele>
<time>2016-05-16T06:07:01.345Z</time>
</trkpt>
<trkpt lat="-27.4289849" lon="152.8782378">
<ele>314.806</ele>
<time>2016-05-16T06:07:03.195Z</time>
</trkpt>
<trkpt lat="-27.4291075" lon="152.8787382">
<ele>313.331</ele>
<time>2016-05-16T06:07:06.117Z</time>
</trkpt>
<trkpt lat="-27.4292026" lon="152.8790935">
<ele>310.817</ele>
<time>2016-05-16T06:07:08.146Z</time>
</trkpt>
<trkpt lat="-27.4293296" lon="152.8793966">
<ele>308.018</ele>
<time>2016-05-16T06:07:09.954Z</time>
</trkpt>
<trkpt lat="-27.4295353" lon="152.8796995">
<ele>305.799</ele>
<time>2016-05-16T06:07:12.021Z</time>
</trkpt>
<trkpt lat="-27.4296702" lon="152.8799578">
<ele>304.306</ele>
<time>2016-05-16T06:07:13.658Z</time>
</trkpt>
<trkpt lat="-27.4298798" lon="152.8804652">
<ele>302.161</ele>
<time>2016-05-16T06:07:16.570Z</time>
</trkpt>
<trkpt lat="-27.4299490" lon="152.8810366">
<ele>298.496</ele>
<time>2016-05-16T06:07:19.421Z</time>
</trkpt>
<trkpt lat="-27.4299119" lon="152.8814222">
<ele>294.478</ele>
<time>2016-05-16T06:07:21.233Z</time>
</trkpt>
<trkpt lat="-27.4298645" lon="152.8821021">
<ele>291.560</ele>
<time>2016-05-16T06:07:24.310Z</time>
</trkpt>
<trkpt lat="-27.4298344" lon="152.8827493">
<ele>289.707</ele>
<time>2016-05-16T06:07:27.320Z</time>
</trkpt>
<trkpt lat="-27.4298125" lon="152.8831299">
<ele>288.375</ele>
<time>2016-05-16T06:07:29.176Z</time>
</trkpt>
<trkpt lat="-27.4298373" lon="152.8835388">
<ele>287.440</ele>
<time>2016-05-16T06:07:31.196Z</time>
</trkpt>
<trkpt lat="-27.4299067" lon="152.8839154">
<ele>286.903</ele>
<time>2016-05-16T06:07:33.168Z</time>
</trkpt>
<trkpt lat="-27.4299004" lon="152.8842759">
<ele>286.519</ele>
<time>2016-05-16T06:07:35.109Z</time>
</trkpt>
<trkpt lat="-27.4298797" lon="152.8848296">
<ele>285.831</ele>
<time>2016-05-16T06:07:38.181Z</time>
</trkpt>
<trkpt lat="-27.4298828" lon="152.8851420">
<ele>284.040</ele>
<time>2016-05-16T06:07:39.871Z</time>
</trkpt>
<trkpt lat="-27.4299373" lon="152.8855536">
<ele>280.931</ele>
<time>2016-05-16T06:07:42.004Z</time>
</trkpt>
<trkpt lat="-27.4300339" lon="152.8861461">
<ele>277.552</ele>
<time>2016-05-16T06:07:45.111Z</time>
</trkpt>
<trkpt lat="-27.4302099" lon="152.8866438">
<ele>275.119</ele>
<time>2016-05-16T06:07:47.809Z</time>
</trkpt>
<trkpt lat="-27.4304386" lon="152.8870068">
<ele>273.509</ele>
<time>2016-05-16T06:07:49.872Z</time>
</trkpt>
<trkpt lat="-27.4306587" lon="152.8873861">
<ele>271.755</ele>
<time>2016-05-16T06:07:51.852Z</time>
</trkpt>
<trkpt lat="-27.4310148" lon="152.8879631">
<ele>269.896</ele>
<time>2016-05-16T06:07:54.832Z</time>
</trkpt>
<trkpt lat="-27.4313796" lon="152.8885315">
<ele>268.605</ele>
<time>2016-05-16T06:07:57.779Z</time>
</trkpt>
<trkpt lat="-27.4316060" lon="152.8889048">
<ele>267.993</ele>
<time>2016-05-16T06:07:59.806Z</time>
</trkpt>
<trkpt lat="-27.4319571" lon="152.8893567">
<ele>267.907</ele>
<time>2016-05-16T06:08:02.602Z</time>
</trkpt>
<trkpt lat="-27.4322191" lon="152.8896642">
<ele>268.104</ele>
<time>2016-05-16T06:08:04.665Z</time>
</trkpt>
<trkpt lat="-27.4325346" lon="152.8901209">
<ele>268.078</ele>
<time>2016-05-16T06:08:07.506Z</time>
</trkpt>
<trkpt lat="-27.4326654" lon="152.8905108">
<ele>266.996</ele>
<time>2016-05-16T06:08:09.548Z</time>
</trkpt>
<trkpt lat="-27.4327823" lon="152.8908963">
<ele>264.802</ele>
<time>2016-05-16T06:08:11.503Z</time>
</trkpt>
<trkpt lat="-27.4328280" lon="152.8913167">
<ele>262.593</ele>
<time>2016-05-16T06:08:13.508Z</time>
</trkpt>
<trkpt lat="-27.4327506" lon="152.8919415">
<ele>261.116</ele>
<time>2016-05-16T06:08:16.509Z</time>
</trkpt>
<trkpt lat="-27.4326848" lon="152.8923344">
<ele>259.564</ele>
<time>2016-05-16T06:08:18.508Z</time>
</trkpt>
<trkpt lat="-27.4325040" lon="152.8928536">
<ele>256.603</ele>
<time>2016-05-16T06:08:21.388Z</time>
</trkpt>
<trkpt lat="-27.4322819" lon="152.8931709">
<ele>252.194</ele>
<time>2016-05-16T06:08:23.732Z</time>
</trkpt>
<trkpt lat="-27.4319885" lon="152.8933393">
<ele>247.611</ele>
<time>2016-05-16T06:08:26.164Z</time>
</trkpt>
<trkpt lat="-27.4318550" lon="152.8935632">
<ele>243.465</ele>
<time>2016-05-16T06:08:28.082Z</time>
</trkpt>
<trkpt lat="-27.4317990" lon="152.8940171">
<ele>239.614</ele>
<time>2016-05-16T06:08:31.025Z</time>
</trkpt>
<trkpt lat="-27.4317444" lon="152.8945440">
<ele>236.035</ele>
<time>2016-05-16T06:08:33.557Z</time>
</trkpt>
<trkpt lat="-27.4316009" lon="152.8952878">
<ele>232.927</ele>
<time>2016-05-16T06:08:36.778Z</time>
</trkpt>
<trkpt lat="-27.4315140" lon="152.8957229">
<ele>229.935</ele>
<time>2016-05-16T06:08:38.658Z</time>
</trkpt>
<trkpt lat="-27.4314288" lon="152.8963883">
<ele>226.887</ele>
<time>2016-05-16T06:08:41.584Z</time>
</trkpt>
<trkpt lat="-27.4314345" lon="152.8967752">
<ele>224.609</ele>
<time>2016-05-16T06:08:43.468Z</time>
</trkpt>
<trkpt lat="-27.4313985" lon="152.8971193">
<ele>223.812</ele>
<time>2016-05-16T06:08:45.318Z</time>
</trkpt>
<trkpt lat="-27.4316929" lon="152.8975816">
<ele>224.162</ele>
<time>2016-05-16T06:08:48.419Z</time>
</trkpt>
<trkpt lat="-27.4318542" lon="152.8979132">
<ele>224.838</ele>
<time>2016-05-16T06:08:50.470Z</time>
</trkpt>
<trkpt lat="-27.4320724" lon="152.8983527">
<ele>225.077</ele>
<time>2016-05-16T06:08:53.249Z</time>
</trkpt>
<trkpt lat="-27.4322600" lon="152.8986327">
<ele>224.791</ele>
<time>2016-05-16T06:08:55.248Z</time>
</trkpt>
<trkpt lat="-27.4323168" lon="152.8991068">
<ele>224.379</ele>
<time>2016-05-16T06:08:57.990Z</time>
</trkpt>
<trkpt lat="-27.4322876" lon="152.8994823">
<ele>223.535</ele>
<time>2016-05-16T06:09:00.082Z</time>
</trkpt>
<trkpt lat="-27.4322356" lon="152.8998781">
<ele>221.931</ele>
<time>2016-05-16T06:09:02.211Z</time>
</trkpt>
<trkpt lat="-27.4321866" lon="152.9002595">
<ele>220.403</ele>
<time>2016-05-16T06:09:04.254Z</time>
</trkpt>
<trkpt lat="-27.4322712" lon="152.9007972">
<ele>219.740</ele>
<time>2016-05-16T06:09:07.248Z</time>
</trkpt>
<trkpt lat="-27.4323490" lon="152.9011115">
<ele>218.857</ele>
<time>2016-05-16T06:09:09.176Z</time>
</trkpt>
<trkpt lat="-27.4324733" lon="152.9014123">
<ele>216.356</ele>
<time>2016-05-16T06:09:11.301Z</time>
</trkpt>
<trkpt lat="-27.4326576" lon="152.9017404">
<ele>212.754</ele>
<time>2016-05-16T06:09:14.050Z</time>
</trkpt>
<trkpt lat="-27.4326320" lon="152.9019808">
<ele>209.498</ele>
<time>2016-05-16T06:09:15.866Z</time>
</trkpt>
<trkpt lat="-27.4323770" lon="152.9024042">
<ele>207.137</ele>
<time>2016-05-16T06:09:19.258Z</time>
</trkpt>
<trkpt lat="-27.4321610" lon="152.9027355">
<ele>204.990</ele>
<time>2016-05-16T06:09:21.849Z</time>
</trkpt>
<trkpt lat="-27.4318963" lon="152.9029603">
<ele>202.157</ele>
<time>2016-05-16T06:09:24.535Z</time>
</trkpt>
<trkpt lat="-27.4316514" lon="152.9030139">
<ele>198.506</ele>
<time>2016-05-16T06:09:26.981Z</time>
</trkpt>
<trkpt lat="-27.4314244" lon="152.9032317">
<ele>194.452</ele>
<time>2016-05-16T06:09:30.019Z</time>
</trkpt>
<trkpt lat="-27.4314950" lon="152.9036281">
<ele>190.479</ele>
<time>2016-05-16T06:09:33.143Z</time>
</trkpt>
<trkpt lat="-27.4315959" lon="152.9039650">
<ele>186.620</ele>
<time>2016-05-16T06:09:35.176Z</time>
</trkpt>
<trkpt lat="-27.4315474" lon="152.9045849">
<ele>182.695</ele>
<time>2016-05-16T06:09:38.416Z</time>
</trkpt>
<trkpt lat="-27.4314648" lon="152.9051891">
<ele>179.225</ele>
<time>2016-05-16T06:09:41.715Z</time>
</trkpt>
<trkpt lat="-27.4314820" lon="152.9054822">
<ele>175.842</ele>
<time>2016-05-16T06:09:43.495Z</time>
</trkpt>
<trkpt lat="-27.4316445" lon="152.9059100">
<ele>171.537</ele>
<time>2016-05-16T06:09:46.375Z</time>
</trkpt>
<trkpt lat="-27.4319667" lon="152.9062520">
<ele>166.689</ele>
<time>2016-05-16T06:09:49.293Z</time>
</trkpt>
<trkpt lat="-27.4321420" lon="152.9065547">
<ele>162.454</ele>
<time>2016-05-16T06:09:51.270Z</time>
</trkpt>
<trkpt lat="-27.4323292" lon="152.9070704">
<ele>159.128</ele>
<time>2016-05-16T06:09:54.391Z</time>
</trkpt>
<trkpt lat="-27.4323986" lon="152.9073676">
<ele>155.950</ele>
<time>2016-05-16T06:09:56.202Z</time>
</trkpt>
<trkpt lat="-27.4326136" lon="152.9078069">
<ele>152.276</ele>
<time>2016-05-16T06:09:59.041Z</time>
</trkpt>
<trkpt lat="-27.4328062" lon="152.9081388">
<ele>148.347</ele>
<time>2016-05-16T06:10:01.045Z</time>
</trkpt>
<trkpt lat="-27.4329364" lon="152.9085396">
<ele>144.658</ele>
<time>2016-05-16T06:10:03.029Z</time>
</trkpt>
<trkpt lat="-27.4330842" lon="152.9091727">
<ele>141.236</ele>
<time>2016-05-16T06:10:05.973Z</time>
</trkpt>
<trkpt lat="-27.4331237" lon="152.9096239">
<ele>137.862</ele>
<time>2016-05-16T06:10:07.954Z</time>
</trkpt>
<trkpt lat="-27.4331266" lon="152.9100471">
<ele>134.815</ele>
<time>2016-05-16T06:10:09.967Z</time>
</trkpt>
<trkpt lat="-27.4330407" lon="152.9105935">
<ele>132.609</ele>
<time>2016-05-16T06:10:12.793Z</time>
</trkpt>
<trkpt lat="-27.4328855" lon="152.9109152">
<ele>130.661</ele>
<time>2016-05-16T06:10:14.712Z</time>
</trkpt>
<trkpt lat="-27.4326876" lon="152.9112564">
<ele>128.431</ele>
<time>2016-05-16T06:10:16.807Z</time>
</trkpt>
<trkpt lat="-27.4325147" lon="152.9115735">
<ele>126.635</ele>
<time>2016-05-16T06:10:18.774Z</time>
</trkpt>
<trkpt lat="-27.4324059" lon="152.9119017">
<ele>125.878</ele>
<time>2016-05-16T06:10:20.656Z</time>
</trkpt>
<trkpt lat="-27.4323548" lon="152.9124695">
<ele>125.903</ele>
<time>2016-05-16T06:10:23.824Z</time>
</trkpt>
<trkpt lat="-27.4323880" lon="152.9127852">
<ele>126.726</ele>
<time>2016-05-16T06:10:25.815Z</time>
</trkpt>
<trkpt lat="-27.4325290" lon="152.9130588">
<ele>128.688</ele>
<time>2016-05-16T06:10:27.635Z</time>
</trkpt>
<trkpt lat="-27.4328740" lon="152.9135199">
<ele>131.383</ele>
<time>2016-05-16T06:10:30.881Z</time>
</trkpt>
<trkpt lat="-27.4331847" lon="152.9139428">
<ele>133.857</ele>
<time>2016-05-16T06:10:33.707Z</time>
</trkpt>
<trkpt lat="-27.4333046" lon="152.9143250">
<ele>135.593</ele>
<time>2016-05-16T06:10:35.728Z</time>
</trkpt>
<trkpt lat="-27.4334211" lon="152.9148906">
<ele>136.475</ele>
<time>2016-05-16T06:10:38.565Z</time>
</trkpt>
<trkpt lat="-27.4334665" lon="152.9155302">
<ele>136.413</ele>
<time>2016-05-16T06:10:41.611Z</time>
</trkpt>
<trkpt lat="-27.4334808" lon="152.9161614">
<ele>134.971</ele>
<time>2016-05-16T06:10:44.589Z</time>
</trkpt>
<trkpt lat="-27.4334215" lon="152.9165485">
<ele>131.934</ele>
<time>2016-05-16T06:10:46.533Z</time>
</trkpt>
<trkpt lat="-27.4332847" lon="152.9168957">
<ele>128.446</ele>
<time>2016-05-16T06:10:48.618Z</time>
</trkpt>
<trkpt lat="-27.4332207" lon="152.9173956">
<ele>125.974</ele>
<time>2016-05-16T06:10:51.617Z</time>
</trkpt>
<trkpt lat="-27.4333079" lon="152.9177043">
<ele>124.509</ele>
<time>2016-05-16T06:10:53.427Z</time>
</trkpt>
<trkpt lat="-27.4336548" lon="152.9182398">
<ele>123.033</ele>
<time>2016-05-16T06:10:56.780Z</time>
</trkpt>
<trkpt lat="-27.4338539" lon="152.9185866">
<ele>121.328</ele>
<time>2016-05-16T06:10:58.756Z</time>
</trkpt>
<trkpt lat="-27.4339942" lon="152.9189554">
<ele>119.954</ele>
<time>2016-05-16T06:11:00.760Z</time>
</trkpt>
<trkpt lat="-27.4339973" lon="152.9195194">
<ele>118.802</ele>
<time>2016-05-16T06:11:03.599Z</time>
</trkpt>
<trkpt lat="-27.4339352" lon="152.9201418">
<ele>117.487</ele>
<time>2016-05-16T06:11:06.817Z</time>
</trkpt>
<trkpt lat="-27.4339964" lon="152.9204766">
<ele>116.307</ele>
<time>2016-05-16T06:11:08.784Z</time>
</trkpt>
<trkpt lat="-27.4341210" lon="152.9209109">
<ele>115.885</ele>
<time>2016-05-16T06:11:11.468Z</time>
</trkpt>
<trkpt lat="-27.4341350" lon="152.9212723">
<ele>116.352</ele>
<time>2016-05-16T06:11:13.602Z</time>
</trkpt>
<trkpt lat="-27.4342893" lon="152.9217506">
<ele>117.535</ele>
<time>2016-05-16T06:11:16.760Z</time>
</trkpt>
<trkpt lat="-27.4344370" lon="152.9219755">
<ele>119.065</ele>
<time>2016-05-16T06:11:18.747Z</time>
</trkpt>
<trkpt lat="-27.4346723" lon="152.9221320">
<ele>120.202</ele>
<time>2016-05-16T06:11:21.169Z</time>
</trkpt>
<trkpt lat="-27.4349874" lon="152.9223356">
<ele>120.515</ele>
<time>2016-05-16T06:11:24.751Z</time>
</trkpt>
<trkpt lat="-27.4350662" lon="152.9225920">
<ele>120.452</ele>
<time>2016-05-16T06:11:27.244Z</time>
</trkpt>
<trkpt lat="-27.4349569" lon="152.9227614">
<ele>120.855</ele>
<time>2016-05-16T06:11:29.012Z</time>
</trkpt>
<trkpt lat="-27.4347240" lon="152.9229393">
<ele>122.507</ele>
<time>2016-05-16T06:11:31.408Z</time>
</trkpt>
<trkpt lat="-27.4344781" lon="152.9231842">
<ele>125.497</ele>
<time>2016-05-16T06:11:34.163Z</time>
</trkpt>
<trkpt lat="-27.4344512" lon="152.9235300">
<ele>129.157</ele>
<time>2016-05-16T06:11:36.600Z</time>
</trkpt>
<trkpt lat="-27.4345139" lon="152.9239709">
<ele>132.663</ele>
<time>2016-05-16T06:11:39.559Z</time>
</trkpt>
<trkpt lat="-27.4346100" lon="152.9242968">
<ele>135.380</ele>
<time>2016-05-16T06:11:41.770Z</time>
</trkpt>
<trkpt lat="-27.4349260" lon="152.9246619">
<ele>136.969</ele>
<time>2016-05-16T06:11:44.603Z</time>
</trkpt>
<trkpt lat="-27.4352102" lon="152.9249161">
<ele>137.469</ele>
<time>2016-05-16T06:11:46.684Z</time>
</trkpt>
<trkpt lat="-27.4356567" lon="152.9252304">
<ele>136.995</ele>
<time>2016-05-16T06:11:49.527Z</time>
</trkpt>
<trkpt lat="-27.4362298" lon="152.9254419">
<ele>135.905</ele>
<time>2016-05-16T06:11:52.514Z</time>
</trkpt>
<trkpt lat="-27.4366322" lon="152.9255826">
<ele>134.978</ele>
<time>2016-05-16T06:11:54.536Z</time>
</trkpt>
<trkpt lat="-27.4370362" lon="152.9257342">
<ele>134.686</ele>
<time>2016-05-16T06:11:56.659Z</time>
</trkpt>
<trkpt lat="-27.4374847" lon="152.9260233">
<ele>134.802</ele>
<time>2016-05-16T06:11:59.443Z</time>
</trkpt>
<trkpt lat="-27.4379229" lon="152.9263529">
<ele>134.733</ele>
<time>2016-05-16T06:12:02.662Z</time>
</trkpt>
<trkpt lat="-27.4381420" lon="152.9265203">
<ele>134.063</ele>
<time>2016-05-16T06:12:04.612Z</time>
</trkpt>
<trkpt lat="-27.4384760" lon="152.9266021">
<ele>132.553</ele>
<time>2016-05-16T06:12:07.370Z</time>
</trkpt>
<trkpt lat="-27.4387329" lon="152.9265344">
<ele>130.346</ele>
<time>2016-05-16T06:12:09.200Z</time>
</trkpt>
<trkpt lat="-27.4391973" lon="152.9264681">
<ele>127.681</ele>
<time>2016-05-16T06:12:12.093Z</time>
</trkpt>
<trkpt lat="-27.4395414" lon="152.9264769">
<ele>124.368</ele>
<time>2016-05-16T06:12:14.105Z</time>
</trkpt>
<trkpt lat="-27.4398553" lon="152.9265702">
<ele>120.859</ele>
<time>2016-05-16T06:12:16.090Z</time>
</trkpt>
<trkpt lat="-27.4400739" lon="152.9267743">
<ele>118.213</ele>
<time>2016-05-16T06:12:17.907Z</time>
</trkpt>
<trkpt lat="-27.4402677" lon="152.9269468">
<ele>116.024</ele>
<time>2016-05-16T06:12:19.512Z</time>
</trkpt>
<trkpt lat="-27.4405951" lon="152.9272650">
<ele>112.898</ele>
<time>2016-05-16T06:12:22.403Z</time>
</trkpt>
<trkpt lat="-27.4409888" lon="152.9273472">
<ele>108.849</ele>
<time>2016-05-16T06:12:25.270Z</time>
</trkpt>
<trkpt lat="-27.4412129" lon="152.9274326">
<ele>105.432</ele>
<time>2016-05-16T06:12:27.216Z</time>
</trkpt>
<trkpt lat="-27.4415264" lon="152.9274359">
<ele>103.683</ele>
<time>2016-05-16T06:12:30.079Z</time>
</trkpt>
<trkpt lat="-27.4418290" lon="152.9274934">
<ele>103.322</ele>
<time>2016-05-16T06:12:33.131Z</time>
</trkpt>
<trkpt lat="-27.4421200" lon="152.9276087">
<ele>103.661</ele>
<time>2016-05-16T06:12:36.121Z</time>
</trkpt>
<trkpt lat="-27.4423118" lon="152.9277177">
<ele>103.811</ele>
<time>2016-05-16T06:12:38.115Z</time>
</trkpt>
<trkpt lat="-27.4424913" lon="152.9278445">
<ele>102.816</ele>
<time>2016-05-16T06:12:40.149Z</time>
</trkpt>
<trkpt lat="-27.4426335" lon="152.9279491">
<ele>100.538</ele>
<time>2016-05-16T06:12:42.041Z</time>
</trkpt>
<trkpt lat="-27.4428135" lon="152.9280566">
<ele>97.979</ele>
<time>2016-05-16T06:12:44.844Z</time>
</trkpt>
<trkpt lat="-27.4429147" lon="152.9281201">
<ele>96.030</ele>
<time>2016-05-16T06:12:47.000Z</time>
</trkpt>
<trkpt lat="-27.4429147" lon="152.9281201">
<ele>94.844</ele>
<time>2016-05-16T06:12:52.000Z</time>
</trkpt>
<trkpt lat="-27.4429147" lon="152.9281201">
<ele>94.363</ele>
<time>2016-05-16T06:13:20.243Z</time>
</trkpt>
<trkpt lat="-27.4430628" lon="152.9282581">
<ele>94.558</ele>
<time>2016-05-16T06:13:28.011Z</time>
</trkpt>
<trkpt lat="-27.4431860" lon="152.9282866">
<ele>95.482</ele>
<time>2016-05-16T06:13:29.803Z</time>
</trkpt>
<trkpt lat="-27.4433828" lon="152.9283476">
<ele>96.852</ele>
<time>2016-05-16T06:13:32.451Z</time>
</trkpt>
<trkpt lat="-27.4435964" lon="152.9284229">
<ele>96.931</ele>
<time>2016-05-16T06:13:35.074Z</time>
</trkpt>
<trkpt lat="-27.4438651" lon="152.9285002">
<ele>93.564</ele>
<time>2016-05-16T06:13:38.146Z</time>
</trkpt>
<trkpt lat="-27.4440464" lon="152.9285797">
<ele>87.263</ele>
<time>2016-05-16T06:13:40.225Z</time>
</trkpt>
<trkpt lat="-27.4442198" lon="152.9287284">
<ele>81.064</ele>
<time>2016-05-16T06:13:42.476Z</time>
</trkpt>
<trkpt lat="-27.4444698" lon="152.9290720">
<ele>76.875</ele>
<time>2016-05-16T06:13:46.024Z</time>
</trkpt>
<trkpt lat="-27.4446193" lon="152.9293099">
<ele>74.494</ele>
<time>2016-05-16T06:13:47.994Z</time>
</trkpt>
<trkpt lat="-27.4447756" lon="152.9295740">
<ele>73.315</ele>
<time>2016-05-16T06:13:49.953Z</time>
</trkpt>
<trkpt lat="-27.4450383" lon="152.9300030">
<ele>72.632</ele>
<time>2016-05-16T06:13:53.027Z</time>
</trkpt>
<trkpt lat="-27.4452817" lon="152.9304407">
<ele>71.855</ele>
<time>2016-05-16T06:13:56.070Z</time>
</trkpt>
<trkpt lat="-27.4454354" lon="152.9307145">
<ele>71.039</ele>
<time>2016-05-16T06:13:58.028Z</time>
</trkpt>
<trkpt lat="-27.4456074" lon="152.9311578">
<ele>70.364</ele>
<time>2016-05-16T06:14:00.940Z</time>
</trkpt>
<trkpt lat="-27.4456700" lon="152.9315057">
<ele>69.681</ele>
<time>2016-05-16T06:14:03.018Z</time>
</trkpt>
<trkpt lat="-27.4456729" lon="152.9318361">
<ele>68.948</ele>
<time>2016-05-16T06:14:04.900Z</time>
</trkpt>
<trkpt lat="-27.4455939" lon="152.9323804">
<ele>68.393</ele>
<time>2016-05-16T06:14:07.991Z</time>
</trkpt>
<trkpt lat="-27.4455119" lon="152.9326907">
<ele>68.784</ele>
<time>2016-05-16T06:14:09.820Z</time>
</trkpt>
<trkpt lat="-27.4453848" lon="152.9331840">
<ele>70.541</ele>
<time>2016-05-16T06:14:12.760Z</time>
</trkpt>
<trkpt lat="-27.4453038" lon="152.9334985">
<ele>73.140</ele>
<time>2016-05-16T06:14:14.632Z</time>
</trkpt>
<trkpt lat="-27.4452267" lon="152.9338423">
<ele>76.098</ele>
<time>2016-05-16T06:14:16.644Z</time>
</trkpt>
<trkpt lat="-27.4451062" lon="152.9343569">
<ele>79.422</ele>
<time>2016-05-16T06:14:19.692Z</time>
</trkpt>
<trkpt lat="-27.4450018" lon="152.9346677">
<ele>82.449</ele>
<time>2016-05-16T06:14:21.642Z</time>
</trkpt>
<trkpt lat="-27.4448628" lon="152.9351437">
<ele>84.205</ele>
<time>2016-05-16T06:14:24.612Z</time>
</trkpt>
<trkpt lat="-27.4447494" lon="152.9354699">
<ele>84.243</ele>
<time>2016-05-16T06:14:26.694Z</time>
</trkpt>
<trkpt lat="-27.4446279" lon="152.9357773">
<ele>82.408</ele>
<time>2016-05-16T06:14:28.719Z</time>
</trkpt>
<trkpt lat="-27.4444816" lon="152.9362410">
<ele>78.943</ele>
<time>2016-05-16T06:14:31.748Z</time>
</trkpt>
<trkpt lat="-27.4442893" lon="152.9366741">
<ele>74.827</ele>
<time>2016-05-16T06:14:34.751Z</time>
</trkpt>
<trkpt lat="-27.4439786" lon="152.9370224">
<ele>71.175</ele>
<time>2016-05-16T06:14:37.805Z</time>
</trkpt>
<trkpt lat="-27.4437350" lon="152.9371794">
<ele>68.702</ele>
<time>2016-05-16T06:14:39.774Z</time>
</trkpt>
<trkpt lat="-27.4433719" lon="152.9373807">
<ele>67.500</ele>
<time>2016-05-16T06:14:42.652Z</time>
</trkpt>
<trkpt lat="-27.4430157" lon="152.9376343">
<ele>67.127</ele>
<time>2016-05-16T06:14:45.689Z</time>
</trkpt>
<trkpt lat="-27.4427863" lon="152.9378472">
<ele>66.909</ele>
<time>2016-05-16T06:14:47.802Z</time>
</trkpt>
<trkpt lat="-27.4425685" lon="152.9380620">
<ele>66.262</ele>
<time>2016-05-16T06:14:49.833Z</time>
</trkpt>
<trkpt lat="-27.4423546" lon="152.9382694">
<ele>64.938</ele>
<time>2016-05-16T06:14:51.808Z</time>
</trkpt>
<trkpt lat="-27.4420993" lon="152.9386617">
<ele>63.121</ele>
<time>2016-05-16T06:14:54.830Z</time>
</trkpt>
<trkpt lat="-27.4419829" lon="152.9389534">
<ele>61.149</ele>
<time>2016-05-16T06:14:56.812Z</time>
</trkpt>
<trkpt lat="-27.4419595" lon="152.9394358">
<ele>59.281</ele>
<time>2016-05-16T06:14:59.809Z</time>
</trkpt>
<trkpt lat="-27.4420680" lon="152.9397228">
<ele>57.830</ele>
<time>2016-05-16T06:15:01.718Z</time>
</trkpt>
<trkpt lat="-27.4422514" lon="152.9400146">
<ele>57.230</ele>
<time>2016-05-16T06:15:03.853Z</time>
</trkpt>
<trkpt lat="-27.4425416" lon="152.9403931">
<ele>57.609</ele>
<time>2016-05-16T06:15:06.837Z</time>
</trkpt>
<trkpt lat="-27.4427011" lon="152.9406801">
<ele>58.573</ele>
<time>2016-05-16T06:15:08.883Z</time>
</trkpt>
<trkpt lat="-27.4428769" lon="152.9413231">
<ele>59.238</ele>
<time>2016-05-16T06:15:12.882Z</time>
</trkpt>
<trkpt lat="-27.4429579" lon="152.9418286">
<ele>58.833</ele>
<time>2016-05-16T06:15:15.872Z</time>
</trkpt>
<trkpt lat="-27.4430247" lon="152.9423285">
<ele>57.501</ele>
<time>2016-05-16T06:15:18.896Z</time>
</trkpt>
<trkpt lat="-27.4430849" lon="152.9427788">
<ele>55.989</ele>
<time>2016-05-16T06:15:21.823Z</time>
</trkpt>
<trkpt lat="-27.4430925" lon="152.9430480">
<ele>54.565</ele>
<time>2016-05-16T06:15:23.822Z</time>
</trkpt>
<trkpt lat="-27.4430815" lon="152.9433610">
<ele>52.948</ele>
<time>2016-05-16T06:15:26.714Z</time>
</trkpt>
<trkpt lat="-27.4430713" lon="152.9435329">
<ele>50.919</ele>
<time>2016-05-16T06:15:29.000Z</time>
</trkpt>
<trkpt lat="-27.4430713" lon="152.9435329">
<ele>48.811</ele>
<time>2016-05-16T06:15:33.000Z</time>
</trkpt>
<trkpt lat="-27.4430713" lon="152.9435329">
<ele>47.596</ele>
<time>2016-05-16T06:15:54.224Z</time>
</trkpt>
<trkpt lat="-27.4431150" lon="152.9437853">
<ele>47.663</ele>
<time>2016-05-16T06:15:59.525Z</time>
</trkpt>
<trkpt lat="-27.4431310" lon="152.9439616">
<ele>48.090</ele>
<time>2016-05-16T06:16:01.214Z</time>
</trkpt>
<trkpt lat="-27.4432008" lon="152.9443773">
<ele>48.071</ele>
<time>2016-05-16T06:16:04.552Z</time>
</trkpt>
<trkpt lat="-27.4432746" lon="152.9446937">
<ele>48.172</ele>
<time>2016-05-16T06:16:06.772Z</time>
</trkpt>
<trkpt lat="-27.4434471" lon="152.9454025">
<ele>49.204</ele>
<time>2016-05-16T06:16:11.186Z</time>
</trkpt>
<trkpt lat="-27.4435787" lon="152.9457339">
<ele>50.982</ele>
<time>2016-05-16T06:16:13.220Z</time>
</trkpt>
<trkpt lat="-27.4437837" lon="152.9461833">
<ele>52.720</ele>
<time>2016-05-16T06:16:16.148Z</time>
</trkpt>
<trkpt lat="-27.4440081" lon="152.9466225">
<ele>53.561</ele>
<time>2016-05-16T06:16:19.311Z</time>
</trkpt>
<trkpt lat="-27.4443365" lon="152.9473824">
<ele>52.685</ele>
<time>2016-05-16T06:16:24.896Z</time>
</trkpt>
<trkpt lat="-27.4444095" lon="152.9476392">
<ele>52.518</ele>
<time>2016-05-16T06:16:26.874Z</time>
</trkpt>
<trkpt lat="-27.4444592" lon="152.9479083">
<ele>52.567</ele>
<time>2016-05-16T06:16:28.761Z</time>
</trkpt>
<trkpt lat="-27.4445287" lon="152.9482806">
<ele>52.473</ele>
<time>2016-05-16T06:16:31.130Z</time>
</trkpt>
<trkpt lat="-27.4446182" lon="152.9485868">
<ele>52.279</ele>
<time>2016-05-16T06:16:33.051Z</time>
</trkpt>
<trkpt lat="-27.4447643" lon="152.9490864">
<ele>52.158</ele>
<time>2016-05-16T06:16:36.243Z</time>
</trkpt>
<trkpt lat="-27.4448364" lon="152.9495482">
<ele>52.091</ele>
<time>2016-05-16T06:16:39.198Z</time>
</trkpt>
<trkpt lat="-27.4448320" lon="152.9500303">
<ele>51.949</ele>
<time>2016-05-16T06:16:42.240Z</time>
</trkpt>
<trkpt lat="-27.4448041" lon="152.9505142">
<ele>51.732</ele>
<time>2016-05-16T06:16:45.227Z</time>
</trkpt>
<trkpt lat="-27.4448070" lon="152.9508495">
<ele>51.260</ele>
<time>2016-05-16T06:16:47.309Z</time>
</trkpt>
<trkpt lat="-27.4448088" lon="152.9511438">
<ele>50.174</ele>
<time>2016-05-16T06:16:49.167Z</time>
</trkpt>
<trkpt lat="-27.4448122" lon="152.9514617">
<ele>48.488</ele>
<time>2016-05-16T06:16:51.165Z</time>
</trkpt>
<trkpt lat="-27.4448297" lon="152.9519347">
<ele>46.537</ele>
<time>2016-05-16T06:16:54.135Z</time>
</trkpt>
<trkpt lat="-27.4448461" lon="152.9522575">
<ele>44.444</ele>
<time>2016-05-16T06:16:56.119Z</time>
</trkpt>
<trkpt lat="-27.4448744" lon="152.9527488">
<ele>42.423</ele>
<time>2016-05-16T06:16:59.061Z</time>
</trkpt>
<trkpt lat="-27.4449055" lon="152.9532626">
<ele>40.576</ele>
<time>2016-05-16T06:17:02.042Z</time>
</trkpt>
<trkpt lat="-27.4449901" lon="152.9537606">
<ele>38.701</ele>
<time>2016-05-16T06:17:04.885Z</time>
</trkpt>
<trkpt lat="-27.4451673" lon="152.9542497">
<ele>36.810</ele>
<time>2016-05-16T06:17:07.795Z</time>
</trkpt>
<trkpt lat="-27.4452830" lon="152.9545729">
<ele>35.129</ele>
<time>2016-05-16T06:17:09.734Z</time>
</trkpt>
<trkpt lat="-27.4454192" lon="152.9549170">
<ele>33.774</ele>
<time>2016-05-16T06:17:11.871Z</time>
</trkpt>
<trkpt lat="-27.4455598" lon="152.9554355">
<ele>32.973</ele>
<time>2016-05-16T06:17:14.984Z</time>
</trkpt>
<trkpt lat="-27.4456385" lon="152.9559504">
<ele>32.769</ele>
<time>2016-05-16T06:17:18.026Z</time>
</trkpt>
<trkpt lat="-27.4457122" lon="152.9562740">
<ele>33.162</ele>
<time>2016-05-16T06:17:19.955Z</time>
</trkpt>
<trkpt lat="-27.4458307" lon="152.9565993">
<ele>34.073</ele>
<time>2016-05-16T06:17:21.978Z</time>
</trkpt>
<trkpt lat="-27.4459277" lon="152.9569114">
<ele>34.994</ele>
<time>2016-05-16T06:17:23.959Z</time>
</trkpt>
<trkpt lat="-27.4460007" lon="152.9573903">
<ele>35.492</ele>
<time>2016-05-16T06:17:26.889Z</time>
</trkpt>
<trkpt lat="-27.4460388" lon="152.9579100">
<ele>35.603</ele>
<time>2016-05-16T06:17:30.010Z</time>
</trkpt>
<trkpt lat="-27.4461131" lon="152.9582392">
<ele>35.146</ele>
<time>2016-05-16T06:17:32.004Z</time>
</trkpt>
<trkpt lat="-27.4461901" lon="152.9585704">
<ele>33.716</ele>
<time>2016-05-16T06:17:34.054Z</time>
</trkpt>
<trkpt lat="-27.4462908" lon="152.9590304">
<ele>31.632</ele>
<time>2016-05-16T06:17:36.949Z</time>
</trkpt>
<trkpt lat="-27.4463523" lon="152.9593539">
<ele>29.563</ele>
<time>2016-05-16T06:17:38.978Z</time>
</trkpt>
<trkpt lat="-27.4463826" lon="152.9598304">
<ele>27.844</ele>
<time>2016-05-16T06:17:41.896Z</time>
</trkpt>
<trkpt lat="-27.4463984" lon="152.9603344">
<ele>26.859</ele>
<time>2016-05-16T06:17:44.965Z</time>
</trkpt>
<trkpt lat="-27.4463764" lon="152.9606721">
<ele>27.171</ele>
<time>2016-05-16T06:17:47.040Z</time>
</trkpt>
<trkpt lat="-27.4463172" lon="152.9611664">
<ele>29.055</ele>
<time>2016-05-16T06:17:50.092Z</time>
</trkpt>
<trkpt lat="-27.4462895" lon="152.9614913">
<ele>31.731</ele>
<time>2016-05-16T06:17:52.012Z</time>
</trkpt>
<trkpt lat="-27.4463067" lon="152.9618421">
<ele>33.569</ele>
<time>2016-05-16T06:17:53.979Z</time>
</trkpt>
<trkpt lat="-27.4463531" lon="152.9623550">
<ele>33.856</ele>
<time>2016-05-16T06:17:56.768Z</time>
</trkpt>
<trkpt lat="-27.4463639" lon="152.9627597">
<ele>32.756</ele>
<time>2016-05-16T06:17:58.778Z</time>
</trkpt>
<trkpt lat="-27.4464168" lon="152.9631797">
<ele>30.397</ele>
<time>2016-05-16T06:18:00.854Z</time>
</trkpt>
<trkpt lat="-27.4465250" lon="152.9636666">
<ele>27.492</ele>
<time>2016-05-16T06:18:03.451Z</time>
</trkpt>
<trkpt lat="-27.4466161" lon="152.9639973">
<ele>25.287</ele>
<time>2016-05-16T06:18:05.437Z</time>
</trkpt>
<trkpt lat="-27.4467695" lon="152.9644883">
<ele>24.311</ele>
<time>2016-05-16T06:18:08.493Z</time>
</trkpt>
<trkpt lat="-27.4468951" lon="152.9647763">
<ele>24.454</ele>
<time>2016-05-16T06:18:10.345Z</time>
</trkpt>
<trkpt lat="-27.4472411" lon="152.9651385">
<ele>25.614</ele>
<time>2016-05-16T06:18:13.350Z</time>
</trkpt>
<trkpt lat="-27.4475448" lon="152.9652862">
<ele>27.806</ele>
<time>2016-05-16T06:18:15.416Z</time>
</trkpt>
<trkpt lat="-27.4477978" lon="152.9654259">
<ele>30.793</ele>
<time>2016-05-16T06:18:17.221Z</time>
</trkpt>
<trkpt lat="-27.4482150" lon="152.9656570">
<ele>33.763</ele>
<time>2016-05-16T06:18:20.296Z</time>
</trkpt>
<trkpt lat="-27.4484797" lon="152.9657979">
<ele>36.028</ele>
<time>2016-05-16T06:18:22.398Z</time>
</trkpt>
<trkpt lat="-27.4485871" lon="152.9658731">
<ele>37.526</ele>
<time>2016-05-16T06:18:23.331Z</time>
</trkpt>
<trkpt lat="-27.4489887" lon="152.9663435">
<ele>38.293</ele>
<time>2016-05-16T06:18:27.554Z</time>
</trkpt>
<trkpt lat="-27.4490800" lon="152.9666336">
<ele>38.387</ele>
<time>2016-05-16T06:18:29.498Z</time>
</trkpt>
<trkpt lat="-27.4491016" lon="152.9668987">
<ele>37.999</ele>
<time>2016-05-16T06:18:31.122Z</time>
</trkpt>
<trkpt lat="-27.4490351" lon="152.9673039">
<ele>37.370</ele>
<time>2016-05-16T06:18:33.538Z</time>
</trkpt>
<trkpt lat="-27.4488676" lon="152.9677782">
<ele>36.682</ele>
<time>2016-05-16T06:18:36.472Z</time>
</trkpt>
<trkpt lat="-27.4487355" lon="152.9680892">
<ele>35.900</ele>
<time>2016-05-16T06:18:38.420Z</time>
</trkpt>
<trkpt lat="-27.4486214" lon="152.9683707">
<ele>34.627</ele>
<time>2016-05-16T06:18:40.156Z</time>
</trkpt>
<trkpt lat="-27.4484045" lon="152.9688769">
<ele>32.835</ele>
<time>2016-05-16T06:18:43.328Z</time>
</trkpt>
<trkpt lat="-27.4482191" lon="152.9693471">
<ele>30.925</ele>
<time>2016-05-16T06:18:46.273Z</time>
</trkpt>
<trkpt lat="-27.4481280" lon="152.9696729">
<ele>29.117</ele>
<time>2016-05-16T06:18:48.238Z</time>
</trkpt>
<trkpt lat="-27.4481640" lon="152.9701824">
<ele>27.653</ele>
<time>2016-05-16T06:18:51.212Z</time>
</trkpt>
<trkpt lat="-27.4482660" lon="152.9706234">
<ele>26.825</ele>
<time>2016-05-16T06:18:53.940Z</time>
</trkpt>
<trkpt lat="-27.4483310" lon="152.9709841">
<ele>26.247</ele>
<time>2016-05-16T06:18:56.188Z</time>
</trkpt>
<trkpt lat="-27.4483046" lon="152.9714713">
<ele>25.191</ele>
<time>2016-05-16T06:18:59.113Z</time>
</trkpt>
<trkpt lat="-27.4481697" lon="152.9719841">
<ele>23.291</ele>
<time>2016-05-16T06:19:02.142Z</time>
</trkpt>
<trkpt lat="-27.4480260" lon="152.9725149">
<ele>20.965</ele>
<time>2016-05-16T06:19:05.173Z</time>
</trkpt>
<trkpt lat="-27.4479607" lon="152.9729399">
<ele>18.898</ele>
<time>2016-05-16T06:19:07.595Z</time>
</trkpt>
<trkpt lat="-27.4479614" lon="152.9734384">
<ele>17.313</ele>
<time>2016-05-16T06:19:10.532Z</time>
</trkpt>
<trkpt lat="-27.4479861" lon="152.9737682">
<ele>16.094</ele>
<time>2016-05-16T06:19:12.510Z</time>
</trkpt>
<trkpt lat="-27.4480157" lon="152.9740959">
<ele>15.109</ele>
<time>2016-05-16T06:19:14.472Z</time>
</trkpt>
<trkpt lat="-27.4480741" lon="152.9744299">
<ele>14.356</ele>
<time>2016-05-16T06:19:16.453Z</time>
</trkpt>
<trkpt lat="-27.4481534" lon="152.9749195">
<ele>14.115</ele>
<time>2016-05-16T06:19:19.394Z</time>
</trkpt>
<trkpt lat="-27.4482080" lon="152.9752167">
<ele>14.765</ele>
<time>2016-05-16T06:19:21.325Z</time>
</trkpt>
<trkpt lat="-27.4482599" lon="152.9756515">
<ele>16.344</ele>
<time>2016-05-16T06:19:24.332Z</time>
</trkpt>
<trkpt lat="-27.4482731" lon="152.9759691">
<ele>18.742</ele>
<time>2016-05-16T06:19:26.995Z</time>
</trkpt>
<trkpt lat="-27.4482731" lon="152.9759691">
<ele>21.406</ele>
<time>2016-05-16T06:19:32.995Z</time>
</trkpt>
<trkpt lat="-27.4482731" lon="152.9759691">
<ele>22.984</ele>
<time>2016-05-16T06:20:14.042Z</time>
</trkpt>
<trkpt lat="-27.4482258" lon="152.9761773">
<ele>22.871</ele>
<time>2016-05-16T06:20:20.777Z</time>
</trkpt>
<trkpt lat="-27.4482084" lon="152.9763332">
<ele>23.194</ele>
<time>2016-05-16T06:20:22.795Z</time>
</trkpt>
<trkpt lat="-27.4482409" lon="152.9766074">
<ele>25.923</ele>
<time>2016-05-16T06:20:25.856Z</time>
</trkpt>
<trkpt lat="-27.4482366" lon="152.9769002">
<ele>29.978</ele>
<time>2016-05-16T06:20:28.518Z</time>
</trkpt>
<trkpt lat="-27.4482249" lon="152.9772742">
<ele>33.442</ele>
<time>2016-05-16T06:20:31.354Z</time>
</trkpt>
<trkpt lat="-27.4482167" lon="152.9777111">
<ele>35.759</ele>
<time>2016-05-16T06:20:34.250Z</time>
</trkpt>
<trkpt lat="-27.4482065" lon="152.9780061">
<ele>36.923</ele>
<time>2016-05-16T06:20:36.127Z</time>
</trkpt>
<trkpt lat="-27.4481710" lon="152.9783044">
<ele>37.012</ele>
<time>2016-05-16T06:20:38.067Z</time>
</trkpt>
<trkpt lat="-27.4481016" lon="152.9787236">
<ele>36.018</ele>
<time>2016-05-16T06:20:40.858Z</time>
</trkpt>
<trkpt lat="-27.4480578" lon="152.9790242">
<ele>34.341</ele>
<time>2016-05-16T06:20:42.964Z</time>
</trkpt>
<trkpt lat="-27.4480243" lon="152.9792562">
<ele>32.860</ele>
<time>2016-05-16T06:20:44.688Z</time>
</trkpt>
<trkpt lat="-27.4479688" lon="152.9796408">
<ele>32.118</ele>
<time>2016-05-16T06:20:47.567Z</time>
</trkpt>
<trkpt lat="-27.4478874" lon="152.9799344">
<ele>32.444</ele>
<time>2016-05-16T06:20:49.689Z</time>
</trkpt>
<trkpt lat="-27.4478633" lon="152.9801707">
<ele>33.747</ele>
<time>2016-05-16T06:20:51.255Z</time>
</trkpt>
<trkpt lat="-27.4478359" lon="152.9807220">
<ele>34.935</ele>
<time>2016-05-16T06:20:54.756Z</time>
</trkpt>
<trkpt lat="-27.4478565" lon="152.9811497">
<ele>34.905</ele>
<time>2016-05-16T06:20:57.510Z</time>
</trkpt>
<trkpt lat="-27.4478895" lon="152.9814085">
<ele>33.507</ele>
<time>2016-05-16T06:20:59.291Z</time>
</trkpt>
<trkpt lat="-27.4478883" lon="152.9816929">
<ele>31.481</ele>
<time>2016-05-16T06:21:01.335Z</time>
</trkpt>
<trkpt lat="-27.4478485" lon="152.9819560">
<ele>29.821</ele>
<time>2016-05-16T06:21:03.367Z</time>
</trkpt>
<trkpt lat="-27.4477359" lon="152.9822486">
<ele>28.781</ele>
<time>2016-05-16T06:21:06.123Z</time>
</trkpt>
<trkpt lat="-27.4476110" lon="152.9823616">
<ele>27.721</ele>
<time>2016-05-16T06:21:08.559Z</time>
</trkpt>
<trkpt lat="-27.4473947" lon="152.9822635">
<ele>26.203</ele>
<time>2016-05-16T06:21:12.145Z</time>
</trkpt>
<trkpt lat="-27.4471564" lon="152.9820064">
<ele>24.682</ele>
<time>2016-05-16T06:21:15.329Z</time>
</trkpt>
<trkpt lat="-27.4468275" lon="152.9818838">
<ele>23.461</ele>
<time>2016-05-16T06:21:18.129Z</time>
</trkpt>
<trkpt lat="-27.4465906" lon="152.9818072">
<ele>22.221</ele>
<time>2016-05-16T06:21:20.004Z</time>
</trkpt>
<trkpt lat="-27.4462188" lon="152.9817158">
<ele>20.869</ele>
<time>2016-05-16T06:21:22.933Z</time>
</trkpt>
<trkpt lat="-27.4459739" lon="152.9817142">
<ele>19.472</ele>
<time>2016-05-16T06:21:24.861Z</time>
</trkpt>
<trkpt lat="-27.4457211" lon="152.9817690">
<ele>18.191</ele>
<time>2016-05-16T06:21:26.893Z</time>
</trkpt>
<trkpt lat="-27.4453646" lon="152.9819045">
<ele>17.339</ele>
<time>2016-05-16T06:21:29.914Z</time>
</trkpt>
<trkpt lat="-27.4451307" lon="152.9819999">
<ele>16.933</ele>
<time>2016-05-16T06:21:31.967Z</time>
</trkpt>
<trkpt lat="-27.4448625" lon="152.9821386">
<ele>16.765</ele>
<time>2016-05-16T06:21:34.343Z</time>
</trkpt>
<trkpt lat="-27.4445464" lon="152.9823060">
<ele>16.512</ele>
<time>2016-05-16T06:21:36.977Z</time>
</trkpt>
<trkpt lat="-27.4441504" lon="152.9824999">
<ele>16.013</ele>
<time>2016-05-16T06:21:40.208Z</time>
</trkpt>
<trkpt lat="-27.4439088" lon="152.9825461">
<ele>15.373</ele>
<time>2016-05-16T06:21:42.110Z</time>
</trkpt>
<trkpt lat="-27.4435137" lon="152.9825927">
<ele>14.641</ele>
<time>2016-05-16T06:21:45.243Z</time>
</trkpt>
<trkpt lat="-27.4431872" lon="152.9825788">
<ele>13.867</ele>
<time>2016-05-16T06:21:48.033Z</time>
</trkpt>
<trkpt lat="-27.4429894" lon="152.9825560">
<ele>12.809</ele>
<time>2016-05-16T06:21:50.334Z</time>
</trkpt>
<trkpt lat="-27.4428806" lon="152.9826812">
<ele>10.898</ele>
<time>2016-05-16T06:21:52.736Z</time>
</trkpt>
<trkpt lat="-27.4428963" lon="152.9828591">
<ele>8.543</ele>
<time>2016-05-16T06:21:55.500Z</time>
</trkpt>
<trkpt lat="-27.4428738" lon="152.9831365">
<ele>7.167</ele>
<time>2016-05-16T06:21:58.973Z</time>
</trkpt>
<trkpt lat="-27.4427666" lon="152.9834795">
<ele>7.268</ele>
<time>2016-05-16T06:22:02.217Z</time>
</trkpt>
<trkpt lat="-27.4426787" lon="152.9836406">
<ele>7.965</ele>
<time>2016-05-16T06:22:04.000Z</time>
</trkpt>
<trkpt lat="-27.4426787" lon="152.9836406">
<ele>8.357</ele>
<time>2016-05-16T06:22:11.000Z</time>
</trkpt>
<trkpt lat="-27.4426787" lon="152.9836406">
<ele>8.316</ele>
<time>2016-05-16T06:22:39.123Z</time>
</trkpt>
<trkpt lat="-27.4424542" lon="152.9837550">
<ele>8.112</ele>
<time>2016-05-16T06:22:46.077Z</time>
</trkpt>
<trkpt lat="-27.4425829" lon="152.9836887">
<ele>7.102</ele>
<time>2016-05-16T06:22:48.493Z</time>
</trkpt>
<trkpt lat="-27.4422232" lon="152.9840465">
<ele>4.780</ele>
<time>2016-05-16T06:22:54.417Z</time>
</trkpt>
<trkpt lat="-27.4421905" lon="152.9842791">
<ele>2.434</ele>
<time>2016-05-16T06:22:56.225Z</time>
</trkpt>
<trkpt lat="-27.4421905" lon="152.9842791">
<ele>2.434</ele>
<time>2016-05-16T06:22:56.225Z</time>
</trkpt>
<trkpt lat="-27.4413690" lon="152.9862253">
<ele>8.410</ele>
<time>2016-05-16T06:23:11.953Z</time>
</trkpt>
<trkpt lat="-27.4411151" lon="152.9865959">
<ele>8.406</ele>
<time>2016-05-16T06:23:14.793Z</time>
</trkpt>
<trkpt lat="-27.4409486" lon="152.9868388">
<ele>8.229</ele>
<time>2016-05-16T06:23:16.623Z</time>
</trkpt>
<trkpt lat="-27.4407501" lon="152.9870616">
<ele>7.716</ele>
<time>2016-05-16T06:23:18.483Z</time>
</trkpt>
<trkpt lat="-27.4404956" lon="152.9874363">
<ele>6.973</ele>
<time>2016-05-16T06:23:21.253Z</time>
</trkpt>
<trkpt lat="-27.4402390" lon="152.9878015">
<ele>6.268</ele>
<time>2016-05-16T06:23:23.976Z</time>
</trkpt>
<trkpt lat="-27.4400236" lon="152.9882084">
<ele>5.877</ele>
<time>2016-05-16T06:23:26.781Z</time>
</trkpt>
<trkpt lat="-27.4398217" lon="152.9883818">
<ele>5.913</ele>
<time>2016-05-16T06:23:28.579Z</time>
</trkpt>
<trkpt lat="-27.4395454" lon="152.9887341">
<ele>6.154</ele>
<time>2016-05-16T06:23:31.729Z</time>
</trkpt>
<trkpt lat="-27.4394183" lon="152.9888854">
<ele>6.094</ele>
<time>2016-05-16T06:23:33.572Z</time>
</trkpt>
<trkpt lat="-27.4393376" lon="152.9889982">
<ele>5.162</ele>
<time>2016-05-16T06:23:34.912Z</time>
</trkpt>
<trkpt lat="-27.4393666" lon="152.9890948">
<ele>3.281</ele>
<time>2016-05-16T06:23:36.286Z</time>
</trkpt>
<trkpt lat="-27.4394675" lon="152.9891895">
<ele>1.227</ele>
<time>2016-05-16T06:23:38.573Z</time>
</trkpt>
<trkpt lat="-27.4395247" lon="152.9892831">
<ele>0.000</ele>
<time>2016-05-16T06:23:40.494Z</time>
</trkpt>
<trkpt lat="-27.4394994" lon="152.9893957">
<ele>0.000</ele>
<time>2016-05-16T06:23:43.511Z</time>
</trkpt>
<trkpt lat="-27.4393822" lon="152.9893962">
<ele>0.000</ele>
<time>2016-05-16T06:23:47.221Z</time>
</trkpt>
<trkpt lat="-27.4392903" lon="152.9891799">
<ele>0.069</ele>
<time>2016-05-16T06:23:50.724Z</time>
</trkpt>
<trkpt lat="-27.4392428" lon="152.9890482">
<ele>0.324</ele>
<time>2016-05-16T06:23:52.663Z</time>
</trkpt>
<trkpt lat="-27.4392088" lon="152.9889087">
<ele>0.623</ele>
<time>2016-05-16T06:23:55.000Z</time>
</trkpt>
<trkpt lat="-27.4392088" lon="152.9889087">
<ele>0.864</ele>
<time>2016-05-16T06:23:59.000Z</time>
</trkpt>
<trkpt lat="-27.4392088" lon="152.9889087">
<ele>0.947</ele>
<time>2016-05-16T06:24:22.110Z</time>
</trkpt>
<trkpt lat="-27.4391388" lon="152.9887079">
<ele>0.926</ele>
<time>2016-05-16T06:24:27.520Z</time>
</trkpt>
<trkpt lat="-27.4390897" lon="152.9885672">
<ele>1.900</ele>
<time>2016-05-16T06:24:29.377Z</time>
</trkpt>
<trkpt lat="-27.4389967" lon="152.9883379">
<ele>4.618</ele>
<time>2016-05-16T06:24:32.074Z</time>
</trkpt>
<trkpt lat="-27.4388473" lon="152.9881029">
<ele>7.868</ele>
<time>2016-05-16T06:24:34.707Z</time>
</trkpt>
<trkpt lat="-27.4387498" lon="152.9878283">
<ele>10.504</ele>
<time>2016-05-16T06:24:37.080Z</time>
</trkpt>
<trkpt lat="-27.4382628" lon="152.9878478">
<ele>12.934</ele>
<time>2016-05-16T06:24:40.715Z</time>
</trkpt>
<trkpt lat="-27.4377916" lon="152.9879439">
<ele>15.201</ele>
<time>2016-05-16T06:24:44.016Z</time>
</trkpt>
<trkpt lat="-27.4374558" lon="152.9879900">
<ele>16.902</ele>
<time>2016-05-16T06:24:46.500Z</time>
</trkpt>
<trkpt lat="-27.4371383" lon="152.9880529">
<ele>18.553</ele>
<time>2016-05-16T06:24:49.072Z</time>
</trkpt>
<trkpt lat="-27.4363972" lon="152.9881928">
<ele>21.977</ele>
<time>2016-05-16T06:24:55.047Z</time>
</trkpt>
<trkpt lat="-27.4357123" lon="152.9883121">
<ele>21.529</ele>
<time>2016-05-16T06:24:59.762Z</time>
</trkpt>
<trkpt lat="-27.4353999" lon="152.9883600">
<ele>19.897</ele>
<time>2016-05-16T06:25:01.694Z</time>
</trkpt>
<trkpt lat="-27.4349397" lon="152.9884389">
<ele>18.305</ele>
<time>2016-05-16T06:25:04.694Z</time>
</trkpt>
<trkpt lat="-27.4345812" lon="152.9884927">
<ele>17.810</ele>
<time>2016-05-16T06:25:07.301Z</time>
</trkpt>
<trkpt lat="-27.4341809" lon="152.9885608">
<ele>18.988</ele>
<time>2016-05-16T06:25:10.552Z</time>
</trkpt>
<trkpt lat="-27.4337435" lon="152.9886449">
<ele>21.400</ele>
<time>2016-05-16T06:25:14.154Z</time>
</trkpt>
<trkpt lat="-27.4335044" lon="152.9886896">
<ele>23.892</ele>
<time>2016-05-16T06:25:15.949Z</time>
</trkpt>
<trkpt lat="-27.4331012" lon="152.9887491">
<ele>25.655</ele>
<time>2016-05-16T06:25:18.863Z</time>
</trkpt>
<trkpt lat="-27.4328194" lon="152.9887836">
<ele>27.007</ele>
<time>2016-05-16T06:25:20.827Z</time>
</trkpt>
<trkpt lat="-27.4325206" lon="152.9888332">
<ele>28.826</ele>
<time>2016-05-16T06:25:23.030Z</time>
</trkpt>
<trkpt lat="-27.4323282" lon="152.9888474">
<ele>31.135</ele>
<time>2016-05-16T06:25:24.549Z</time>
</trkpt>
<trkpt lat="-27.4320320" lon="152.9889032">
<ele>33.232</ele>
<time>2016-05-16T06:25:26.864Z</time>
</trkpt>
<trkpt lat="-27.4317633" lon="152.9889818">
<ele>34.770</ele>
<time>2016-05-16T06:25:28.959Z</time>
</trkpt>
<trkpt lat="-27.4315574" lon="152.9890705">
<ele>36.033</ele>
<time>2016-05-16T06:25:31.072Z</time>
</trkpt>
<trkpt lat="-27.4313258" lon="152.9891232">
<ele>37.404</ele>
<time>2016-05-16T06:25:34.433Z</time>
</trkpt>
<trkpt lat="-27.4311864" lon="152.9890912">
<ele>38.691</ele>
<time>2016-05-16T06:25:37.375Z</time>
</trkpt>
<trkpt lat="-27.4310954" lon="152.9890924">
<ele>39.437</ele>
<time>2016-05-16T06:25:39.091Z</time>
</trkpt>
<trkpt lat="-27.4309320" lon="152.9891528">
<ele>39.745</ele>
<time>2016-05-16T06:25:42.102Z</time>
</trkpt>
<trkpt lat="-27.4307630" lon="152.9891664">
<ele>40.102</ele>
<time>2016-05-16T06:25:45.107Z</time>
</trkpt>
<trkpt lat="-27.4306619" lon="152.9892039">
<ele>40.646</ele>
<time>2016-05-16T06:25:46.941Z</time>
</trkpt>
<trkpt lat="-27.4305595" lon="152.9892221">
<ele>41.063</ele>
<time>2016-05-16T06:25:48.651Z</time>
</trkpt>
<trkpt lat="-27.4303854" lon="152.9892461">
<ele>41.074</ele>
<time>2016-05-16T06:25:51.383Z</time>
</trkpt>
<trkpt lat="-27.4302436" lon="152.9892600">
<ele>40.647</ele>
<time>2016-05-16T06:25:53.367Z</time>
</trkpt>
<trkpt lat="-27.4300504" lon="152.9892912">
<ele>39.888</ele>
<time>2016-05-16T06:25:56.048Z</time>
</trkpt>
<trkpt lat="-27.4299097" lon="152.9893081">
<ele>38.955</ele>
<time>2016-05-16T06:25:58.043Z</time>
</trkpt>
<trkpt lat="-27.4299973" lon="152.9893402">
<ele>37.922</ele>
<time>2016-05-16T06:26:00.000Z</time>
</trkpt>
<trkpt lat="-27.4299973" lon="152.9893402">
<ele>36.951</ele>
<time>2016-05-16T06:26:02.000Z</time>
</trkpt>
<trkpt lat="-27.4299973" lon="152.9893402">
<ele>36.422</ele>
<time>2016-05-16T06:26:28.139Z</time>
</trkpt>
<trkpt lat="-27.4298088" lon="152.9893660">
<ele>36.450</ele>
<time>2016-05-16T06:26:33.525Z</time>
</trkpt>
<trkpt lat="-27.4296883" lon="152.9893925">
<ele>36.669</ele>
<time>2016-05-16T06:26:35.060Z</time>
</trkpt>
<trkpt lat="-27.4293829" lon="152.9894427">
<ele>36.765</ele>
<time>2016-05-16T06:26:38.212Z</time>
</trkpt>
<trkpt lat="-27.4291510" lon="152.9894848">
<ele>36.927</ele>
<time>2016-05-16T06:26:40.274Z</time>
</trkpt>
<trkpt lat="-27.4288112" lon="152.9895635">
<ele>37.363</ele>
<time>2016-05-16T06:26:43.369Z</time>
</trkpt>
<trkpt lat="-27.4285675" lon="152.9896068">
<ele>37.743</ele>
<time>2016-05-16T06:26:45.588Z</time>
</trkpt>
<trkpt lat="-27.4282093" lon="152.9896676">
<ele>37.743</ele>
<time>2016-05-16T06:26:48.730Z</time>
</trkpt>
<trkpt lat="-27.4279791" lon="152.9897037">
<ele>37.714</ele>
<time>2016-05-16T06:26:50.670Z</time>
</trkpt>
<trkpt lat="-27.4276411" lon="152.9897658">
<ele>37.997</ele>
<time>2016-05-16T06:26:53.545Z</time>
</trkpt>
<trkpt lat="-27.4273289" lon="152.9898270">
<ele>38.325</ele>
<time>2016-05-16T06:26:56.289Z</time>
</trkpt>
<trkpt lat="-27.4272308" lon="152.9898461">
<ele>38.180</ele>
<time>2016-05-16T06:26:57.173Z</time>
</trkpt>
<trkpt lat="-27.4268586" lon="152.9899054">
<ele>37.534</ele>
<time>2016-05-16T06:27:00.871Z</time>
</trkpt>
<trkpt lat="-27.4266124" lon="152.9899578">
<ele>36.837</ele>
<time>2016-05-16T06:27:03.539Z</time>
</trkpt>
<trkpt lat="-27.4263727" lon="152.9900055">
<ele>36.296</ele>
<time>2016-05-16T06:27:06.435Z</time>
</trkpt>
<trkpt lat="-27.4261960" lon="152.9900314">
<ele>35.772</ele>
<time>2016-05-16T06:27:09.000Z</time>
</trkpt>
<trkpt lat="-27.4261960" lon="152.9900314">
<ele>35.333</ele>
<time>2016-05-16T06:27:15.000Z</time>
</trkpt>
<trkpt lat="-27.4261960" lon="152.9900314">
<ele>35.134</ele>
<time>2016-05-16T06:27:40.928Z</time>
</trkpt>
<trkpt lat="-27.4259536" lon="152.9900811">
<ele>35.204</ele>
<time>2016-05-16T06:27:46.740Z</time>
</trkpt>
<trkpt lat="-27.4257898" lon="152.9901101">
<ele>35.802</ele>
<time>2016-05-16T06:27:48.736Z</time>
</trkpt>
<trkpt lat="-27.4255995" lon="152.9901365">
<ele>36.987</ele>
<time>2016-05-16T06:27:50.708Z</time>
</trkpt>
<trkpt lat="-27.4252812" lon="152.9901861">
<ele>38.123</ele>
<time>2016-05-16T06:27:53.749Z</time>
</trkpt>
<trkpt lat="-27.4249211" lon="152.9902521">
<ele>38.485</ele>
<time>2016-05-16T06:27:57.018Z</time>
</trkpt>
<trkpt lat="-27.4246041" lon="152.9903019">
<ele>37.936</ele>
<time>2016-05-16T06:27:59.851Z</time>
</trkpt>
<trkpt lat="-27.4242749" lon="152.9903443">
<ele>36.909</ele>
<time>2016-05-16T06:28:02.728Z</time>
</trkpt>
<trkpt lat="-27.4240437" lon="152.9903667">
<ele>35.941</ele>
<time>2016-05-16T06:28:04.738Z</time>
</trkpt>
<trkpt lat="-27.4238093" lon="152.9904222">
<ele>35.043</ele>
<time>2016-05-16T06:28:06.870Z</time>
</trkpt>
<trkpt lat="-27.4236132" lon="152.9904613">
<ele>34.020</ele>
<time>2016-05-16T06:28:08.733Z</time>
</trkpt>
<trkpt lat="-27.4233940" lon="152.9904848">
<ele>32.834</ele>
<time>2016-05-16T06:28:10.945Z</time>
</trkpt>
<trkpt lat="-27.4231681" lon="152.9905206">
<ele>31.570</ele>
<time>2016-05-16T06:28:13.651Z</time>
</trkpt>
<trkpt lat="-27.4230778" lon="152.9905324">
<ele>30.176</ele>
<time>2016-05-16T06:28:15.173Z</time>
</trkpt>
<trkpt lat="-27.4229655" lon="152.9905398">
<ele>28.631</ele>
<time>2016-05-16T06:28:17.630Z</time>
</trkpt>
<trkpt lat="-27.4228165" lon="152.9905712">
<ele>27.328</ele>
<time>2016-05-16T06:28:20.907Z</time>
</trkpt>
<trkpt lat="-27.4226564" lon="152.9906050">
<ele>26.825</ele>
<time>2016-05-16T06:28:23.090Z</time>
</trkpt>
<trkpt lat="-27.4223243" lon="152.9906643">
<ele>27.138</ele>
<time>2016-05-16T06:28:26.415Z</time>
</trkpt>
<trkpt lat="-27.4219350" lon="152.9907434">
<ele>28.157</ele>
<time>2016-05-16T06:28:29.625Z</time>
</trkpt>
<trkpt lat="-27.4216803" lon="152.9907958">
<ele>29.628</ele>
<time>2016-05-16T06:28:31.650Z</time>
</trkpt>
<trkpt lat="-27.4214289" lon="152.9908680">
<ele>30.712</ele>
<time>2016-05-16T06:28:33.677Z</time>
</trkpt>
<trkpt lat="-27.4212964" lon="152.9909159">
<ele>30.748</ele>
<time>2016-05-16T06:28:34.747Z</time>
</trkpt>
<trkpt lat="-27.4207590" lon="152.9911303">
<ele>30.130</ele>
<time>2016-05-16T06:28:38.963Z</time>
</trkpt>
<trkpt lat="-27.4205286" lon="152.9911998">
<ele>29.971</ele>
<time>2016-05-16T06:28:40.879Z</time>
</trkpt>
<trkpt lat="-27.4201896" lon="152.9912879">
<ele>31.018</ele>
<time>2016-05-16T06:28:43.895Z</time>
</trkpt>
<trkpt lat="-27.4197364" lon="152.9913599">
<ele>32.779</ele>
<time>2016-05-16T06:28:47.624Z</time>
</trkpt>
<trkpt lat="-27.4194721" lon="152.9913964">
<ele>34.334</ele>
<time>2016-05-16T06:28:49.440Z</time>
</trkpt>
<trkpt lat="-27.4190230" lon="152.9914635">
<ele>35.384</ele>
<time>2016-05-16T06:28:52.401Z</time>
</trkpt>
<trkpt lat="-27.4187701" lon="152.9914966">
<ele>35.972</ele>
<time>2016-05-16T06:28:54.074Z</time>
</trkpt>
<trkpt lat="-27.4185316" lon="152.9915138">
<ele>35.922</ele>
<time>2016-05-16T06:28:55.684Z</time>
</trkpt>
<trkpt lat="-27.4180353" lon="152.9915449">
<ele>34.929</ele>
<time>2016-05-16T06:28:59.148Z</time>
</trkpt>
<trkpt lat="-27.4177723" lon="152.9915676">
<ele>33.188</ele>
<time>2016-05-16T06:29:01.159Z</time>
</trkpt>
<trkpt lat="-27.4175466" lon="152.9916001">
<ele>31.492</ele>
<time>2016-05-16T06:29:03.199Z</time>
</trkpt>
<trkpt lat="-27.4173091" lon="152.9916407">
<ele>30.552</ele>
<time>2016-05-16T06:29:05.716Z</time>
</trkpt>
<trkpt lat="-27.4171602" lon="152.9916732">
<ele>30.497</ele>
<time>2016-05-16T06:29:07.591Z</time>
</trkpt>
<trkpt lat="-27.4168729" lon="152.9917475">
<ele>31.086</ele>
<time>2016-05-16T06:29:11.765Z</time>
</trkpt>
<trkpt lat="-27.4166489" lon="152.9917940">
<ele>31.935</ele>
<time>2016-05-16T06:29:16.309Z</time>
</trkpt>
<trkpt lat="-27.4165580" lon="152.9918169">
<ele>32.307</ele>
<time>2016-05-16T06:29:19.376Z</time>
</trkpt>
<trkpt lat="-27.4164585" lon="152.9918500">
<ele>31.817</ele>
<time>2016-05-16T06:29:23.296Z</time>
</trkpt>
<trkpt lat="-27.4163641" lon="152.9918648">
<ele>30.959</ele>
<time>2016-05-16T06:29:27.000Z</time>
</trkpt>
<trkpt lat="-27.4163641" lon="152.9918648">
<ele>30.323</ele>
<time>2016-05-16T06:29:33.000Z</time>
</trkpt>
<trkpt lat="-27.4163641" lon="152.9918648">
<ele>30.060</ele>
<time>2016-05-16T06:29:40.771Z</time>
</trkpt>
<trkpt lat="-27.4161594" lon="152.9919222">
<ele>30.121</ele>
<time>2016-05-16T06:29:49.880Z</time>
</trkpt>
<trkpt lat="-27.4160392" lon="152.9919586">
<ele>30.296</ele>
<time>2016-05-16T06:29:53.233Z</time>
</trkpt>
<trkpt lat="-27.4159430" lon="152.9919595">
<ele>30.337</ele>
<time>2016-05-16T06:29:55.605Z</time>
</trkpt>
<trkpt lat="-27.4157503" lon="152.9920048">
<ele>30.204</ele>
<time>2016-05-16T06:29:59.319Z</time>
</trkpt>
<trkpt lat="-27.4155764" lon="152.9920280">
<ele>30.052</ele>
<time>2016-05-16T06:30:02.547Z</time>
</trkpt>
<trkpt lat="-27.4154620" lon="152.9920503">
<ele>29.856</ele>
<time>2016-05-16T06:30:04.786Z</time>
</trkpt>
<trkpt lat="-27.4153517" lon="152.9920693">
<ele>29.531</ele>
<time>2016-05-16T06:30:06.832Z</time>
</trkpt>
<trkpt lat="-27.4151378" lon="152.9921163">
<ele>29.246</ele>
<time>2016-05-16T06:30:09.991Z</time>
</trkpt>
<trkpt lat="-27.4149942" lon="152.9921469">
<ele>29.162</ele>
<time>2016-05-16T06:30:11.902Z</time>
</trkpt>
<trkpt lat="-27.4147596" lon="152.9921950">
<ele>29.213</ele>
<time>2016-05-16T06:30:14.816Z</time>
</trkpt>
<trkpt lat="-27.4145825" lon="152.9922321">
<ele>29.280</ele>
<time>2016-05-16T06:30:16.912Z</time>
</trkpt>
<trkpt lat="-27.4144285" lon="152.9922769">
<ele>29.293</ele>
<time>2016-05-16T06:30:18.895Z</time>
</trkpt>
<trkpt lat="-27.4142381" lon="152.9923276">
<ele>29.070</ele>
<time>2016-05-16T06:30:21.544Z</time>
</trkpt>
<trkpt lat="-27.4140160" lon="152.9923402">
<ele>28.478</ele>
<time>2016-05-16T06:30:24.752Z</time>
</trkpt>
<trkpt lat="-27.4138088" lon="152.9923548">
<ele>27.768</ele>
<time>2016-05-16T06:30:27.765Z</time>
</trkpt>
<trkpt lat="-27.4136976" lon="152.9923768">
<ele>27.206</ele>
<time>2016-05-16T06:30:29.521Z</time>
</trkpt>
<trkpt lat="-27.4135987" lon="152.9924038">
<ele>26.749</ele>
<time>2016-05-16T06:30:31.302Z</time>
</trkpt>
<trkpt lat="-27.4135107" lon="152.9924259">
<ele>26.324</ele>
<time>2016-05-16T06:30:33.137Z</time>
</trkpt>
<trkpt lat="-27.4133678" lon="152.9924388">
<ele>25.907</ele>
<time>2016-05-16T06:30:37.000Z</time>
</trkpt>
<trkpt lat="-27.4133678" lon="152.9924388">
<ele>25.546</ele>
<time>2016-05-16T06:30:41.000Z</time>
</trkpt>
<trkpt lat="-27.4133678" lon="152.9924388">
<ele>25.363</ele>
<time>2016-05-16T06:30:42.341Z</time>
</trkpt>
<trkpt lat="-27.4131943" lon="152.9924511">
<ele>25.370</ele>
<time>2016-05-16T06:30:48.000Z</time>
</trkpt>
<trkpt lat="-27.4131943" lon="152.9924511">
<ele>25.426</ele>
<time>2016-05-16T06:30:55.000Z</time>
</trkpt>
<trkpt lat="-27.4131943" lon="152.9924511">
<ele>25.421</ele>
<time>2016-05-16T06:31:08.899Z</time>
</trkpt>
<trkpt lat="-27.4129253" lon="152.9923941">
<ele>25.377</ele>
<time>2016-05-16T06:31:15.958Z</time>
</trkpt>
<trkpt lat="-27.4127921" lon="152.9923719">
<ele>25.353</ele>
<time>2016-05-16T06:31:17.815Z</time>
</trkpt>
<trkpt lat="-27.4126005" lon="152.9923260">
<ele>25.337</ele>
<time>2016-05-16T06:31:20.441Z</time>
</trkpt>
<trkpt lat="-27.4124516" lon="152.9922684">
<ele>25.322</ele>
<time>2016-05-16T06:31:22.270Z</time>
</trkpt>
<trkpt lat="-27.4121761" lon="152.9921855">
<ele>25.340</ele>
<time>2016-05-16T06:31:25.297Z</time>
</trkpt>
<trkpt lat="-27.4119961" lon="152.9921157">
<ele>25.385</ele>
<time>2016-05-16T06:31:27.188Z</time>
</trkpt>
<trkpt lat="-27.4117333" lon="152.9919844">
<ele>25.439</ele>
<time>2016-05-16T06:31:30.024Z</time>
</trkpt>
<trkpt lat="-27.4115553" lon="152.9918907">
<ele>25.476</ele>
<time>2016-05-16T06:31:31.999Z</time>
</trkpt>
<trkpt lat="-27.4113034" lon="152.9917602">
<ele>25.411</ele>
<time>2016-05-16T06:31:34.911Z</time>
</trkpt>
<trkpt lat="-27.4110708" lon="152.9916458">
<ele>25.160</ele>
<time>2016-05-16T06:31:37.803Z</time>
</trkpt>
<trkpt lat="-27.4109329" lon="152.9915763">
<ele>24.715</ele>
<time>2016-05-16T06:31:39.749Z</time>
</trkpt>
<trkpt lat="-27.4107432" lon="152.9915045">
<ele>24.132</ele>
<time>2016-05-16T06:31:42.904Z</time>
</trkpt>
<trkpt lat="-27.4106548" lon="152.9914613">
<ele>23.406</ele>
<time>2016-05-16T06:31:45.000Z</time>
</trkpt>
<trkpt lat="-27.4106548" lon="152.9914613">
<ele>22.623</ele>
<time>2016-05-16T06:31:50.000Z</time>
</trkpt>
<trkpt lat="-27.4106548" lon="152.9914613">
<ele>22.154</ele>
<time>2016-05-16T06:32:11.411Z</time>
</trkpt>
<trkpt lat="-27.4105202" lon="152.9913972">
<ele>22.175</ele>
<time>2016-05-16T06:32:17.000Z</time>
</trkpt>
<trkpt lat="-27.4105202" lon="152.9913972">
<ele>22.344</ele>
<time>2016-05-16T06:32:21.000Z</time>
</trkpt>
<trkpt lat="-27.4105202" lon="152.9913972">
<ele>22.351</ele>
<time>2016-05-16T06:32:52.514Z</time>
</trkpt>
<trkpt lat="-27.4103719" lon="152.9913504">
<ele>22.269</ele>
<time>2016-05-16T06:32:56.989Z</time>
</trkpt>
<trkpt lat="-27.4100945" lon="152.9912443">
<ele>22.405</ele>
<time>2016-05-16T06:33:00.385Z</time>
</trkpt>
<trkpt lat="-27.4098896" lon="152.9911538">
<ele>23.209</ele>
<time>2016-05-16T06:33:02.303Z</time>
</trkpt>
<trkpt lat="-27.4095573" lon="152.9910469">
<ele>24.915</ele>
<time>2016-05-16T06:33:05.111Z</time>
</trkpt>
<trkpt lat="-27.4093114" lon="152.9910060">
<ele>27.320</ele>
<time>2016-05-16T06:33:07.068Z</time>
</trkpt>
<trkpt lat="-27.4089586" lon="152.9909767">
<ele>29.723</ele>
<time>2016-05-16T06:33:09.920Z</time>
</trkpt>
<trkpt lat="-27.4087209" lon="152.9909399">
<ele>31.124</ele>
<time>2016-05-16T06:33:11.918Z</time>
</trkpt>
<trkpt lat="-27.4083848" lon="152.9909096">
<ele>31.069</ele>
<time>2016-05-16T06:33:14.829Z</time>
</trkpt>
<trkpt lat="-27.4081093" lon="152.9908843">
<ele>30.066</ele>
<time>2016-05-16T06:33:17.514Z</time>
</trkpt>
<trkpt lat="-27.4079849" lon="152.9908750">
<ele>28.746</ele>
<time>2016-05-16T06:33:19.000Z</time>
</trkpt>
<trkpt lat="-27.4079849" lon="152.9908750">
<ele>27.557</ele>
<time>2016-05-16T06:33:25.000Z</time>
</trkpt>
<trkpt lat="-27.4079849" lon="152.9908750">
<ele>26.936</ele>
<time>2016-05-16T06:34:29.921Z</time>
</trkpt>
<trkpt lat="-27.4077633" lon="152.9908447">
<ele>27.144</ele>
<time>2016-05-16T06:34:35.453Z</time>
</trkpt>
<trkpt lat="-27.4076063" lon="152.9907336">
<ele>27.928</ele>
<time>2016-05-16T06:34:37.670Z</time>
</trkpt>
<trkpt lat="-27.4072478" lon="152.9908126">
<ele>28.803</ele>
<time>2016-05-16T06:34:41.015Z</time>
</trkpt>
<trkpt lat="-27.4070032" lon="152.9907829">
<ele>29.530</ele>
<time>2016-05-16T06:34:43.120Z</time>
</trkpt>
<trkpt lat="-27.4066697" lon="152.9907605">
<ele>30.078</ele>
<time>2016-05-16T06:34:46.085Z</time>
</trkpt>
<trkpt lat="-27.4063601" lon="152.9907355">
<ele>30.378</ele>
<time>2016-05-16T06:34:48.747Z</time>
</trkpt>
<trkpt lat="-27.4057363" lon="152.9902684">
<ele>30.407</ele>
<time>2016-05-16T06:34:54.698Z</time>
</trkpt>
<trkpt lat="-27.4054486" lon="152.9898941">
<ele>30.501</ele>
<time>2016-05-16T06:34:57.809Z</time>
</trkpt>
<trkpt lat="-27.4052866" lon="152.9896801">
<ele>30.840</ele>
<time>2016-05-16T06:35:00.216Z</time>
</trkpt>
<trkpt lat="-27.4051617" lon="152.9894952">
<ele>31.160</ele>
<time>2016-05-16T06:35:03.015Z</time>
</trkpt>
<trkpt lat="-27.4050837" lon="152.9893700">
<ele>30.932</ele>
<time>2016-05-16T06:35:05.069Z</time>
</trkpt>
<trkpt lat="-27.4049624" lon="152.9891459">
<ele>30.091</ele>
<time>2016-05-16T06:35:08.116Z</time>
</trkpt>
<trkpt lat="-27.4048520" lon="152.9889575">
<ele>29.498</ele>
<time>2016-05-16T06:35:10.088Z</time>
</trkpt>
<trkpt lat="-27.4046955" lon="152.9887452">
<ele>29.859</ele>
<time>2016-05-16T06:35:12.229Z</time>
</trkpt>
<trkpt lat="-27.4043696" lon="152.9884498">
<ele>30.828</ele>
<time>2016-05-16T06:35:15.222Z</time>
</trkpt>
<trkpt lat="-27.4041299" lon="152.9882441">
<ele>32.231</ele>
<time>2016-05-16T06:35:17.217Z</time>
</trkpt>
<trkpt lat="-27.4037676" lon="152.9879502">
<ele>34.099</ele>
<time>2016-05-16T06:35:20.184Z</time>
</trkpt>
<trkpt lat="-27.4035415" lon="152.9877443">
<ele>35.770</ele>
<time>2016-05-16T06:35:22.169Z</time>
</trkpt>
<trkpt lat="-27.4032162" lon="152.9874401">
<ele>36.604</ele>
<time>2016-05-16T06:35:25.125Z</time>
</trkpt>
<trkpt lat="-27.4030181" lon="152.9872605">
<ele>36.677</ele>
<time>2016-05-16T06:35:27.022Z</time>
</trkpt>
<trkpt lat="-27.4028429" lon="152.9871062">
<ele>36.233</ele>
<time>2016-05-16T06:35:28.771Z</time>
</trkpt>
<trkpt lat="-27.4024922" lon="152.9869339">
<ele>35.575</ele>
<time>2016-05-16T06:35:31.774Z</time>
</trkpt>
<trkpt lat="-27.4020794" lon="152.9868781">
<ele>35.429</ele>
<time>2016-05-16T06:35:34.737Z</time>
</trkpt>
<trkpt lat="-27.4017342" lon="152.9869044">
<ele>36.507</ele>
<time>2016-05-16T06:35:36.981Z</time>
</trkpt>
<trkpt lat="-27.4012967" lon="152.9867050">
<ele>38.495</ele>
<time>2016-05-16T06:35:39.988Z</time>
</trkpt>
<trkpt lat="-27.4008715" lon="152.9864657">
<ele>40.524</ele>
<time>2016-05-16T06:35:42.974Z</time>
</trkpt>
<trkpt lat="-27.4003905" lon="152.9863924">
<ele>42.275</ele>
<time>2016-05-16T06:35:45.965Z</time>
</trkpt>
<trkpt lat="-27.3998919" lon="152.9863210">
<ele>43.975</ele>
<time>2016-05-16T06:35:49.100Z</time>
</trkpt>
<trkpt lat="-27.3996282" lon="152.9862353">
<ele>45.646</ele>
<time>2016-05-16T06:35:51.118Z</time>
</trkpt>
<trkpt lat="-27.3993275" lon="152.9861421">
<ele>47.058</ele>
<time>2016-05-16T06:35:54.117Z</time>
</trkpt>
<trkpt lat="-27.3991299" lon="152.9861118">
<ele>48.188</ele>
<time>2016-05-16T06:35:57.525Z</time>
</trkpt>
<trkpt lat="-27.3990394" lon="152.9861436">
<ele>49.107</ele>
<time>2016-05-16T06:36:00.000Z</time>
</trkpt>
<trkpt lat="-27.3990394" lon="152.9861436">
<ele>49.647</ele>
<time>2016-05-16T06:36:06.000Z</time>
</trkpt>
<trkpt lat="-27.3990394" lon="152.9861436">
<ele>49.766</ele>
<time>2016-05-16T06:36:10.059Z</time>
</trkpt>
<trkpt lat="-27.3987847" lon="152.9862136">
<ele>49.686</ele>
<time>2016-05-16T06:36:15.601Z</time>
</trkpt>
<trkpt lat="-27.3985712" lon="152.9863237">
<ele>50.253</ele>
<time>2016-05-16T06:36:18.328Z</time>
</trkpt>
<trkpt lat="-27.3982758" lon="152.9864686">
<ele>52.463</ele>
<time>2016-05-16T06:36:21.899Z</time>
</trkpt>
<trkpt lat="-27.3981370" lon="152.9865980">
<ele>56.038</ele>
<time>2016-05-16T06:36:23.787Z</time>
</trkpt>
<trkpt lat="-27.3978722" lon="152.9867744">
<ele>59.497</ele>
<time>2016-05-16T06:36:26.829Z</time>
</trkpt>
<trkpt lat="-27.3975888" lon="152.9869139">
<ele>62.090</ele>
<time>2016-05-16T06:36:29.738Z</time>
</trkpt>
<trkpt lat="-27.3973704" lon="152.9869136">
<ele>63.925</ele>
<time>2016-05-16T06:36:31.549Z</time>
</trkpt>
<trkpt lat="-27.3969814" lon="152.9867636">
<ele>65.033</ele>
<time>2016-05-16T06:36:34.544Z</time>
</trkpt>
<trkpt lat="-27.3965320" lon="152.9865564">
<ele>65.404</ele>
<time>2016-05-16T06:36:37.578Z</time>
</trkpt>
<trkpt lat="-27.3960598" lon="152.9863382">
<ele>64.699</ele>
<time>2016-05-16T06:36:40.574Z</time>
</trkpt>
<trkpt lat="-27.3957511" lon="152.9861915">
<ele>61.998</ele>
<time>2016-05-16T06:36:42.609Z</time>
</trkpt>
<trkpt lat="-27.3953370" lon="152.9860085">
<ele>57.960</ele>
<time>2016-05-16T06:36:45.469Z</time>
</trkpt>
<trkpt lat="-27.3950704" lon="152.9859079">
<ele>54.858</ele>
<time>2016-05-16T06:36:47.492Z</time>
</trkpt>
<trkpt lat="-27.3948327" lon="152.9858097">
<ele>54.286</ele>
<time>2016-05-16T06:36:49.468Z</time>
</trkpt>
<trkpt lat="-27.3944908" lon="152.9856894">
<ele>56.183</ele>
<time>2016-05-16T06:36:52.284Z</time>
</trkpt>
<trkpt lat="-27.3940720" lon="152.9854923">
<ele>59.545</ele>
<time>2016-05-16T06:36:55.536Z</time>
</trkpt>
<trkpt lat="-27.3938190" lon="152.9853936">
<ele>62.891</ele>
<time>2016-05-16T06:36:57.303Z</time>
</trkpt>
<trkpt lat="-27.3933822" lon="152.9851648">
<ele>64.856</ele>
<time>2016-05-16T06:37:00.354Z</time>
</trkpt>
<trkpt lat="-27.3930846" lon="152.9850182">
<ele>64.760</ele>
<time>2016-05-16T06:37:02.413Z</time>
</trkpt>
<trkpt lat="-27.3926212" lon="152.9848521">
<ele>62.821</ele>
<time>2016-05-16T06:37:05.753Z</time>
</trkpt>
<trkpt lat="-27.3923361" lon="152.9848228">
<ele>60.107</ele>
<time>2016-05-16T06:37:08.031Z</time>
</trkpt>
<trkpt lat="-27.3920866" lon="152.9848450">
<ele>58.433</ele>
<time>2016-05-16T06:37:10.125Z</time>
</trkpt>
<trkpt lat="-27.3916969" lon="152.9849304">
<ele>58.848</ele>
<time>2016-05-16T06:37:13.377Z</time>
</trkpt>
<trkpt lat="-27.3914503" lon="152.9849765">
<ele>60.953</ele>
<time>2016-05-16T06:37:15.275Z</time>
</trkpt>
<trkpt lat="-27.3911878" lon="152.9849979">
<ele>63.635</ele>
<time>2016-05-16T06:37:17.209Z</time>
</trkpt>
<trkpt lat="-27.3907826" lon="152.9850544">
<ele>65.873</ele>
<time>2016-05-16T06:37:20.023Z</time>
</trkpt>
<trkpt lat="-27.3904992" lon="152.9850515">
<ele>67.360</ele>
<time>2016-05-16T06:37:21.945Z</time>
</trkpt>
<trkpt lat="-27.3900739" lon="152.9850268">
<ele>68.270</ele>
<time>2016-05-16T06:37:24.847Z</time>
</trkpt>
<trkpt lat="-27.3893588" lon="152.9849670">
<ele>68.487</ele>
<time>2016-05-16T06:37:29.654Z</time>
</trkpt>
<trkpt lat="-27.3886918" lon="152.9848871">
<ele>68.022</ele>
<time>2016-05-16T06:37:33.962Z</time>
</trkpt>
<trkpt lat="-27.3882329" lon="152.9848191">
<ele>67.397</ele>
<time>2016-05-16T06:37:36.780Z</time>
</trkpt>
<trkpt lat="-27.3876778" lon="152.9847450">
<ele>66.563</ele>
<time>2016-05-16T06:37:39.989Z</time>
</trkpt>
<trkpt lat="-27.3872791" lon="152.9847102">
<ele>65.215</ele>
<time>2016-05-16T06:37:42.069Z</time>
</trkpt>
<trkpt lat="-27.3868766" lon="152.9847068">
<ele>63.424</ele>
<time>2016-05-16T06:37:44.104Z</time>
</trkpt>
<trkpt lat="-27.3865058" lon="152.9846968">
<ele>61.811</ele>
<time>2016-05-16T06:37:46.056Z</time>
</trkpt>
<trkpt lat="-27.3863317" lon="152.9846871">
<ele>60.814</ele>
<time>2016-05-16T06:37:47.005Z</time>
</trkpt>
<trkpt lat="-27.3856680" lon="152.9844143">
<ele>60.415</ele>
<time>2016-05-16T06:37:51.047Z</time>
</trkpt>
<trkpt lat="-27.3852509" lon="152.9840819">
<ele>60.457</ele>
<time>2016-05-16T06:37:54.085Z</time>
</trkpt>
<trkpt lat="-27.3848564" lon="152.9838119">
<ele>60.720</ele>
<time>2016-05-16T06:37:57.043Z</time>
</trkpt>
<trkpt lat="-27.3844674" lon="152.9836238">
<ele>60.675</ele>
<time>2016-05-16T06:37:59.930Z</time>
</trkpt>
<trkpt lat="-27.3841634" lon="152.9835074">
<ele>59.532</ele>
<time>2016-05-16T06:38:02.111Z</time>
</trkpt>
<trkpt lat="-27.3837425" lon="152.9833710">
<ele>57.327</ele>
<time>2016-05-16T06:38:05.054Z</time>
</trkpt>
<trkpt lat="-27.3834873" lon="152.9832947">
<ele>54.560</ele>
<time>2016-05-16T06:38:06.886Z</time>
</trkpt>
<trkpt lat="-27.3832194" lon="152.9832353">
<ele>51.196</ele>
<time>2016-05-16T06:38:08.921Z</time>
</trkpt>
<trkpt lat="-27.3829866" lon="152.9831700">
<ele>47.369</ele>
<time>2016-05-16T06:38:10.921Z</time>
</trkpt>
<trkpt lat="-27.3826823" lon="152.9830777">
<ele>43.719</ele>
<time>2016-05-16T06:38:13.882Z</time>
</trkpt>
<trkpt lat="-27.3825150" lon="152.9830124">
<ele>40.395</ele>
<time>2016-05-16T06:38:15.884Z</time>
</trkpt>
<trkpt lat="-27.3823047" lon="152.9829153">
<ele>37.431</ele>
<time>2016-05-16T06:38:18.811Z</time>
</trkpt>
<trkpt lat="-27.3821015" lon="152.9827821">
<ele>35.014</ele>
<time>2016-05-16T06:38:22.029Z</time>
</trkpt>
<trkpt lat="-27.3819707" lon="152.9826866">
<ele>33.154</ele>
<time>2016-05-16T06:38:23.904Z</time>
</trkpt>
<trkpt lat="-27.3818174" lon="152.9825412">
<ele>31.881</ele>
<time>2016-05-16T06:38:26.004Z</time>
</trkpt>
<trkpt lat="-27.3816612" lon="152.9823828">
<ele>31.397</ele>
<time>2016-05-16T06:38:28.022Z</time>
</trkpt>
<trkpt lat="-27.3814986" lon="152.9822188">
<ele>31.532</ele>
<time>2016-05-16T06:38:30.003Z</time>
</trkpt>
<trkpt lat="-27.3812310" lon="152.9819481">
<ele>31.813</ele>
<time>2016-05-16T06:38:33.018Z</time>
</trkpt>
<trkpt lat="-27.3809979" lon="152.9817127">
<ele>31.927</ele>
<time>2016-05-16T06:38:35.257Z</time>
</trkpt>
<trkpt lat="-27.3807543" lon="152.9814918">
<ele>32.080</ele>
<time>2016-05-16T06:38:37.322Z</time>
</trkpt>
<trkpt lat="-27.3803603" lon="152.9812160">
<ele>32.597</ele>
<time>2016-05-16T06:38:40.286Z</time>
</trkpt>
<trkpt lat="-27.3800586" lon="152.9810855">
<ele>33.515</ele>
<time>2016-05-16T06:38:42.270Z</time>
</trkpt>
<trkpt lat="-27.3796783" lon="152.9809321">
<ele>34.736</ele>
<time>2016-05-16T06:38:44.741Z</time>
</trkpt>
<trkpt lat="-27.3793168" lon="152.9807894">
<ele>36.223</ele>
<time>2016-05-16T06:38:47.117Z</time>
</trkpt>
<trkpt lat="-27.3788742" lon="152.9806346">
<ele>37.930</ele>
<time>2016-05-16T06:38:50.044Z</time>
</trkpt>
<trkpt lat="-27.3785575" lon="152.9805701">
<ele>40.040</ele>
<time>2016-05-16T06:38:52.104Z</time>
</trkpt>
<trkpt lat="-27.3782666" lon="152.9805349">
<ele>42.488</ele>
<time>2016-05-16T06:38:53.973Z</time>
</trkpt>
<trkpt lat="-27.3779513" lon="152.9805020">
<ele>44.886</ele>
<time>2016-05-16T06:38:55.942Z</time>
</trkpt>
<trkpt lat="-27.3774501" lon="152.9804490">
<ele>47.060</ele>
<time>2016-05-16T06:38:58.956Z</time>
</trkpt>
<trkpt lat="-27.3771083" lon="152.9804073">
<ele>49.202</ele>
<time>2016-05-16T06:39:00.929Z</time>
</trkpt>
<trkpt lat="-27.3766014" lon="152.9803550">
<ele>51.160</ele>
<time>2016-05-16T06:39:03.864Z</time>
</trkpt>
<trkpt lat="-27.3761174" lon="152.9803065">
<ele>52.354</ele>
<time>2016-05-16T06:39:06.830Z</time>
</trkpt>
<trkpt lat="-27.3756923" lon="152.9802773">
<ele>52.309</ele>
<time>2016-05-16T06:39:09.685Z</time>
</trkpt>
<trkpt lat="-27.3753967" lon="152.9802825">
<ele>51.145</ele>
<time>2016-05-16T06:39:11.785Z</time>
</trkpt>
<trkpt lat="-27.3749773" lon="152.9802701">
<ele>49.233</ele>
<time>2016-05-16T06:39:14.689Z</time>
</trkpt>
<trkpt lat="-27.3746784" lon="152.9802688">
<ele>47.192</ele>
<time>2016-05-16T06:39:16.684Z</time>
</trkpt>
<trkpt lat="-27.3741812" lon="152.9802832">
<ele>45.503</ele>
<time>2016-05-16T06:39:19.970Z</time>
</trkpt>
<trkpt lat="-27.3737083" lon="152.9802988">
<ele>44.309</ele>
<time>2016-05-16T06:39:23.079Z</time>
</trkpt>
<trkpt lat="-27.3734252" lon="152.9803048">
<ele>43.769</ele>
<time>2016-05-16T06:39:24.897Z</time>
</trkpt>
<trkpt lat="-27.3729211" lon="152.9803203">
<ele>44.234</ele>
<time>2016-05-16T06:39:27.955Z</time>
</trkpt>
<trkpt lat="-27.3723288" lon="152.9803104">
<ele>45.607</ele>
<time>2016-05-16T06:39:31.242Z</time>
</trkpt>
<trkpt lat="-27.3717712" lon="152.9802506">
<ele>47.100</ele>
<time>2016-05-16T06:39:34.226Z</time>
</trkpt>
<trkpt lat="-27.3714239" lon="152.9801779">
<ele>47.854</ele>
<time>2016-05-16T06:39:36.114Z</time>
</trkpt>
<trkpt lat="-27.3709126" lon="152.9800172">
<ele>47.685</ele>
<time>2016-05-16T06:39:38.977Z</time>
</trkpt>
<trkpt lat="-27.3705840" lon="152.9798815">
<ele>46.651</ele>
<time>2016-05-16T06:39:40.848Z</time>
</trkpt>
<trkpt lat="-27.3700304" lon="152.9796246">
<ele>44.969</ele>
<time>2016-05-16T06:39:43.960Z</time>
</trkpt>
<trkpt lat="-27.3696751" lon="152.9794573">
<ele>42.412</ele>
<time>2016-05-16T06:39:45.933Z</time>
</trkpt>
<trkpt lat="-27.3691754" lon="152.9791345">
<ele>38.872</ele>
<time>2016-05-16T06:39:48.921Z</time>
</trkpt>
<trkpt lat="-27.3687779" lon="152.9790217">
<ele>35.243</ele>
<time>2016-05-16T06:39:51.056Z</time>
</trkpt>
<trkpt lat="-27.3682663" lon="152.9787275">
<ele>32.630</ele>
<time>2016-05-16T06:39:54.100Z</time>
</trkpt>
<trkpt lat="-27.3678367" lon="152.9784060">
<ele>31.584</ele>
<time>2016-05-16T06:39:56.985Z</time>
</trkpt>
<trkpt lat="-27.3675808" lon="152.9781685">
<ele>32.107</ele>
<time>2016-05-16T06:39:58.914Z</time>
</trkpt>
<trkpt lat="-27.3672208" lon="152.9777542">
<ele>33.508</ele>
<time>2016-05-16T06:40:01.884Z</time>
</trkpt>
<trkpt lat="-27.3669947" lon="152.9774451">
<ele>35.066</ele>
<time>2016-05-16T06:40:03.878Z</time>
</trkpt>
<trkpt lat="-27.3667784" lon="152.9771160">
<ele>36.138</ele>
<time>2016-05-16T06:40:05.860Z</time>
</trkpt>
<trkpt lat="-27.3664451" lon="152.9766047">
<ele>36.457</ele>
<time>2016-05-16T06:40:08.881Z</time>
</trkpt>
<trkpt lat="-27.3661250" lon="152.9761004">
<ele>36.273</ele>
<time>2016-05-16T06:40:11.873Z</time>
</trkpt>
<trkpt lat="-27.3658308" lon="152.9756398">
<ele>35.772</ele>
<time>2016-05-16T06:40:14.716Z</time>
</trkpt>
<trkpt lat="-27.3655176" lon="152.9751852">
<ele>35.271</ele>
<time>2016-05-16T06:40:17.709Z</time>
</trkpt>
<trkpt lat="-27.3652960" lon="152.9749113">
<ele>35.476</ele>
<time>2016-05-16T06:40:19.745Z</time>
</trkpt>
<trkpt lat="-27.3649909" lon="152.9745558">
<ele>36.731</ele>
<time>2016-05-16T06:40:22.698Z</time>
</trkpt>
<trkpt lat="-27.3647989" lon="152.9743769">
<ele>38.616</ele>
<time>2016-05-16T06:40:24.707Z</time>
</trkpt>
<trkpt lat="-27.3646553" lon="152.9742654">
<ele>40.391</ele>
<time>2016-05-16T06:40:26.500Z</time>
</trkpt>
<trkpt lat="-27.3645672" lon="152.9741952">
<ele>41.478</ele>
<time>2016-05-16T06:40:28.000Z</time>
</trkpt>
<trkpt lat="-27.3645672" lon="152.9741952">
<ele>41.793</ele>
<time>2016-05-16T06:40:33.000Z</time>
</trkpt>
<trkpt lat="-27.3645672" lon="152.9741952">
<ele>41.700</ele>
<time>2016-05-16T06:41:02.890Z</time>
</trkpt>
<trkpt lat="-27.3642712" lon="152.9739923">
<ele>41.574</ele>
<time>2016-05-16T06:41:08.616Z</time>
</trkpt>
<trkpt lat="-27.3640126" lon="152.9738626">
<ele>42.502</ele>
<time>2016-05-16T06:41:10.740Z</time>
</trkpt>
<trkpt lat="-27.3634894" lon="152.9735941">
<ele>45.518</ele>
<time>2016-05-16T06:41:14.608Z</time>
</trkpt>
<trkpt lat="-27.3630131" lon="152.9732265">
<ele>49.507</ele>
<time>2016-05-16T06:41:18.051Z</time>
</trkpt>
<trkpt lat="-27.3627433" lon="152.9729199">
<ele>52.318</ele>
<time>2016-05-16T06:41:20.381Z</time>
</trkpt>
<trkpt lat="-27.3624859" lon="152.9726749">
<ele>53.039</ele>
<time>2016-05-16T06:41:22.760Z</time>
</trkpt>
<trkpt lat="-27.3621852" lon="152.9724156">
<ele>52.062</ele>
<time>2016-05-16T06:41:28.067Z</time>
</trkpt>
<trkpt lat="-27.3620515" lon="152.9723155">
<ele>49.818</ele>
<time>2016-05-16T06:41:30.794Z</time>
</trkpt>
<trkpt lat="-27.3620598" lon="152.9724339">
<ele>46.312</ele>
<time>2016-05-16T06:41:32.586Z</time>
</trkpt>
<trkpt lat="-27.3619775" lon="152.9723340">
<ele>42.115</ele>
<time>2016-05-16T06:41:34.641Z</time>
</trkpt>
<trkpt lat="-27.3618970" lon="152.9722477">
<ele>38.670</ele>
<time>2016-05-16T06:41:36.531Z</time>
</trkpt>
<trkpt lat="-27.3617748" lon="152.9721717">
<ele>36.918</ele>
<time>2016-05-16T06:41:41.014Z</time>
</trkpt>
<trkpt lat="-27.3616508" lon="152.9721056">
<ele>36.748</ele>
<time>2016-05-16T06:41:45.811Z</time>
</trkpt>
<trkpt lat="-27.3615245" lon="152.9720270">
<ele>37.332</ele>
<time>2016-05-16T06:41:48.395Z</time>
</trkpt>
<trkpt lat="-27.3613819" lon="152.9719398">
<ele>37.817</ele>
<time>2016-05-16T06:41:50.617Z</time>
</trkpt>
<trkpt lat="-27.3611469" lon="152.9717968">
<ele>37.813</ele>
<time>2016-05-16T06:41:54.021Z</time>
</trkpt>
<trkpt lat="-27.3610060" lon="152.9717101">
<ele>37.528</ele>
<time>2016-05-16T06:41:55.921Z</time>
</trkpt>
<trkpt lat="-27.3607530" lon="152.9715535">
<ele>37.085</ele>
<time>2016-05-16T06:41:59.314Z</time>
</trkpt>
<trkpt lat="-27.3604784" lon="152.9713799">
<ele>36.411</ele>
<time>2016-05-16T06:42:02.779Z</time>
</trkpt>
<trkpt lat="-27.3602997" lon="152.9712642">
<ele>35.464</ele>
<time>2016-05-16T06:42:04.893Z</time>
</trkpt>
<trkpt lat="-27.3601252" lon="152.9711543">
<ele>34.295</ele>
<time>2016-05-16T06:42:06.861Z</time>
</trkpt>
<trkpt lat="-27.3597477" lon="152.9709275">
<ele>33.008</ele>
<time>2016-05-16T06:42:11.104Z</time>
</trkpt>
<trkpt lat="-27.3595389" lon="152.9708075">
<ele>31.764</ele>
<time>2016-05-16T06:42:13.354Z</time>
</trkpt>
<trkpt lat="-27.3592088" lon="152.9705856">
<ele>30.590</ele>
<time>2016-05-16T06:42:16.701Z</time>
</trkpt>
<trkpt lat="-27.3589948" lon="152.9704302">
<ele>29.316</ele>
<time>2016-05-16T06:42:18.804Z</time>
</trkpt>
<trkpt lat="-27.3587465" lon="152.9702773">
<ele>27.995</ele>
<time>2016-05-16T06:42:21.031Z</time>
</trkpt>
<trkpt lat="-27.3584167" lon="152.9700642">
<ele>27.104</ele>
<time>2016-05-16T06:42:24.004Z</time>
</trkpt>
<trkpt lat="-27.3581326" lon="152.9698806">
<ele>26.777</ele>
<time>2016-05-16T06:42:26.762Z</time>
</trkpt>
<trkpt lat="-27.3578722" lon="152.9697066">
<ele>26.566</ele>
<time>2016-05-16T06:42:29.563Z</time>
</trkpt>
<trkpt lat="-27.3576708" lon="152.9694971">
<ele>26.062</ele>
<time>2016-05-16T06:42:32.499Z</time>
</trkpt>
<trkpt lat="-27.3576482" lon="152.9693588">
<ele>25.165</ele>
<time>2016-05-16T06:42:34.024Z</time>
</trkpt>
<trkpt lat="-27.3577290" lon="152.9691649">
<ele>24.134</ele>
<time>2016-05-16T06:42:36.412Z</time>
</trkpt>
<trkpt lat="-27.3579083" lon="152.9687693">
<ele>23.693</ele>
<time>2016-05-16T06:42:40.216Z</time>
</trkpt>
<trkpt lat="-27.3581079" lon="152.9683249">
<ele>24.558</ele>
<time>2016-05-16T06:42:43.454Z</time>
</trkpt>
<trkpt lat="-27.3583684" lon="152.9678818">
<ele>26.665</ele>
<time>2016-05-16T06:42:46.580Z</time>
</trkpt>
<trkpt lat="-27.3585527" lon="152.9674252">
<ele>29.131</ele>
<time>2016-05-16T06:42:49.535Z</time>
</trkpt>
<trkpt lat="-27.3586355" lon="152.9672451">
<ele>31.165</ele>
<time>2016-05-16T06:42:50.784Z</time>
</trkpt>
<trkpt lat="-27.3587981" lon="152.9666337">
<ele>32.715</ele>
<time>2016-05-16T06:42:54.790Z</time>
</trkpt>
<trkpt lat="-27.3587130" lon="152.9657740">
<ele>34.591</ele>
<time>2016-05-16T06:43:00.013Z</time>
</trkpt>
<trkpt lat="-27.3585177" lon="152.9653042">
<ele>35.624</ele>
<time>2016-05-16T06:43:02.990Z</time>
</trkpt>
<trkpt lat="-27.3582260" lon="152.9648818">
<ele>37.454</ele>
<time>2016-05-16T06:43:06.013Z</time>
</trkpt>
<trkpt lat="-27.3580198" lon="152.9646255">
<ele>39.195</ele>
<time>2016-05-16T06:43:08.005Z</time>
</trkpt>
<trkpt lat="-27.3578018" lon="152.9643911">
<ele>39.733</ele>
<time>2016-05-16T06:43:10.000Z</time>
</trkpt>
<trkpt lat="-27.3575823" lon="152.9641625">
<ele>38.891</ele>
<time>2016-05-16T06:43:11.984Z</time>
</trkpt>
<trkpt lat="-27.3572567" lon="152.9638087">
<ele>36.953</ele>
<time>2016-05-16T06:43:14.976Z</time>
</trkpt>
<trkpt lat="-27.3569340" lon="152.9634473">
<ele>34.195</ele>
<time>2016-05-16T06:43:18.014Z</time>
</trkpt>
<trkpt lat="-27.3566458" lon="152.9630965">
<ele>30.967</ele>
<time>2016-05-16T06:43:20.942Z</time>
</trkpt>
<trkpt lat="-27.3565048" lon="152.9628215">
<ele>27.735</ele>
<time>2016-05-16T06:43:23.013Z</time>
</trkpt>
<trkpt lat="-27.3563016" lon="152.9624432">
<ele>24.827</ele>
<time>2016-05-16T06:43:26.046Z</time>
</trkpt>
<trkpt lat="-27.3561310" lon="152.9620732">
<ele>22.396</ele>
<time>2016-05-16T06:43:29.020Z</time>
</trkpt>
<trkpt lat="-27.3559871" lon="152.9618320">
<ele>20.503</ele>
<time>2016-05-16T06:43:31.168Z</time>
</trkpt>
<trkpt lat="-27.3558337" lon="152.9614933">
<ele>19.266</ele>
<time>2016-05-16T06:43:34.159Z</time>
</trkpt>
<trkpt lat="-27.3556821" lon="152.9611481">
<ele>18.639</ele>
<time>2016-05-16T06:43:37.354Z</time>
</trkpt>
<trkpt lat="-27.3555636" lon="152.9608402">
<ele>18.329</ele>
<time>2016-05-16T06:43:39.946Z</time>
</trkpt>
<trkpt lat="-27.3554596" lon="152.9605731">
<ele>18.537</ele>
<time>2016-05-16T06:43:41.942Z</time>
</trkpt>
<trkpt lat="-27.3553477" lon="152.9602912">
<ele>19.612</ele>
<time>2016-05-16T06:43:43.983Z</time>
</trkpt>
<trkpt lat="-27.3551798" lon="152.9598703">
<ele>21.045</ele>
<time>2016-05-16T06:43:47.031Z</time>
</trkpt>
<trkpt lat="-27.3550358" lon="152.9594548">
<ele>21.833</ele>
<time>2016-05-16T06:43:49.990Z</time>
</trkpt>
<trkpt lat="-27.3549668" lon="152.9590165">
<ele>21.593</ele>
<time>2016-05-16T06:43:53.054Z</time>
</trkpt>
<trkpt lat="-27.3549482" lon="152.9586195">
<ele>20.736</ele>
<time>2016-05-16T06:43:55.982Z</time>
</trkpt>
<trkpt lat="-27.3549337" lon="152.9582299">
<ele>19.752</ele>
<time>2016-05-16T06:43:58.956Z</time>
</trkpt>
<trkpt lat="-27.3549242" lon="152.9579729">
<ele>18.865</ele>
<time>2016-05-16T06:44:01.056Z</time>
</trkpt>
<trkpt lat="-27.3549124" lon="152.9576575">
<ele>18.068</ele>
<time>2016-05-16T06:44:04.064Z</time>
</trkpt>
<trkpt lat="-27.3549071" lon="152.9575149">
<ele>16.923</ele>
<time>2016-05-16T06:44:06.164Z</time>
</trkpt>
<trkpt lat="-27.3549707" lon="152.9573884">
<ele>15.155</ele>
<time>2016-05-16T06:44:08.917Z</time>
</trkpt>
<trkpt lat="-27.3551386" lon="152.9573286">
<ele>13.387</ele>
<time>2016-05-16T06:44:12.804Z</time>
</trkpt>
<trkpt lat="-27.3554219" lon="152.9572955">
<ele>12.402</ele>
<time>2016-05-16T06:44:17.161Z</time>
</trkpt>
<trkpt lat="-27.3556735" lon="152.9572234">
<ele>12.244</ele>
<time>2016-05-16T06:44:20.141Z</time>
</trkpt>
<trkpt lat="-27.3558261" lon="152.9571730">
<ele>12.442</ele>
<time>2016-05-16T06:44:22.047Z</time>
</trkpt>
<trkpt lat="-27.3560224" lon="152.9570403">
<ele>12.621</ele>
<time>2016-05-16T06:44:24.874Z</time>
</trkpt>
<trkpt lat="-27.3561867" lon="152.9569461">
<ele>12.711</ele>
<time>2016-05-16T06:44:27.021Z</time>
</trkpt>
<trkpt lat="-27.3564368" lon="152.9567512">
<ele>12.965</ele>
<time>2016-05-16T06:44:30.314Z</time>
</trkpt>
<trkpt lat="-27.3566317" lon="152.9565993">
<ele>13.598</ele>
<time>2016-05-16T06:44:33.000Z</time>
</trkpt>
<trkpt lat="-27.3566317" lon="152.9565993">
<ele>14.337</ele>
<time>2016-05-16T06:44:40.000Z</time>
</trkpt>
<trkpt lat="-27.3566317" lon="152.9565993">
<ele>14.721</ele>
<time>2016-05-16T06:44:54.064Z</time>
</trkpt>
<trkpt lat="-27.3567935" lon="152.9564796">
<ele>14.681</ele>
<time>2016-05-16T06:45:03.000Z</time>
</trkpt>
<trkpt lat="-27.3567935" lon="152.9564796">
<ele>14.525</ele>
<time>2016-05-16T06:45:09.000Z</time>
</trkpt>
<trkpt lat="-27.3567935" lon="152.9564796">
<ele>14.507</ele>
<time>2016-05-16T06:46:51.703Z</time>
</trkpt>
<trkpt lat="-27.3569263" lon="152.9566491">
<ele>14.586</ele>
<time>2016-05-16T06:48:10.000Z</time>
</trkpt>
<trkpt lat="-27.3569263" lon="152.9566491">
<ele>14.637</ele>
<time>2016-05-16T06:48:13.000Z</time>
</trkpt>
</trkseg>
</trk>
<extensions>
<fpdata xmlns="http://www.motionx.com/GPX-Extensions/1/1" sfv="10" origin="MotionXGPSFull 24.1 Build 5049R64">
<bin enc="base64">
RgIAAAACAAAA2pPUq1TO1UEBAAAABCHrVlvO1UEAAIzn4ZK1QEkIAABw+XwAQjL7HGP6
OkBPo+d7DEYtQAAAAAAUAAAATXRzIEdsb3Jpb3VzICYgTmVibwAVAAAAMTYgTWF5IDIw
MTYgIDI6NTUgcG0AAAAAAEch61ZbztVBxeKWYFvO1UE/elcAbPTEveorl0AsAAAAAQAA
AJQTcjedHmNAAxycy11bO8BCMvscY/o6QAAAAAAAACRAAAAAAAAAMEAAAAAAAGKkQAAA
AAAAAAAAAAAAAArXo3A9Kl9AihZH6sA9KUABAAAA5LYPAPMKkb8BAAAAAQAAAO5fMSmE
2sI/Id0a2pZYuL8BAAAAAQAAAAIAAADGH7o2y/hKQAAAAAAAAAAAAQAAAA4AAABUcmFj
a18wMDcuZ3B4AAEAAAACuP9WW87VQQoAAAABAAAACgAAAFRyYWNrIDAwNwAAAAAADAAA
AAAAAAAAAAAATgAAADcAQEtbztVBAAAAAAAAAAAAAAAAAAAAAP8lRLwCAAAAAAAAAAAA
AAABAAAAJwAAADI0LjEgQnVpbGQgNTA0OVI2NCwgTVhBRSA4LjEgYi4gNjI2UjY0AAAA
AADoawAAAQAAAAEgAAAAr1I5Vy1tOVcE7+MErFTO1UHv4wSsVM7VQQAAAMAGKOg/AAAA
AALyk9SrVM7VQTfhSNpUztVBAACAoiY6Z0AAAAAAAiXNS+9UztVBSglLD1XO1UEAAIBa
4pxzQAAAAAACWhJJGlXO1UGsrYciVc7VQQAAAC+JrHVAAAAAAAIzMk0tVc7VQVq8xnBV
ztVBAABg3HVFg0AAAAAAAka0zXxVztVB8u0GwVXO1UEAAOARncyLQAAAAAACIXUJxVXO
1UHsTEfsVc7VQQAAoAUsWpBAAAAAAAKFewjuVc7VQZXUSPBVztVBAACgljF+kEAAAAAA
AjWZCPNVztVBMJrH/FXO1UEAAFCmIRqRQAAAAAACoOEI/lXO1UHCakVgVs7VQQAAcDjq
PZdAAAAAAAIUWkpvVs7VQVqhSIVWztVBAADQrM6dmEAAAAAAAuTBh4dWztVBQOBH3FfO
1UEAAEhJ6PSmQAAAAAACIHyKJFjO1UFkjwg5Wc7VQQAAaOPYmK9AAAAAAAJnC4xBWc7V
QToeSGFZztVBAAAAvVxLsEAAAAAAArsqi2dZztVBwhdMnVnO1UEAABxxYCKxQAAAAAAC
RrTNqFnO1UH688fEWc7VQQAA7G9JkrFAAAAAAAMKD2nQWc7VQQoPadBZztVBAAC9rLWf
sUAAAAAABEOOT9NZztVBQ45P01nO1UEAAF2pT6uxQAAAAAAC9P8NzVnO1UHRr8nfWc7V
QQAAYC843bFAAAAAAAKGrormWc7VQRHgif5ZztVBAACM9TQ9skAAAAAAAnPaDQZaztVB
NUXLEFrO1UEAAJSgKmiyQAAAAAACfqtLGFrO1UELmkozWs7VQQAAyFom1LJAAAAAAAJU
OM02Ws7VQV5jSERaztVBAADwBhMKs0AAAAAAAo4/CkZaztVBfPPTR1rO1UEAAKjWORGz
QAAAAAACmbeNTFrO1UFVh4pVWs7VQQAAmBUtNbNAAAAAAALdXUpcWs7VQZQzS11aztVB
AAB0bDA5s0AAAAAAAhr8CWZaztVBvqFHbVrO1UEAAAQDJ1azQAAAAAACxOyOflrO1UGi
YoiVWs7VQQAAfNoMsrNAAAAAAAIzjIyXWs7VQfm9SdhaztVBAACUoQG1tEAAAAAAAoQu
zeBaztVBCW8KFlvO1UEAAKij9om1QAAAAAACmRHKG1vO1UGKVUcdW87VQQAAbLPrj7VA
AAAAAAJFEYtKW87VQU2eSEtbztVBAACM5+GStUAAAAAAAAAAAA==
</bin>
</fpdata>
</extensions>
</gpx>